[[{"header":{"parameterUnit":"m.s-1","parameterCategory":1,"la1":31.0,"la2":29.5877,"lo1":-88.7671,"lo2":-86.6584,"dy":0.0162,"dx":0.0185,"nx":115,"ny":88,"refTime":"2023-10-12T06:00:00:Z","depth":0,"parameterNumber":2,"parameterNumberName":"U-component_of_WINDS"},"data":[0.0,0.0,0.0,0.0,0.0,0.0,0.0,0.0,0.0,0.0,0.0,0.0,0.0,0.0,0.0,0.0,0.0,0.0,0.0,0.0,0.0,0.0,0.0,0.0,0.0,0.0,0.0,0.0,0.0,0.0,0.0,0.0,0.0,0.0,0.0,0.0,0.0,0.0,0.0,0.0,0.0,0.0,0.0,0.0,0.0,0.0,0.0,0.0,0.0,0.0,0.0,0.0,0.0,0.0,0.0,0.0,0.0,0.0,0.0,0.0,0.0,0.0,0.0,0.0,0.0,0.0,0.0,0.0,0.0,0.0,0.0,0.0,0.0,0.0,0.0,0.0,0.0,0.0,0.0,0.0,0.0,0.0,0.0,0.0,0.0,0.0,0.0,0.0,0.0,0.0,0.0,0.0,0.0,0.0,0.0,0.0,0.0,0.0,0.0,0.0,0.0,0.0,0.0,0.0,0.0,0.0,0.0,0.0,0.0,0.0,0.0,0.0,0.0,0.0,0.0,0.0,0.0,0.0,0.0,0.0,0.0,0.0,0.0,0.0,0.0,0.0,0.0,0.0,0.0,0.0,0.0,0.0,0.0,0.0,0.0,0.0,0.0,0.0,0.0,0.0,0.0,0.0,0.0,0.0,0.0,0.0,0.0,0.0,0.0,0.0,0.0,0.0,0.0,0.0,0.0,0.0,0.0,0.0,0.0,0.0,0.0,0.0,0.0,0.0,0.0,0.0,0.0,0.0,0.0,0.0,0.0,0.0,0.0,0.0,0.0,0.0,0.0,0.0,0.0,0.0,0.0,0.0,0.0,0.0,0.0,0.0,0.0,0.0,0.0,0.0,0.0,0.0,0.0,0.0,0.0,0.0,0.0,0.0,0.0,0.0,0.0,0.0,0.0,0.0,0.0,0.0,0.0,0.0,0.0,0.0,0.0,0.0,0.0,0.0,0.0,0.0,0.0,0.0,0.0,0.0,0.0,0.0,0.0,0.0,0.0,0.0,0.0,0.0,0.0,0.0,0.0,0.0,0.0,0.0,0.0,0.0,0.0,0.0,0.0,0.0,0.0,0.0,0.0,0.0,0.0,0.0,0.0,0.0,0.0,0.0,0.0,0.0,0.0,0.0,0.0,0.0,0.0,0.0,0.0,0.0,0.0,0.0,0.0,0.0,0.0,0.0,0.0,0.0,0.0,0.0,0.0,0.0,0.0,0.0,0.0,0.0,0.0,0.0,0.0,0.0,0.0,0.0,0.0,0.0,0.0,0.0,0.0,0.0,0.0,0.0,0.0,0.0,0.0,0.0,0.0,0.0,0.0,0.0,0.0,0.0,0.0,0.0,0.0,0.0,0.0,0.0,0.0,0.0,0.0,0.0,0.0,0.0,0.0,0.0,0.0,0.0,0.0,0.0,0.0,0.0,0.0,0.0,0.0,0.0,0.0,0.0,0.0,0.0,0.0,0.0,0.0,0.0,0.0,0.0,0.0,0.0,0.0,0.0,0.0,0.0,0.0,0.0,0.0,0.0,0.0,0.0,0.0,0.0,0.0,0.0,0.0,0.0,0.0,0.0,0.0,0.0,0.0,0.0,0.0,0.0,0.0,0.0,0.0,0.0,0.0,0.0,0.0,0.0,0.0,0.0,0.0,0.0,0.0,0.0,0.0,0.0,0.0,0.0,0.0,0.0,0.0,0.0,0.0,0.0,0.0,0.0,0.0,0.0,0.0,0.0,0.0,0.0,0.0,0.0,0.0,0.0,0.0,0.0,0.0,0.0,0.0,0.0,0.0,0.0,0.0,0.0,0.0,0.0,0.0,0.0,0.0,0.0,0.0,0.0,0.0,0.0,0.0,0.0,0.0,0.0,0.0,0.0,0.0,0.0,0.0,0.0,0.0,0.0,0.0,0.0,0.0,0.0,0.0,0.0,0.0,0.0,0.0,0.0,0.0,0.0,0.0,0.0,0.0,0.0,0.0,0.0,0.0,0.0,0.0,0.0,0.0,0.0,0.0,0.0,0.0,0.0,0.0,0.0,0.0,0.0,0.0,0.0,0.0,0.0,0.0,0.0,0.0,0.0,0.0,0.0,0.0,0.0,0.0,0.0,0.0,0.0,0.0,0.0,0.0,0.0,0.0,0.0,0.0,0.0,0.0,0.0,0.0,0.0,0.0,0.0,0.0,0.0,0.0,0.0,0.0,0.0,0.0,0.0,0.0,0.0,0.0,0.0,0.0,0.0,0.0,0.0,0.0,0.0,0.0,0.0,0.0,0.0,0.0,0.0,0.0,0.0,0.0,0.0,0.0,0.0,0.0,0.0,0.0,0.0,0.0,0.0,0.0,0.0,0.0,0.0,0.0,0.0,0.0,0.0,0.0,0.0,0.0,0.0,0.0,0.0,0.0,0.0,0.0,0.0,0.0,0.0,0.0,0.0,0.0,0.0,0.0,0.0,0.0,0.0,0.0,0.0,0.0,0.0,0.0,0.0,0.0,0.0,0.0,0.0,0.0,0.0,0.0,0.0,0.0,0.0,0.0,0.0,0.0,0.0,0.0,0.0,0.0,0.0,0.0,0.0,0.0,0.0,0.0,0.0,0.0,0.0,0.0,0.0,0.0,0.0,0.0,0.0,0.0,0.0,0.0,0.0,0.0,0.0,0.0,0.0,0.0,0.0,0.0,0.0,0.0,0.0,0.0,0.0,0.0,0.0,0.0,0.0,0.0,0.0,0.0,0.0,0.0,0.0,0.0,0.0,0.0,0.0,0.0,0.0,0.0,0.0,0.0,0.0,0.0,0.0,0.0,0.0,0.0,0.0,0.0,0.0,0.0,0.0,0.0,0.0,0.0,0.0,0.0,0.0,0.0,0.0,0.0,0.0,0.0,0.0,0.0,0.0,0.0,0.0,0.0,0.0,0.0,0.0,0.0,0.0,0.0,0.0,0.0,0.0,0.0,0.0,0.0,0.0,0.0,0.0,0.0,0.0,0.0,0.0,0.0,0.0,0.0,0.0,0.0,0.0,0.0,0.0,0.0,0.0,0.0,0.0,0.0,0.0,0.0,0.0,0.0,0.0,0.0,0.0,0.0,0.0,0.0,0.0,0.0,0.0,0.0,0.0,0.0,0.0,0.0,0.0,0.0,0.0,0.0,0.0,0.0,0.0,0.0,0.0,0.0,0.0,0.0,0.0,0.0,0.0,0.0,0.0,0.0,0.0,0.0,0.0,0.0,0.0,0.0,0.0,0.0,0.0,0.0,0.0,0.0,0.0,0.0,0.0,0.0,0.0,0.0,0.0,0.0,0.0,0.0,0.0,0.0,0.0,0.0,0.0,0.0,0.0,0.0,0.0,0.0,0.0,0.0,0.0,0.0,0.0,0.0,0.0,0.0,0.0,0.0,0.0,0.0,0.0,0.0,0.0,0.0,0.0,0.0,0.0,0.0,0.0,0.0,0.0,0.0,0.0,0.0,0.0,0.0,0.0,0.0,0.0,0.0,0.0,0.0,0.0,0.0,0.0,0.0,0.0,0.0,0.0,0.0,0.0,0.0,0.0,0.0,0.0,0.0,0.0,0.0,0.0,0.0,0.0,0.0,0.0,0.0,0.0,0.0,0.0,0.0,0.0,0.0,0.0,0.0,0.0,0.0,0.0,0.0,0.0,0.0,0.0,0.0,0.0,0.0,0.0,0.0,0.0,0.0,0.0,0.0,0.0,0.0,0.0,0.0,0.0,0.0,0.0,0.0,0.0,0.0,0.0,0.0,0.0,0.0,0.0,0.0,0.0,0.0,0.0,0.0,0.0,0.0,0.0,0.0,0.0,0.0,0.0,0.0,0.0,0.0,0.0,0.0,0.0,0.0,0.0,0.0,0.0,0.0,0.0,0.0,0.0,0.0,0.0,0.0,0.0,0.0,0.0,0.0,0.0,0.0,0.0,0.0,0.0,0.0,0.0,0.0,0.0,0.0,0.0,0.0,0.0,0.0,0.0,0.0,0.0,0.0,0.0,0.0,0.0,0.0,0.0,0.0,0.0,0.0,0.0,0.0,0.0,0.0,0.0,0.0,0.0,0.0,0.0,0.0,0.0,0.0,0.0,0.0,0.0,0.0,0.0,0.0,0.0,0.0,0.0,0.0,0.0,0.0,0.0,0.0,0.0,0.0,0.0,0.0,0.0,0.0,0.0,0.0,0.0,0.0,0.0,0.0,0.0,0.0,0.0,0.0,0.0,0.0,0.0,0.0,0.0,0.0,0.0,0.0,0.0,0.0,0.0,0.0,0.0,0.0,0.0,5.0897,0.0,0.0,0.0,0.0,0.0,0.0,0.0,0.0,0.0,0.0,0.0,0.0,0.0,0.0,0.0,0.0,0.0,0.0,0.0,0.0,0.0,0.0,0.0,0.0,0.0,0.0,0.0,0.0,0.0,0.0,0.0,0.0,0.0,0.0,0.0,0.0,0.0,0.0,0.0,0.0,0.0,0.0,0.0,0.0,0.0,0.0,0.0,0.0,0.0,0.0,0.0,0.0,0.0,0.0,0.0,0.0,0.0,0.0,0.0,0.0,0.0,0.0,0.0,0.0,0.0,0.0,0.0,0.0,0.0,0.0,0.0,0.0,0.0,0.0,0.0,0.0,0.0,0.0,0.0,0.0,0.0,0.0,0.0,0.0,0.0,0.0,0.0,0.0,0.0,0.0,0.0,0.0,0.0,0.0,0.0,0.0,0.0,0.0,0.0,0.0,0.0,0.0,0.0,0.0,0.0,0.0,0.0,0.0,0.0,0.0,5.2268,5.2345,5.1376,5.0885,5.081,0.0,0.0,0.0,0.0,0.0,0.0,0.0,0.0,0.0,0.0,0.0,0.0,0.0,0.0,0.0,0.0,0.0,0.0,0.0,0.0,0.0,0.0,0.0,0.0,0.0,0.0,0.0,0.0,0.0,0.0,0.0,0.0,0.0,0.0,0.0,0.0,0.0,0.0,0.0,0.0,0.0,0.0,0.0,0.0,0.0,0.0,0.0,0.0,0.0,0.0,0.0,0.0,0.0,0.0,0.0,0.0,0.0,0.0,0.0,0.0,0.0,0.0,0.0,0.0,0.0,0.0,0.0,0.0,0.0,0.0,0.0,0.0,0.0,0.0,0.0,0.0,0.0,0.0,0.0,0.0,0.0,0.0,0.0,0.0,0.0,0.0,0.0,0.0,0.0,0.0,0.0,0.0,0.0,0.0,0.0,0.0,0.0,0.0,0.0,0.0,0.0,0.0,0.0,0.0,0.0,0.0,0.0,0.0,0.0,0.0,0.0,0.0,5.1323,5.09,5.0455,0.0,0.0,0.0,0.0,0.0,0.0,0.0,0.0,0.0,0.0,0.0,0.0,0.0,0.0,0.0,0.0,0.0,0.0,0.0,0.0,0.0,0.0,0.0,0.0,0.0,0.0,0.0,0.0,0.0,0.0,0.0,0.0,0.0,0.0,0.0,0.0,0.0,0.0,0.0,0.0,0.0,0.0,0.0,0.0,0.0,0.0,0.0,0.0,0.0,0.0,0.0,0.0,0.0,0.0,0.0,0.0,0.0,0.0,0.0,0.0,0.0,0.0,0.0,0.0,0.0,0.0,0.0,0.0,0.0,0.0,0.0,0.0,0.0,0.0,0.0,0.0,0.0,0.0,0.0,0.0,0.0,0.0,0.0,0.0,0.0,0.0,0.0,0.0,0.0,0.0,0.0,0.0,0.0,0.0,0.0,0.0,0.0,0.0,0.0,0.0,0.0,0.0,0.0,0.0,0.0,0.0,0.0,0.0,0.0,0.0,5.2675,5.285,5.2878,0.0,5.0501,0.0,0.0,0.0,0.0,0.0,0.0,0.0,0.0,0.0,0.0,0.0,0.0,0.0,0.0,0.0,0.0,0.0,0.0,0.0,0.0,0.0,0.0,0.0,0.0,0.0,0.0,0.0,0.0,0.0,0.0,0.0,0.0,0.0,0.0,0.0,0.0,0.0,0.0,0.0,0.0,0.0,0.0,0.0,0.0,0.0,0.0,0.0,0.0,0.0,0.0,0.0,0.0,0.0,0.0,0.0,0.0,0.0,0.0,0.0,0.0,0.0,0.0,0.0,0.0,0.0,0.0,0.0,0.0,0.0,0.0,0.0,0.0,0.0,0.0,0.0,0.0,0.0,0.0,0.0,0.0,0.0,0.0,0.0,0.0,0.0,0.0,0.0,0.0,0.0,0.0,0.0,0.0,0.0,0.0,0.0,0.0,0.0,0.0,0.0,0.0,0.0,0.0,0.0,0.0,0.0,0.0,0.0,0.0,0.0,0.0,5.2111,5.2286,5.2386,5.1828,0.0,0.0,0.0,0.0,0.0,0.0,0.0,0.0,0.0,0.0,0.0,0.0,0.0,0.0,0.0,0.0,0.0,0.0,0.0,0.0,0.0,0.0,0.0,0.0,0.0,0.0,0.0,0.0,0.0,0.0,0.0,0.0,0.0,0.0,0.0,0.0,0.0,0.0,0.0,0.0,0.0,0.0,0.0,0.0,0.0,0.0,0.0,0.0,0.0,0.0,0.0,0.0,0.0,0.0,0.0,0.0,0.0,0.0,0.0,0.0,0.0,0.0,0.0,0.0,0.0,0.0,0.0,0.0,0.0,0.0,0.0,0.0,0.0,0.0,0.0,0.0,0.0,0.0,0.0,0.0,0.0,0.0,0.0,0.0,0.0,0.0,0.0,0.0,0.0,0.0,0.0,0.0,0.0,0.0,0.0,0.0,0.0,0.0,0.0,0.0,0.0,0.0,0.0,0.0,0.0,0.0,0.0,0.0,0.0,0.0,5.2068,5.1982,5.2564,5.2253,5.1726,5.1029,0.0,0.0,0.0,0.0,0.0,0.0,0.0,0.0,0.0,0.0,0.0,0.0,0.0,0.0,0.0,0.0,0.0,0.0,0.0,0.0,0.0,0.0,0.0,0.0,0.0,0.0,0.0,0.0,0.0,0.0,0.0,0.0,0.0,0.0,0.0,0.0,0.0,0.0,0.0,0.0,0.0,0.0,0.0,0.0,0.0,0.0,0.0,0.0,0.0,0.0,0.0,0.0,0.0,0.0,0.0,0.0,0.0,0.0,0.0,0.0,0.0,0.0,0.0,0.0,0.0,0.0,0.0,0.0,0.0,0.0,0.0,0.0,0.0,0.0,0.0,0.0,0.0,0.0,0.0,0.0,0.0,0.0,0.0,0.0,0.0,0.0,0.0,0.0,0.0,0.0,0.0,0.0,0.0,0.0,0.0,0.0,0.0,0.0,0.0,0.0,0.0,0.0,0.0,0.0,0.0,0.0,0.0,0.0,5.3024,5.2371,5.2837,5.4579,5.3194,5.2294,0.0,0.0,0.0,0.0,0.0,0.0,0.0,0.0,0.0,0.0,0.0,0.0,0.0,0.0,0.0,0.0,0.0,0.0,0.0,0.0,0.0,0.0,0.0,0.0,0.0,0.0,0.0,0.0,0.0,0.0,0.0,0.0,0.0,0.0,0.0,0.0,0.0,0.0,0.0,0.0,0.0,0.0,0.0,0.0,0.0,0.0,0.0,0.0,0.0,0.0,0.0,0.0,0.0,0.0,0.0,0.0,0.0,0.0,0.0,0.0,0.0,0.0,0.0,0.0,0.0,0.0,0.0,0.0,0.0,0.0,0.0,0.0,0.0,0.0,0.0,0.0,0.0,0.0,0.0,0.0,0.0,0.0,0.0,0.0,0.0,0.0,0.0,0.0,0.0,0.0,0.0,0.0,0.0,0.0,0.0,0.0,0.0,0.0,0.0,0.0,0.0,0.0,0.0,0.0,0.0,0.0,0.0,0.0,0.0,5.3295,5.3616,5.4585,5.6198,5.4292,5.2882,0.0,0.0,0.0,0.0,0.0,0.0,0.0,0.0,0.0,0.0,0.0,0.0,0.0,0.0,0.0,0.0,0.0,0.0,0.0,0.0,0.0,0.0,0.0,0.0,0.0,0.0,0.0,0.0,0.0,0.0,0.0,0.0,0.0,0.0,0.0,0.0,0.0,0.0,0.0,0.0,0.0,0.0,0.0,0.0,0.0,0.0,0.0,0.0,0.0,0.0,0.0,0.0,0.0,0.0,0.0,0.0,0.0,0.0,0.0,0.0,0.0,0.0,0.0,0.0,0.0,0.0,0.0,0.0,0.0,0.0,0.0,0.0,0.0,0.0,0.0,0.0,0.0,0.0,0.0,0.0,0.0,0.0,0.0,0.0,0.0,0.0,0.0,0.0,0.0,0.0,0.0,0.0,0.0,0.0,0.0,0.0,0.0,0.0,0.0,0.0,0.0,0.0,0.0,0.0,0.0,0.0,0.0,0.0,0.0,5.3959,0.0,5.586,5.6846,5.5189,5.3546,0.0,0.0,0.0,0.0,0.0,0.0,0.0,0.0,0.0,0.0,0.0,0.0,0.0,0.0,0.0,0.0,0.0,0.0,0.0,0.0,0.0,0.0,0.0,0.0,0.0,0.0,0.0,0.0,0.0,0.0,0.0,0.0,0.0,0.0,0.0,0.0,0.0,0.0,0.0,0.0,0.0,0.0,0.0,0.0,0.0,0.0,0.0,0.0,0.0,0.0,0.0,0.0,0.0,0.0,0.0,0.0,0.0,0.0,0.0,0.0,0.0,0.0,0.0,0.0,0.0,0.0,0.0,0.0,0.0,0.0,0.0,0.0,0.0,0.0,0.0,0.0,0.0,0.0,0.0,0.0,0.0,0.0,0.0,0.0,0.0,0.0,0.0,0.0,0.0,0.0,0.0,0.0,0.0,0.0,0.0,0.0,0.0,0.0,0.0,0.0,0.0,0.0,0.0,0.0,0.0,0.0,0.0,0.0,5.4145,5.5151,5.6071,5.6605,5.6556,5.5809,5.4193,0.0,0.0,0.0,0.0,0.0,0.0,0.0,0.0,0.0,0.0,0.0,0.0,0.0,0.0,0.0,0.0,0.0,0.0,0.0,0.0,0.0,0.0,0.0,0.0,0.0,0.0,0.0,0.0,0.0,0.0,0.0,0.0,0.0,0.0,0.0,0.0,0.0,0.0,0.0,0.0,0.0,0.0,0.0,0.0,0.0,0.0,0.0,0.0,0.0,0.0,0.0,0.0,0.0,0.0,0.0,0.0,0.0,0.0,0.0,0.0,0.0,0.0,0.0,0.0,0.0,0.0,0.0,0.0,0.0,0.0,0.0,0.0,0.0,0.0,0.0,0.0,0.0,0.0,0.0,0.0,0.0,0.0,0.0,0.0,0.0,0.0,0.0,0.0,0.0,0.0,0.0,0.0,0.0,0.0,0.0,0.0,0.0,0.0,0.0,0.0,0.0,0.0,0.0,0.0,0.0,0.0,0.0,0.0,0.0,5.7701,5.8054,5.8501,5.9035,5.7248,5.5326,0.0,0.0,0.0,0.0,0.0,0.0,0.0,0.0,0.0,0.0,0.0,0.0,0.0,0.0,0.0,0.0,0.0,0.0,0.0,0.0,0.0,0.0,0.0,0.0,0.0,0.0,0.0,0.0,0.0,0.0,0.0,0.0,0.0,0.0,0.0,0.0,0.0,0.0,0.0,0.0,0.0,0.0,0.0,0.0,0.0,0.0,0.0,0.0,0.0,0.0,0.0,0.0,0.0,0.0,0.0,0.0,0.0,0.0,0.0,0.0,0.0,0.0,0.0,0.0,0.0,0.0,0.0,0.0,0.0,0.0,0.0,0.0,0.0,0.0,0.0,0.0,0.0,0.0,0.0,0.0,0.0,0.0,0.0,0.0,0.0,0.0,0.0,0.0,0.0,0.0,0.0,0.0,0.0,0.0,0.0,0.0,0.0,0.0,0.0,0.0,0.0,0.0,0.0,0.0,0.0,0.0,0.0,0.0,0.0,6.0341,6.0437,6.0733,6.1239,5.9425,5.7237,5.4677,0.0,0.0,0.0,0.0,0.0,0.0,0.0,0.0,0.0,0.0,0.0,0.0,0.0,0.0,0.0,0.0,0.0,0.0,0.0,0.0,0.0,0.0,0.0,0.0,0.0,0.0,0.0,0.0,0.0,0.0,0.0,0.0,0.0,0.0,0.0,0.0,0.0,0.0,0.0,0.0,0.0,0.0,0.0,0.0,0.0,0.0,0.0,0.0,0.0,0.0,0.0,0.0,0.0,0.0,0.0,0.0,0.0,0.0,0.0,0.0,0.0,0.0,0.0,0.0,0.0,0.0,0.0,0.0,0.0,0.0,0.0,0.0,0.0,0.0,0.0,0.0,0.0,0.0,0.0,0.0,0.0,0.0,0.0,0.0,0.0,0.0,0.0,0.0,0.0,0.0,0.0,0.0,0.0,0.0,0.0,0.0,0.0,0.0,0.0,0.0,0.0,0.0,0.0,0.0,0.0,0.0,0.0,0.0,6.3083,6.3197,6.3236,6.3121,6.2166,5.9759,0.0,0.0,0.0,0.0,0.0,0.0,0.0,0.0,0.0,0.0,0.0,0.0,0.0,0.0,0.0,0.0,0.0,0.0,0.0,0.0,0.0,0.0,0.0,0.0,0.0,0.0,0.0,0.0,0.0,0.0,0.0,0.0,0.0,0.0,0.0,0.0,0.0,0.0,0.0,0.0,0.0,0.0,0.0,0.0,0.0,0.0,0.0,0.0,0.0,0.0,0.0,0.0,0.0,0.0,0.0,0.0,0.0,0.0,0.0,0.0,0.0,0.0,0.0,0.0,0.0,0.0,0.0,0.0,0.0,0.0,0.0,0.0,0.0,0.0,0.0,0.0,0.0,0.0,0.0,0.0,0.0,0.0,0.0,0.0,0.0,0.0,0.0,0.0,0.0,0.0,0.0,0.0,0.0,0.0,0.0,0.0,0.0,0.0,0.0,0.0,0.0,0.0,0.0,0.0,0.0,0.0,0.0,0.0,0.0,6.5605,6.6904,6.698,6.5719,6.3656,6.1172,0.0,0.0,0.0,0.0,0.0,0.0,0.0,0.0,0.0,0.0,0.0,0.0,0.0,0.0,0.0,0.0,0.0,0.0,0.0,0.0,0.0,0.0,0.0,0.0,0.0,0.0,0.0,0.0,0.0,0.0,0.0,0.0,0.0,0.0,0.0,0.0,0.0,0.0,0.0,0.0,0.0,0.0,0.0,0.0,0.0,0.0,0.0,0.0,0.0,0.0,0.0,0.0,0.0,0.0,0.0,0.0,0.0,0.0,0.0,0.0,0.0,0.0,0.0,0.0,0.0,0.0,0.0,0.0,0.0,0.0,0.0,0.0,0.0,0.0,0.0,0.0,0.0,0.0,0.0,0.0,0.0,0.0,0.0,0.0,0.0,0.0,0.0,0.0,0.0,0.0,0.0,0.0,0.0,0.0,0.0,0.0,0.0,0.0,0.0,0.0,0.0,0.0,0.0,0.0,0.0,0.0,0.0,0.0,6.4,6.6674,6.8661,6.9234,6.8279,6.5834,6.3312,0.0,0.0,0.0,0.0,0.0,0.0,0.0,0.0,0.0,0.0,0.0,0.0,0.0,0.0,0.0,0.0,0.0,0.0,0.0,0.0,0.0,0.0,0.0,0.0,0.0,0.0,0.0,0.0,0.0,0.0,0.0,0.0,0.0,0.0,0.0,0.0,0.0,0.0,0.0,0.0,0.0,0.0,0.0,0.0,0.0,0.0,0.0,0.0,0.0,0.0,0.0,0.0,0.0,0.0,0.0,0.0,0.0,0.0,0.0,0.0,0.0,0.0,0.0,0.0,0.0,0.0,0.0,0.0,0.0,0.0,0.0,0.0,0.0,0.0,0.0,0.0,0.0,0.0,0.0,0.0,0.0,0.0,0.0,0.0,0.0,0.0,0.0,0.0,0.0,0.0,0.0,0.0,0.0,0.0,0.0,0.0,0.0,0.0,0.0,0.0,0.0,0.0,0.0,0.0,0.0,0.0,0.0,0.0,6.5184,6.6942,6.9196,7.0419,7.0342,6.8012,6.5566,0.0,0.0,0.0,0.0,0.0,0.0,0.0,0.0,0.0,0.0,0.0,0.0,0.0,0.0,0.0,0.0,0.0,0.0,0.0,0.0,0.0,0.0,0.0,0.0,0.0,0.0,0.0,0.0,0.0,0.0,0.0,0.0,0.0,0.0,0.0,0.0,0.0,0.0,0.0,0.0,0.0,0.0,0.0,0.0,0.0,0.0,0.0,0.0,0.0,0.0,0.0,0.0,0.0,0.0,0.0,0.0,0.0,0.0,0.0,0.0,0.0,0.0,0.0,0.0,0.0,0.0,0.0,0.0,0.0,0.0,0.0,0.0,0.0,0.0,0.0,0.0,0.0,0.0,0.0,0.0,0.0,0.0,0.0,0.0,0.0,0.0,0.0,0.0,0.0,0.0,0.0,0.0,0.0,0.0,0.0,0.0,0.0,0.0,0.0,0.0,0.0,0.0,0.0,0.0,0.0,0.0,0.0,0.0,6.6292,6.8623,6.9807,7.0419,7.0381,6.8012,6.5834,0.0,0.0,0.0,0.0,0.0,0.0,0.0,0.0,0.0,0.0,0.0,0.0,0.0,0.0,0.0,0.0,0.0,0.0,0.0,0.0,0.0,0.0,0.0,0.0,0.0,0.0,0.0,0.0,0.0,0.0,0.0,0.0,0.0,0.0,0.0,0.0,0.0,0.0,0.0,0.0,0.0,0.0,0.0,0.0,0.0,0.0,0.0,0.0,5.7042,0.0,0.0,0.0,0.0,0.0,0.0,0.0,0.0,0.0,0.0,0.0,0.0,0.0,0.0,0.0,0.0,0.0,0.0,0.0,0.0,0.0,0.0,0.0,0.0,0.0,0.0,0.0,0.0,0.0,0.0,0.0,0.0,0.0,0.0,0.0,0.0,0.0,0.0,0.0,0.0,0.0,0.0,0.0,0.0,0.0,0.0,0.0,0.0,0.0,0.0,0.0,0.0,0.0,0.0,0.0,0.0,0.0,0.0,0.0,6.7591,6.9731,7.0992,7.1642,7.1565,6.996,6.7706,0.0,0.0,0.0,0.0,0.0,0.0,0.0,0.0,0.0,0.0,0.0,0.0,0.0,0.0,0.0,0.0,0.0,0.0,0.0,0.0,0.0,0.0,0.0,0.0,0.0,0.0,0.0,0.0,0.0,0.0,0.0,0.0,0.0,0.0,0.0,0.0,0.0,0.0,0.0,0.0,0.0,0.0,0.0,0.0,0.0,0.0,0.0,0.0,0.0,0.0,0.0,0.0,0.0,0.0,0.0,0.0,0.0,0.0,0.0,0.0,0.0,0.0,0.0,0.0,0.0,0.0,0.0,0.0,0.0,0.0,0.0,0.0,0.0,0.0,0.0,0.0,0.0,0.0,0.0,0.0,0.0,0.0,0.0,0.0,0.0,0.0,0.0,0.0,0.0,0.0,0.0,0.0,0.0,0.0,0.0,0.0,0.0,0.0,0.0,0.0,0.0,0.0,0.0,0.0,0.0,0.0,0.0,6.6445,6.8967,7.0763,7.2253,7.2979,7.2979,7.2138,6.9769,6.5757,0.0,0.0,0.0,0.0,0.0,0.0,0.0,0.0,0.0,0.0,0.0,0.0,0.0,0.0,0.0,0.0,0.0,0.0,0.0,0.0,0.0,0.0,0.0,0.0,0.0,0.0,0.0,0.0,0.0,0.0,0.0,0.0,0.0,0.0,0.0,0.0,0.0,0.0,5.4803,5.5647,0.0,0.0,0.0,0.0,0.0,0.0,0.0,0.0,5.9465,0.0,0.0,0.0,0.0,0.0,0.0,0.0,0.0,0.0,0.0,0.0,0.0,0.0,0.0,0.0,0.0,0.0,0.0,0.0,0.0,0.0,0.0,0.0,0.0,0.0,0.0,0.0,0.0,0.0,0.0,0.0,0.0,0.0,0.0,0.0,0.0,0.0,0.0,0.0,0.0,0.0,0.0,0.0,0.0,0.0,0.0,0.0,0.0,0.0,0.0,0.0,0.0,0.0,0.0,0.0,0.0,6.4955,6.763,7.0151,7.2482,7.2864,7.2979,7.2979,7.2138,7.0037,6.6636,0.0,0.0,0.0,0.0,0.0,0.0,0.0,0.0,0.0,0.0,0.0,0.0,0.0,0.0,0.0,0.0,0.0,0.0,0.0,0.0,0.0,0.0,0.0,0.0,0.0,0.0,0.0,0.0,0.0,0.0,0.0,0.0,0.0,0.0,0.0,0.0,0.0,0.0,0.0,5.8107,5.8694,0.0,0.0,0.0,0.0,0.0,0.0,0.0,0.0,6.0713,0.0,0.0,0.0,0.0,0.0,0.0,0.0,0.0,0.0,0.0,0.0,0.0,0.0,0.0,0.0,0.0,0.0,0.0,0.0,0.0,0.0,0.0,0.0,0.0,0.0,0.0,0.0,0.0,0.0,0.0,0.0,0.0,0.0,0.0,0.0,0.0,0.0,0.0,0.0,0.0,0.0,0.0,0.0,0.0,0.0,0.0,0.0,0.0,0.0,0.0,0.0,0.0,0.0,0.0,0.0,6.6063,6.9425,7.1985,7.359,7.4049,7.4278,7.4278,7.3055,7.0801,0.0,0.0,0.0,0.0,0.0,0.0,0.0,0.0,0.0,0.0,0.0,0.0,0.0,0.0,0.0,0.0,0.0,0.0,0.0,0.0,0.0,0.0,0.0,0.0,0.0,0.0,0.0,0.0,0.0,0.0,0.0,0.0,0.0,0.0,0.0,0.0,0.0,0.0,0.0,0.0,5.9318,6.0309,6.1557,0.0,0.0,0.0,0.0,0.0,0.0,6.152,6.13,0.0,0.0,0.0,0.0,0.0,0.0,0.0,0.0,0.0,0.0,0.0,0.0,0.0,0.0,0.0,0.0,0.0,0.0,0.0,0.0,0.0,0.0,0.0,0.0,0.0,0.0,0.0,0.0,0.0,0.0,0.0,0.0,0.0,0.0,0.0,0.0,0.0,0.0,0.0,0.0,0.0,0.0,0.0,0.0,0.0,0.0,0.0,0.0,0.0,0.0,0.0,0.0,0.0,0.0,0.0,6.7209,7.103,7.3476,7.4431,7.5157,7.5501,7.5462,7.3705,7.1221,0.0,0.0,0.0,0.0,0.0,0.0,0.0,0.0,0.0,0.0,0.0,0.0,0.0,0.0,0.0,0.0,0.0,0.0,0.0,0.0,0.0,0.0,0.0,0.0,0.0,0.0,0.0,0.0,0.0,0.0,0.0,0.0,0.0,0.0,0.0,0.0,0.0,0.0,0.0,0.0,0.0,6.1704,6.398,6.2658,0.0,0.0,0.0,0.0,6.3466,6.3135,0.0,0.0,0.0,0.0,0.0,0.0,0.0,0.0,0.0,0.0,0.0,0.0,0.0,0.0,0.0,0.0,0.0,0.0,0.0,0.0,0.0,0.0,0.0,0.0,0.0,0.0,0.0,0.0,0.0,0.0,0.0,0.0,0.0,0.0,0.0,0.0,0.0,0.0,0.0,0.0,0.0,0.0,0.0,0.0,0.0,0.0,0.0,0.0,0.0,0.0,0.0,0.0,0.0,0.0,0.0,0.0,6.8814,7.1603,7.3781,7.5271,7.5424,7.5501,7.5462,7.3132,7.061,0.0,0.0,0.0,0.0,0.0,0.0,0.0,0.0,0.0,0.0,0.0,0.0,0.0,0.0,0.0,0.0,0.0,0.0,0.0,0.0,0.0,0.0,0.0,0.0,0.0,0.0,0.0,0.0,0.0,0.0,0.0,0.0,0.0,0.0,0.0,0.0,0.0,0.0,0.0,0.0,0.0,6.3172,6.4934,6.4934,6.453,0.0,0.0,6.5962,6.6072,6.6586,0.0,0.0,0.0,0.0,0.0,0.0,0.0,0.0,0.0,0.0,0.0,0.0,0.0,0.0,0.0,0.0,0.0,0.0,0.0,0.0,0.0,0.0,0.0,0.0,0.0,0.0,0.0,0.0,0.0,0.0,0.0,0.0,0.0,0.0,0.0,0.0,0.0,0.0,0.0,0.0,0.0,0.0,0.0,0.0,0.0,0.0,0.0,0.0,0.0,0.0,0.0,0.0,0.0,0.0,0.0,6.591,6.9196,7.2635,7.4775,7.5462,7.5501,7.5501,7.5501,7.3017,7.0724,0.0,0.0,0.0,0.0,0.0,0.0,0.0,0.0,0.0,0.0,0.0,0.0,0.0,0.0,0.0,0.0,0.0,0.0,0.0,0.0,0.0,0.0,0.0,0.0,0.0,0.0,0.0,0.0,0.0,0.0,0.0,0.0,0.0,0.0,0.0,0.0,0.0,0.0,0.0,0.0,0.0,0.0,6.5742,6.6769,0.0,0.0,0.0,6.7724,6.7247,0.0,0.0,0.0,0.0,0.0,0.0,0.0,0.0,0.0,0.0,0.0,0.0,0.0,0.0,0.0,0.0,0.0,0.0,0.0,0.0,0.0,0.0,0.0,0.0,0.0,0.0,0.0,0.0,0.0,0.0,0.0,0.0,0.0,0.0,0.0,0.0,0.0,0.0,0.0,0.0,0.0,0.0,0.0,0.0,0.0,0.0,0.0,0.0,0.0,0.0,0.0,0.0,0.0,0.0,0.0,0.0,0.0,6.9807,7.3781,7.5883,7.6112,7.6112,7.6112,7.6074,7.3858,0.0,0.0,0.0,0.0,0.0,0.0,0.0,0.0,0.0,0.0,0.0,0.0,0.0,0.0,0.0,0.0,0.0,0.0,0.0,0.0,0.0,0.0,0.0,0.0,0.0,0.0,0.0,5.1096,0.0,0.0,0.0,0.0,0.0,0.0,0.0,0.0,0.0,0.0,0.0,0.0,0.0,0.0,6.5264,6.688,6.8495,6.9522,0.0,0.0,6.9302,6.8678,6.8752,6.7944,0.0,0.0,0.0,0.0,0.0,0.0,0.0,0.0,0.0,0.0,0.0,0.0,0.0,0.0,0.0,0.0,0.0,0.0,0.0,0.0,0.0,0.0,0.0,0.0,0.0,0.0,0.0,0.0,0.0,0.0,0.0,0.0,0.0,0.0,0.0,0.0,0.0,0.0,0.0,0.0,0.0,0.0,0.0,0.0,0.0,0.0,0.0,0.0,0.0,0.0,0.0,0.0,0.0,0.0,0.0,7.1489,7.4889,7.6991,7.7793,7.7831,7.7831,7.7793,7.615,7.3667,0.0,0.0,0.0,0.0,0.0,0.0,0.0,0.0,0.0,0.0,0.0,0.0,0.0,0.0,0.0,0.0,0.0,0.0,0.0,0.0,0.0,0.0,0.0,0.0,0.0,0.0,0.0,0.0,0.0,0.0,0.0,0.0,0.0,0.0,0.0,0.0,0.0,0.0,0.0,0.0,0.0,6.6916,6.8531,7.011,7.1174,0.0,0.0,7.1138,7.1064,7.1688,7.0844,6.6953,0.0,0.0,0.0,0.0,0.0,0.0,0.0,0.0,0.0,0.0,0.0,0.0,0.0,0.0,0.0,0.0,0.0,0.0,0.0,0.0,0.0,0.0,0.0,0.0,0.0,0.0,0.0,0.0,0.0,0.0,0.0,0.0,0.0,0.0,0.0,0.0,0.0,0.0,0.0,0.0,0.0,0.0,0.0,0.0,0.0,0.0,0.0,0.0,0.0,0.0,0.0,0.0,0.0,6.8508,7.168,7.5501,7.7678,7.7984,7.8022,7.8022,7.8022,7.6838,7.4927,0.0,0.0,0.0,0.0,0.0,0.0,0.0,0.0,0.0,0.0,0.0,0.0,0.0,0.0,0.0,0.0,0.0,0.0,0.0,0.0,0.0,0.0,0.0,0.0,0.0,0.0,0.0,0.0,6.0614,6.141,6.0493,0.0,0.0,0.0,0.0,0.0,0.0,0.0,0.0,0.0,0.0,6.7834,6.9412,7.1431,0.0,0.0,7.3193,7.334,7.2863,7.3046,7.2018,6.8568,6.7981,0.0,0.0,0.0,0.0,0.0,0.0,0.0,0.0,0.0,0.0,0.0,0.0,0.0,0.0,0.0,0.0,0.0,0.0,0.0,0.0,0.0,0.0,0.0,0.0,0.0,0.0,0.0,0.0,0.0,0.0,0.0,0.0,0.0,0.0,0.0,0.0,0.0,0.0,0.0,0.0,0.0,0.0,0.0,0.0,0.0,0.0,0.0,0.0,0.0,0.0,0.0,0.0,6.9387,7.2406,7.6379,7.8481,7.8748,7.8748,7.8748,7.871,7.8175,7.6647,0.0,0.0,0.0,0.0,0.0,0.0,0.0,0.0,0.0,0.0,0.0,0.0,0.0,0.0,0.0,0.0,0.0,0.0,0.0,0.0,0.0,0.0,0.0,0.0,0.0,0.0,0.0,0.0,6.3101,6.3259,6.1006,0.0,0.0,0.0,0.0,0.0,0.0,0.0,0.0,0.0,0.0,6.9339,7.0954,7.2826,7.4074,7.4037,7.4551,7.4735,7.4147,7.4037,7.312,7.0403,0.0,0.0,0.0,0.0,0.0,0.0,0.0,0.0,0.0,0.0,0.0,0.0,0.0,0.0,0.0,0.0,0.0,0.0,0.0,0.0,0.0,0.0,0.0,0.0,0.0,0.0,0.0,0.0,0.0,0.0,5.4065,0.0,0.0,0.0,0.0,0.0,0.0,0.0,0.0,0.0,0.0,0.0,0.0,0.0,0.0,0.0,0.0,0.0,0.0,0.0,0.0,0.0,0.0,6.9999,7.4087,7.7526,7.9627,8.0391,8.043,8.0391,8.0391,8.0391,7.9207,7.6609,0.0,0.0,0.0,0.0,0.0,0.0,0.0,0.0,0.0,0.0,0.0,0.0,0.0,0.0,0.0,0.0,0.0,0.0,0.0,0.0,0.0,0.0,0.0,0.0,0.0,0.0,6.113,6.2925,6.3505,0.0,0.0,0.0,0.0,0.0,0.0,0.0,0.0,0.0,0.0,6.9706,7.1798,7.3377,7.4331,7.4882,7.4882,7.4918,7.4918,7.4918,7.4882,7.4331,0.0,0.0,0.0,0.0,0.0,0.0,0.0,0.0,0.0,0.0,0.0,0.0,0.0,0.0,0.0,0.0,0.0,0.0,0.0,0.0,0.0,0.0,0.0,0.0,0.0,0.0,0.0,6.0714,5.9873,0.0,0.0,0.0,0.0,0.0,0.0,0.0,0.0,0.0,0.0,0.0,6.7897,6.8203,0.0,0.0,0.0,0.0,0.0,0.0,0.0,0.0,0.0,0.0,0.0,0.0,7.168,7.4278,7.8099,8.02,8.0506,8.0506,8.0506,8.0506,8.0506,7.9283,7.6761,0.0,0.0,0.0,0.0,0.0,0.0,0.0,0.0,0.0,0.0,0.0,0.0,0.0,0.0,0.0,0.0,0.0,0.0,0.0,0.0,0.0,0.0,0.0,0.0,0.0,6.319,0.0,0.0,0.0,0.0,0.0,0.0,0.0,0.0,0.0,0.0,0.0,6.8458,7.0624,7.2055,7.3266,7.4368,7.5175,7.5689,0.0,0.0,0.0,0.0,0.0,0.0,0.0,0.0,0.0,0.0,0.0,0.0,0.0,0.0,6.9302,6.688,6.6476,6.6219,6.5411,0.0,0.0,0.0,0.0,0.0,0.0,0.0,0.0,0.0,0.0,0.0,0.0,0.0,0.0,6.4153,0.0,6.2815,0.0,0.0,0.0,0.0,0.0,0.0,0.0,0.0,6.9005,7.061,7.1412,7.2215,7.2902,0.0,7.2597,7.0495,0.0,0.0,0.0,0.0,0.0,0.0,0.0,0.0,7.3093,7.5119,7.8634,8.0506,8.0506,8.0506,8.0506,8.0506,8.0506,7.9704,7.8061,7.5921,7.3819,0.0,0.0,0.0,0.0,0.0,0.0,0.0,0.0,0.0,0.0,0.0,0.0,0.0,0.0,0.0,0.0,0.0,0.0,0.0,0.0,0.0,0.0,0.0,6.5202,0.0,0.0,0.0,0.0,0.0,0.0,0.0,0.0,0.0,6.7867,6.9963,7.2059,7.3676,7.4559,7.5478,7.664,0.0,0.0,0.0,0.0,0.0,0.0,0.0,7.664,7.5353,7.5455,7.5395,7.4368,7.3927,7.4184,7.5506,0.0,0.0,7.1101,7.0587,7.033,6.9522,6.9376,6.9522,7.0073,7.0146,7.0403,0.0,0.0,0.0,0.0,0.0,0.0,0.0,0.0,6.805,6.7591,0.0,6.6789,0.0,0.0,0.0,0.0,0.0,6.8088,0.0,0.0,7.466,7.6265,7.5577,7.6303,7.6723,7.6723,7.5959,7.5577,7.531,7.1527,0.0,0.0,0.0,0.0,0.0,0.0,7.4278,7.6685,7.9207,8.0506,8.0506,8.0506,8.0506,8.0506,8.0506,8.0468,8.043,7.8901,7.764,7.6723,7.2788,0.0,0.0,0.0,0.0,0.0,0.0,0.0,0.0,0.0,0.0,0.0,0.0,0.0,0.0,0.0,0.0,0.0,0.0,0.0,0.0,6.6749,0.0,0.0,0.0,0.0,0.0,0.0,0.0,0.0,0.0,0.0,7.0786,7.2669,7.4769,7.6317,0.0,0.0,0.0,0.0,7.9117,8.0036,8.0363,8.0052,7.9294,7.9068,7.8655,7.7857,0.0,0.0,7.7268,7.6644,7.635,7.7157,7.7194,7.657,7.4221,7.3744,7.3523,7.2826,7.2642,7.2642,7.2679,7.2753,7.2936,7.1718,0.0,0.0,0.0,0.0,7.0266,7.0763,7.1527,7.1527,7.1068,7.0228,6.9616,0.0,0.0,0.0,0.0,0.0,0.0,7.2673,7.4087,7.5883,7.6914,7.7296,7.7526,7.7946,7.8519,7.8328,7.8519,7.8978,7.787,7.531,7.1603,0.0,0.0,0.0,0.0,7.573,7.7602,7.9513,8.0506,8.0506,8.0506,8.0506,8.0506,8.0506,8.0506,8.0506,8.0047,7.9092,7.7678,7.5883,0.0,0.0,0.0,0.0,0.0,0.0,0.0,0.0,0.0,0.0,0.0,0.0,0.0,0.0,0.0,0.0,0.0,0.0,0.0,6.9621,7.1066,7.0915,0.0,0.0,0.0,0.0,0.0,0.0,0.0,0.0,0.0,7.5733,7.701,7.8293,0.0,0.0,7.9962,8.0502,7.9638,7.9157,7.9837,7.9298,0.0,7.8985,7.8962,7.873,7.8109,7.7629,7.7341,7.7341,7.7121,7.7047,7.7304,7.7341,7.7047,7.6497,7.6276,7.6166,7.5983,7.5946,7.5946,7.5946,7.5946,7.5983,7.5119,7.4049,7.2215,7.1909,7.2673,7.2673,7.3361,7.4469,7.4469,7.4163,7.3667,7.3514,7.2788,7.1642,7.1145,0.0,0.0,0.0,7.5195,7.6494,7.7335,7.8022,7.8519,7.8863,7.9245,7.9742,7.9742,8.0009,8.0506,8.0506,7.8825,7.5577,0.0,0.0,7.4507,7.5806,7.7144,7.8519,7.9818,8.0506,8.0506,8.0506,8.0506,8.0506,8.0506,8.0506,8.0506,8.0506,8.0009,7.9016,7.7831,7.5921,0.0,0.0,0.0,0.0,0.0,0.0,0.0,0.0,0.0,0.0,0.0,6.4611,6.4458,0.0,0.0,0.0,7.0004,7.1693,7.376,7.4219,0.0,0.0,0.0,0.0,0.0,0.0,0.0,7.4476,7.6701,7.8398,7.8992,7.9729,8.0249,8.0539,8.0576,8.0688,8.1078,0.0,7.9796,8.0503,8.0076,7.9678,7.9688,7.9612,7.9254,7.8238,7.7688,7.7304,7.7341,7.7341,7.7341,7.7341,7.7341,7.7341,7.7341,7.7341,7.7341,7.7341,7.7341,7.7341,7.7341,7.7341,7.7341,7.8022,7.7755,7.4698,7.3819,7.4507,7.4507,7.5386,7.6761,7.68,7.68,7.6876,7.764,7.7144,7.5692,7.5768,0.0,7.6914,7.6953,7.7411,7.8213,7.9016,7.9398,7.9436,8.0162,8.0506,8.0506,8.0506,8.0506,8.0506,8.0506,8.0162,7.9474,7.871,7.7831,7.6991,7.7755,7.8634,7.9513,8.0277,8.0697,8.0697,8.0697,8.0697,8.0697,8.0697,8.0697,8.0697,8.0621,8.0621,8.0544,7.9054,7.7793,7.6723,0.0,0.0,0.0,0.0,0.0,0.0,0.0,0.0,0.0,0.0,0.0,0.0,0.0,0.0,0.0,7.4354,0.0,7.7946,7.654,0.0,0.0,0.0,7.3913,7.3913,7.5355,7.6645,7.7324,0.0,0.0,8.0851,8.1116,8.0984,8.0472,8.0489,8.0828,8.1716,8.1091,8.0865,8.1726,8.1972,8.1801,8.109,8.0847,8.0252,7.8954,7.8011,7.7805,7.7805,7.7805,7.7707,7.7805,7.761,7.7549,7.7476,7.7512,7.7414,7.7341,7.7341,7.7341,7.7341,7.7341,7.7341,7.8022,7.7908,7.7144,7.6914,7.7067,7.7105,7.7335,7.7678,7.7678,7.7717,7.7717,7.7908,7.7793,7.7449,7.8099,7.8481,7.871,7.9321,7.9704,7.9895,8.0124,8.02,8.0238,8.043,8.0506,8.0506,8.0506,8.0506,8.0506,8.0506,8.0735,8.1156,8.1003,8.0162,7.8748,7.9474,8.0353,8.1194,8.1996,8.2416,8.2416,8.2378,8.2378,8.2416,8.2416,8.2416,8.2378,8.1805,8.1499,8.1461,8.0468,7.9245,7.7755,7.4736,0.0,0.0,0.0,0.0,0.0,0.0,0.0,0.0,0.0,6.9043,6.8623,0.0,7.4163,0.0,7.7449,7.9245,7.9016,7.8597,0.0,0.0,7.6922,7.677,7.6769,7.7683,7.8407,7.8519,7.9891,8.0806,8.0616,8.1111,8.1225,8.0616,8.1274,8.196,8.2112,8.1821,8.1745,8.2336,8.233,8.2222,8.2444,8.2082,8.1695,8.133,8.0768,8.0443,8.0443,8.0443,8.0443,8.0389,8.0098,7.9591,7.8977,7.8588,7.8038,7.7488,7.7341,7.7341,7.7341,7.7341,7.7341,7.913,7.9092,7.9092,7.913,7.9054,7.8328,7.8213,7.8557,7.8596,7.8787,7.913,7.913,7.913,7.913,7.9627,7.9818,7.9856,8.0277,8.0506,8.0506,8.0506,8.0506,8.0506,8.0506,8.0506,8.0506,8.0888,8.1079,8.1117,8.1423,8.1843,8.234,8.2722,8.2455,8.1538,8.1576,8.2034,8.2913,8.3715,8.4098,8.4098,8.4098,8.3945,8.3601,8.3563,8.3219,8.2493,8.2034,8.1614,8.1232,8.0773,7.9933,7.8596,7.6188,7.3628,0.0,0.0,0.0,0.0,0.0,0.0,0.0,0.0,0.0,0.0,0.0,7.7182,7.7182,7.9207,8.0315,7.9856,7.9856,7.9627,7.9056,7.898,7.898,7.8943,7.94,7.9667,7.9629,8.0507,8.0965,8.0545,8.1156,8.1538,8.1156,8.1954,8.2475,8.2209,8.2195,8.2618,8.3288,8.3244,8.3358,8.3982,8.3654,8.3354,8.3309,8.2896,8.2547,8.2547,8.2547,8.2434,8.2045,8.1547,8.0934,8.0097,7.9519,7.8956,7.8589,7.8405,7.8148,7.7488,7.7341,7.7378,8.0773,8.0659,8.0659,8.0621,8.0391,7.8939,7.8748,7.9436,7.9436,7.9856,8.0506,8.0506,8.0506,8.0506,8.0506,8.0506,8.0506,8.0506,8.0506,8.0506,8.0506,8.0544,8.0659,8.0659,8.0697,8.085,8.1576,8.1996,8.2149,8.2837,8.3257,8.3486,8.4212,8.4671,8.4747,8.4021,8.4021,8.4785,8.5473,8.5817,8.5855,8.5855,8.5511,8.4824,8.4671,8.3945,8.2531,8.2225,8.1767,8.1041,8.0773,8.0353,7.9589,7.722,7.5119,0.0,7.1298,0.0,0.0,0.0,0.0,0.0,0.0,0.0,0.0,7.7908,7.936,7.9436,8.0086,8.0506,8.0506,8.0506,8.0506,8.0506,8.0506,8.0506,8.0506,8.0506,8.0544,8.0659,8.0659,8.0697,8.0888,8.1499,8.1958,8.2187,8.2913,8.3295,8.2722,8.3065,8.3715,8.448,8.4709,8.5166,8.5662,8.549,8.5272,8.5227,8.4874,8.4532,8.4582,8.4582,8.4306,8.3615,8.3142,8.2408,8.1457,8.0904,8.0393,8.0283,8.0184,7.958,7.8185,7.7781,7.7892,8.2149,8.1538,8.1538,8.1156,8.0468,8.0162,8.0124,8.0277,8.0277,8.0353,8.0506,8.0506,8.0506,8.0506,8.0506,8.0506,8.0506,8.0506,8.0506,8.0506,8.0506,8.0888,8.1538,8.1576,8.1881,8.2493,8.2684,8.3104,8.383,8.3983,8.4747,8.6046,8.6237,8.6696,8.7307,0.0,0.0,0.0,8.7536,8.7613,8.7613,8.7613,8.7536,8.7345,8.6696,0.0,8.5855,8.4556,8.3754,8.3524,8.2302,0.0,0.0,0.0,0.0,0.0,0.0,0.0,0.0,0.0,0.0,0.0,7.7526,7.7793,7.6647,7.8213,7.9551,8.02,8.0391,8.0506,8.0506,8.0506,8.0506,8.0506,8.0506,8.0506,8.0506,8.0506,8.0735,8.1461,8.1538,8.1805,8.2416,8.2684,8.3066,8.3754,8.4518,8.5244,8.5779,8.5358,8.5358,8.6199,8.6925,8.7384,8.7575,8.7569,8.7561,8.7451,8.7409,8.7323,8.7318,8.7362,8.7323,8.7057,8.6586,8.5901,8.507,8.4196,8.3284,8.2616,8.2117,8.1232,7.9653,7.9323,7.936,8.276,0.0,8.2378,8.2149,0.0,8.1729,8.1729,8.1652,8.085,8.0506,8.0506,8.0506,8.0506,8.0506,8.0506,8.0735,8.1117,8.1156,8.1347,8.1729,8.1729,8.1958,8.2416,8.2837,8.3257,8.3639,8.448,8.5091,8.555,8.597,8.6619,8.746,8.8262,8.8912,8.9332,9.0173,9.0173,8.9332,8.9714,9.0135,9.0555,9.0555,9.0364,8.9905,8.9141,0.0,0.0,0.0,0.0,0.0,0.0,0.0,0.0,8.1156,0.0,7.8672,7.8213,7.7793,7.7373,7.8099,7.8596,7.8596,7.936,7.9513,7.8634,7.936,8.0047,8.0468,8.0506,8.0506,8.0506,8.0506,8.0506,8.0506,8.0888,8.1156,8.1156,8.1499,8.1881,8.234,8.276,8.3181,8.3601,8.4441,8.5015,8.5511,8.6275,8.7231,8.8262,8.7575,8.7231,8.8453,8.9409,9.0058,9.0478,9.0555,9.0555,9.0593,9.0555,9.0593,9.0555,9.0555,9.044,9.0016,8.9444,8.8815,8.7971,8.7141,8.6366,8.5641,8.4904,8.4083,8.2941,8.1819,8.1122,8.3792,8.3677,8.3639,8.3563,8.3448,8.3448,8.3448,8.3333,0.0,0.0,0.0,8.0926,8.0926,8.0926,8.0964,8.1347,8.1996,8.2034,8.2455,8.3219,8.3219,8.3372,8.3677,8.4403,8.4824,8.5015,8.6352,8.7192,8.7498,8.8186,8.8683,8.9103,9.0364,9.1052,9.1128,9.2427,9.2504,9.1357,9.1778,9.2389,9.3077,9.3115,9.2771,9.2045,9.1243,9.0173,8.8797,8.7918,8.7078,8.6237,8.6046,8.5244,8.3792,8.3524,8.2837,8.1499,8.127,8.1156,8.1156,8.1003,8.0926,8.0926,8.0926,8.0812,8.0544,8.0506,8.0544,8.0697,8.0735,8.0812,8.0926,8.0926,8.0926,8.0964,8.1576,8.2073,8.2264,8.2798,8.3295,8.3677,8.4327,8.4785,8.5053,8.6161,8.7192,8.7498,8.811,8.9141,9.044,8.9905,8.9561,9.0746,9.1434,9.2198,9.2809,9.2924,9.3115,9.2847,9.2924,9.3115,9.3115,9.3115,9.2809,9.2007,9.1659,9.1093,9.0428,8.9856,8.9365,8.8794,8.8093,8.7304,8.659,8.5066,8.3889,8.6925,8.6275,8.6275,8.5855,8.5167,8.5129,8.5129,8.5015,8.3372,8.2646,8.2646,8.2646,8.2646,8.2646,8.2646,8.2722,8.2837,8.2837,8.3295,8.4098,8.4136,8.49,8.6237,8.6428,8.6849,8.7536,8.7842,8.8644,8.9944,9.0211,9.0975,9.2236,9.2656,9.2733,9.2771,9.3,9.3344,9.3841,9.3268,9.3,9.3115,9.3115,9.3038,9.2886,9.2083,9.1548,9.1281,9.0478,8.9676,8.8797,8.811,8.7269,8.6314,8.5588,8.5053,8.4785,8.4136,8.3754,8.3754,8.3066,8.2646,8.2646,8.2646,8.2034,8.0659,8.0506,8.0812,8.1499,8.1652,8.192,8.2531,8.2646,8.2646,8.2646,8.276,8.3104,8.383,8.4098,8.4709,8.6008,8.639,8.6772,8.7422,8.7842,8.8644,8.9714,9.0211,9.0861,9.2198,9.258,9.2504,9.2695,9.2847,9.2962,9.3268,9.3153,9.3268,9.3115,9.3229,9.3306,9.3306,9.3306,9.3229,9.3,9.2913,9.2754,9.2564,9.2119,9.1736,9.1491,9.0942,9.0317,8.9644,8.9044,8.8183,8.788,8.7498,8.7498,8.7269,8.6925,8.6925,8.6925,8.6849,8.6123,8.5206,8.4365,8.4365,8.4365,8.4365,8.4365,8.4632,8.5053,8.5053,8.5511,8.6314,8.6352,8.6772,8.7536,8.8453,8.9065,8.9485,9.0402,9.1204,9.193,9.1969,9.2351,9.3115,9.3573,9.4032,9.4414,9.4452,9.4643,9.5025,9.4223,9.3994,9.4452,9.4452,9.4452,9.4452,9.365,9.3191,9.3191,9.2427,9.1778,9.1357,9.1013,9.0211,8.895,8.8492,8.7842,8.7001,8.6543,8.6161,8.5664,8.4824,8.4365,8.4365,8.4365,8.4059,8.3295,8.2378,8.2034,8.2416,8.2875,8.3295,8.3677,8.4098,8.4365,8.4365,8.4747,8.5206,8.5626,8.6123,8.6658,8.746,8.8339,8.9027,8.9409,9.0249,9.1013,9.1892,9.2312,9.2962,9.3726,9.4185,9.4261,9.3917,9.3803,9.4032,9.4338,9.4452,9.4452,9.4452,9.4452,9.4452,9.4452,9.4452,9.4414,9.4452,9.4452,9.4452,9.4414,9.4281,9.3926,9.3504,9.2971,9.226,9.1398,9.0794,8.9836,8.9218,8.9218,8.9218,8.9218,8.9218,8.9218,8.9218,8.9218,8.9218,8.8453,8.7231,8.6467,8.6084,8.6084,8.6084,8.6467,8.704,8.7116,8.7651,8.8606,8.8644,8.8874,8.9332,9.0593,9.1166,9.1319,9.2504,9.3191,9.3382,9.3382,9.3497,9.3726,9.4338,9.4987,9.5598,9.5598,9.5598,9.556,9.4987,9.4987,9.556,9.5598,9.5598,9.556,9.4987,9.4681,9.4643,9.4032,9.3573,9.3421,9.3421,9.2733,9.1319,9.1166,9.0593,8.937,8.9027,8.8453,8.746,8.6581,8.6084,8.6084,8.6084,8.6084,8.597,8.49,8.4059,8.3983,8.448,8.4938,8.5244,8.5702,8.6084,8.6123,8.6849,8.7422,8.7689,8.8415,8.9027,8.9294,9.0402,9.1166,9.1395,9.2274,9.3038,9.3344,9.4146,9.4643,9.4758,9.5216,9.5255,9.4911,9.4681,9.4872,9.5522,9.556,9.5522,9.5598,9.556,9.5446,9.5446,9.556,9.556,9.5484,9.5522,9.5446,9.556,9.556,9.5265,9.4828,9.4312,9.3629,9.2608,9.1901,9.1053,9.258,9.2656,9.2504,9.2656,9.2504,9.2542,9.2504,9.2504,9.2618,9.258,9.1854,8.9218,8.7918,8.7842,8.7918,8.7995,8.8071,8.7995,8.8874,9.0249,9.0364,9.1166,9.2389,9.2771,9.2886,9.2886,9.3077,9.3612,9.4261,9.4299,9.4643,9.5293,9.5446,9.5484,9.5598,9.5598,9.5598,9.5598,9.5522,9.5522,9.5598,9.5598,9.5598,9.5598,9.5522,9.5484,9.5446,9.5407,9.5025,9.4376,9.4299,9.3841,9.3,9.2886,9.2771,9.2542,9.1854,9.0746,8.9218,8.8339,8.7918,8.7842,8.7957,8.7957,8.7957,8.7766,8.7269,8.6772,8.6581,8.6963,8.7613,8.788,8.8033,8.811,8.8721,8.937,9.0135,9.0975,9.1739,9.258,9.258,9.2847,9.2847,9.3115,9.3497,9.4223,9.4872,9.5331,9.5369,9.5484,9.5675,9.5522,9.5484,9.5484,9.5637,9.5598,9.5598,9.5598,9.5637,9.5713,9.5751,9.5751,9.5637,9.5866,9.5713,9.5751,9.5598,9.5598,9.5598,9.5425,9.5265,9.5096,9.4514,9.3709,9.2816,9.3115,9.3115,9.3115,9.3115,9.3115,9.3115,9.3115,9.3115,9.3115,9.3115,9.2962,9.1625,9.1052,9.1052,9.1052,9.1052,9.1052,9.1052,9.1395,9.2083,9.2083,9.2465,9.3077,9.365,9.3879,9.3917,9.4338,9.4758,9.5064,9.5102,9.5255,9.556,9.5598,9.5598,9.5598,9.5598,9.5598,9.5598,9.5598,9.5598,9.5598,9.5598,9.5598,9.5598,9.5598,9.5598,9.5598,9.5598,9.5446,9.514,9.5102,9.472,9.3917,9.3879,9.365,9.3153,9.2771,9.2274,9.1586,9.1243,9.1052,9.1052,9.1052,9.1052,9.1052,9.1052,9.0899,9.0517,8.9638,8.9409,9.0173,9.0746,9.1052,9.109,9.1357,9.1701,9.2007,9.2389,9.2733,9.3077,9.3535,9.3841,9.3917,9.4261,9.4681,9.5064,9.5446,9.5637,9.5637,9.5598,9.5828,9.6248,9.6363,9.6133,9.5789,9.5598,9.5637,9.5713,9.6057,9.6363,9.6401,9.6859,9.6974,9.6477,9.6363,9.6133,9.5637,9.5637,9.5598,9.563,9.5239,9.4969,9.4769,9.416,9.3363,9.3764,9.3803,9.3803,9.3764,9.3803,9.3803,9.3764,9.3803,9.3764,9.3803,9.3764,9.3764,9.3803,9.3726,9.3344,9.3115,9.3115,9.3115,9.3229,9.3421,9.3421,9.3535,9.3841,9.4414,9.472,9.4834,9.5293,9.5598,9.5598,9.5598,9.5598,9.5637,9.5828,9.5942,9.5981,9.6133,9.6286,9.6286,9.6286,9.6286,9.6324,9.6286,9.6057,9.5675,9.5598,9.5598,9.5598,9.5598,9.5598,9.5598,9.5598,9.5331,9.4758,9.472,9.4452,9.3841,9.3573,9.3459,9.3459,9.3229,9.3115,9.3115,9.3115,9.3115,9.3115,9.3115,9.3229,9.3306,9.2351,9.1854,9.2121,9.2733,9.3077,9.3115,9.3268,9.3459,9.3421,9.3612,9.3803,9.3841,9.4414,9.472,9.4758,9.514,9.5522,9.556,9.5789,9.5942,9.6019,9.621,9.6592,9.7127,9.7203,9.7012,9.6401,9.6439,9.6286,9.6363,9.6898,9.7203,9.7241,9.7776,9.8044,9.7241,9.7241,9.7165,9.6783,9.6477,9.6248,9.6241,9.5934,9.5653,9.5931,9.5204,9.4669,9.5484,9.5446,9.5484,9.5369,9.5446,9.5407,9.5446,9.5293,9.5407,9.5446,9.5369,9.5407,9.5446,9.5293,9.3879,9.3153,9.3153,9.3229,9.365,9.4299,9.4299,9.4681,9.5446,9.5522,9.5522,9.5446,9.5522,9.5637,9.5675,9.5637,9.5598,9.5713,9.6477,9.6859,9.6936,9.7509,9.7929,9.7815,9.7815,9.7891,9.7929,9.7929,9.7165,9.5904,9.5675,9.5713,9.5675,9.5637,9.5637,9.5637,9.5637,9.556,9.5522,9.5522,9.5446,9.5369,9.4758,9.4338,9.4261,9.3688,9.3229,9.3191,9.3306,9.3191,9.3344,9.3344,9.365,9.4261,9.4185,9.3803,9.3229,9.3306,9.3344,9.3344,9.3917,9.4299,9.4338,9.4872,9.5407,9.5369,9.5369,9.5446,9.5522,9.556,9.5713,9.5904,9.6363,9.6821,9.6898,9.7432,9.7815,9.7967,9.8044,9.8044,9.8006,9.7623,9.77,9.7776,9.7662,9.8044,9.8044,9.8082,9.812,9.8082,9.8082,9.8044,9.8006,9.7891,9.7738,9.7616,9.754,9.7447,9.7086,9.7685,9.7059,9.5598,9.5598,9.5598,9.5598,9.5598,9.5598,9.5598,9.5598,9.5598,9.5598,9.5598,9.5598,9.5598,9.556,9.4987,9.472,9.4681,9.4681,9.4872,9.514,9.514,9.5293,9.556,9.5598,9.5598,9.5598,9.5598,9.5904,9.6401,9.6439,9.6706,9.7165,9.7509,9.7662,9.7738,9.7967,9.8082,9.812,9.8082,9.8082,9.8158,9.8082,9.7776,9.728,9.7203,9.7203,9.7203,9.6706,9.6439,9.6439,9.5904,9.5598,9.5598,9.5598,9.5598,9.5598,9.5331,9.5178,9.514,9.4872,9.472,9.4681,9.4681,9.4643,9.4681,9.472,9.4834,9.5102,9.5178,9.4987,9.4834,9.4681,9.4681,9.4758,9.4949,9.514,9.5216,9.5446,9.5598,9.5598,9.5598,9.5789,9.6324,9.6439,9.663,9.7127,9.7471,9.7623,9.77,9.7967,9.8349,9.8808,9.8961,9.9114,9.9687,9.8655,9.812,9.8273,9.8388,9.877,9.8923,9.9343,9.9496,9.8999,9.8923,9.877,9.8655,9.8426,9.8426,9.8349,9.8349,9.8464,9.8082,9.8464,9.7943,9.5598,9.5598,9.5598,9.5598,9.5598,9.5598,9.5598,9.5598,9.5598,9.5598,9.5598,9.5598,9.5598,9.5598,9.5598,9.5598,9.5598,9.5598,9.5598,9.5598,9.5598,9.5598,9.5598,9.5598,9.5751,9.6057,9.6324,9.6745,9.7241,9.728,9.7585,9.8082,9.8349,9.8541,9.8541,9.877,9.8923,9.8923,9.8923,9.8923,9.8923,9.8923,9.8923,9.8923,9.8923,9.8617,9.8158,9.7585,9.728,9.7203,9.6706,9.6286,9.6057,9.5751,9.5598,9.5598,9.5598,9.5598,9.5598,9.5598,9.5598,9.5598,9.5598,9.5598,9.5598,9.5598,9.5598,9.5598,9.5598,9.5675,9.5942,9.6019,9.5904,9.5675,9.5598,9.5713,9.5981,9.6019,9.6172,9.6439,9.6515,9.6745,9.7165,9.7241,9.7509,9.8082,9.8311,9.8541,9.8541,9.8808,9.9075,9.9649,9.9763,9.9992,10.0222,9.961,9.9266,9.9343,9.9228,9.9572,9.9763,10.0298,10.0413,9.9954,9.9649,9.9419,9.919,9.8961,9.8884,9.8846,9.9114,9.9381,9.919,9.9037,9.8666,9.5637,9.5675,9.5598,9.5751,9.5828,9.5866,9.5713,9.5828,9.5751,9.5866,9.5942,9.5751,9.5904,9.5751,9.5904,9.5751,9.5866,9.5904,9.5751,9.5598,9.5675,9.5713,9.5713,9.5866,9.6248,9.6898,9.7662,9.8044,9.812,9.8158,9.8197,9.8349,9.9075,9.9381,9.9419,10.0031,10.0451,10.0375,10.0336,10.0413,10.0566,10.0375,10.0375,10.0413,10.0413,9.9725,9.8311,9.8158,9.812,9.812,9.8006,9.77,9.6898,9.6248,9.5675,9.5713,9.5675,9.5637,9.5598,9.5598,9.5598,9.5598,9.5598,9.5637,9.5751,9.5751,9.5789,9.5904,9.5904,9.6057,9.6745,9.6898,9.663,9.5828,9.5904,9.621,9.6706,9.6898,9.7165,9.7738,9.7815,9.8044,9.812,9.812,9.8235,9.8502,9.8961,9.9381,9.9419,9.984,10.0413,10.0489,10.0413,10.0489,10.0566,10.0604,10.0604,10.0604,10.0375,10.0336,10.026,10.0566,10.0566,10.026,10.0566,10.0413,10.0451,10.0222,10.0145,10.0145,10.0298,10.0222,10.0031,9.9831,9.9879,9.5942,9.6477,9.6477,9.6821,9.728,9.7318,9.7318,9.7318,9.7318,9.7318,9.7318,9.7318,9.7318,9.7318,9.7318,9.7318,9.7318,9.728,9.6706,9.5866,9.621,9.6477,9.6592,9.705,9.7471,9.7738,9.7967,9.8464,9.8923,9.8999,9.9228,9.9801,10.0069,10.0222,10.0222,10.0489,10.0604,10.0604,10.0604,10.0604,10.0604,10.0604,10.0604,10.0604,10.0604,10.0298,9.984,9.9305,9.8999,9.8999,9.8426,9.7967,9.77,9.7471,9.7089,9.6554,9.6477,9.6172,9.5675,9.5637,9.5675,9.5637,9.5637,9.5942,9.6401,9.6515,9.6745,9.7165,9.7318,9.7471,9.7662,9.7738,9.7585,9.7356,9.7318,9.7356,9.7662,9.7776,9.7853,9.8006,9.8082,9.8349,9.8846,9.8999,9.919,9.961,9.9992,10.0145,10.026,10.0413,10.0604,10.0604,10.0642,10.0986,10.1292,10.1559,10.1635,10.1559,10.133,10.1177,10.1024,10.0986,10.0909,10.0986,10.1292,10.1444,10.1483,10.1444,10.133,10.0948,10.0757,10.068,10.0604,10.0662,10.0795,9.6859,9.7318,9.7356,9.7623,9.8082,9.8082,9.8082,9.8082,9.8082,9.8082,9.8082,9.8082,9.8082,9.8082,9.8082,9.8082,9.8082,9.8082,9.7547,9.6706,9.705,9.7356,9.7471,9.8197,9.8579,9.8655,9.8884,9.9305,9.9801,9.984,10.0107,10.0527,10.0604,10.0566,10.0604,10.0604,10.0604,10.0604,10.0604,10.0604,10.0604,10.0604,10.0604,10.0604,10.0604,10.0604,10.0566,10.0069,9.984,9.9725,9.9037,9.8617,9.8579,9.8273,9.7853,9.7509,9.7318,9.7089,9.6592,9.663,9.6515,9.6515,9.6515,9.6745,9.7241,9.7356,9.7623,9.8006,9.8044,9.8235,9.8502,9.8579,9.8693,9.9037,9.8388,9.8311,9.8502,9.8884,9.9037,9.9114,9.9114,9.9305,9.9687,9.9878,10.0031,10.0489,10.0604,10.0604,10.068,10.0871,10.0986,10.1215,10.1597,10.1979,10.2285,10.2476,10.2591,10.2476,10.2285,10.2132,10.1979,10.1979,10.1941,10.2018,10.2285,10.2361,10.24,10.24,10.2285,10.1788,10.1406,10.1712,10.1941,10.1826,10.1884,9.812,9.8197,9.8158,9.8273,9.8349,9.8388,9.8426,9.8311,9.8349,9.8426,9.8388,9.8502,9.8388,9.8349,9.8541,9.8502,9.8273,9.8464,9.8464,9.8273,9.8349,9.8388,9.8502,9.9114,9.9419,9.9572,10.0107,10.0451,10.0451,10.0451,10.0604,10.0566,10.0604,10.0604,10.0604,10.0604,10.068,10.0795,10.0757,10.0795,10.0871,10.0871,10.0795,10.0757,10.0757,10.0718,10.0604,10.0527,10.0527,10.0489,9.9801,9.9458,9.9305,9.8693,9.8388,9.8235,9.8197,9.8082,9.8082,9.7815,9.7853,9.7815,9.7853,9.8158,9.8158,9.8197,9.8311,9.8502,9.8502,9.8693,9.9305,9.9458,9.9763,10.0222,9.9305,9.8884,9.9381,10.0069,10.0222,10.0375,10.0566,10.0566,10.0489,10.0566,10.0718,10.0795,10.0909,10.1062,10.1177,10.1597,10.1903,10.217,10.2438,10.2782,10.3087,10.324,10.3431,10.3813,10.3508,10.3202,10.282,10.2743,10.2935,10.3049,10.3126,10.3202,10.324,10.324,10.3087,10.2667,10.2705,10.3126,10.3049,10.2782,10.2705,9.8464,9.9037,9.9075,9.9419,9.9878,9.9954,9.9916,9.9916,9.9916,9.9801,9.9916,9.9954,9.984,9.9954,9.9916,9.9954,9.984,9.9878,9.9954,9.9954,9.9954,9.9954,9.9954,10.0145,10.026,10.0298,10.0451,10.0604,10.0604,10.0604,10.0604,10.0604,10.068,10.0642,10.0604,10.068,10.0986,10.1483,10.1559,10.1903,10.2361,10.2438,10.217,10.1597,10.1559,10.1253,10.068,10.0604,10.0604,10.0566,10.0413,10.0298,10.0183,9.9954,9.9572,9.9152,9.9037,9.877,9.8273,9.8197,9.8158,9.8082,9.8273,9.8388,9.9037,9.9037,9.9343,9.9763,9.9954,9.9954,10.0222,10.0222,10.0413,10.0489,10.0031,9.9878,10.0183,10.0451,10.0604,10.0604,10.0642,10.068,10.0871,10.1215,10.1521,10.1635,10.1979,10.2323,10.2285,10.2514,10.2858,10.2858,10.3087,10.3508,10.3813,10.4004,10.4386,10.4998,10.4845,10.4348,10.3775,10.3202,10.3546,10.3852,10.4004,10.4081,10.4081,10.4081,10.3813,10.3584,10.3469,10.3622,10.3355,10.3087,10.3202,9.9458,9.9916,9.9916,10.0183,10.0566,10.0604,10.0604,10.0604,10.0604,10.0604,10.0604,10.0604,10.0604,10.0604,10.0566,10.0566,10.0604,10.0604,10.0566,10.0566,10.0527,10.0527,10.0566,10.0604,10.0604,10.0604,10.0604,10.0604,10.0604,10.0604,10.0795,10.1139,10.1177,10.133,10.1788,10.1712,10.1903,10.2361,10.2476,10.2705,10.3164,10.3202,10.2973,10.2514,10.24,10.2018,10.1292,10.1139,10.0986,10.0718,10.0604,10.0604,10.0604,10.0604,10.0375,9.9916,9.9916,9.9649,9.9305,9.9152,9.9152,9.919,9.9152,9.9381,9.9801,9.9916,10.0183,10.0451,10.0566,10.0604,10.0604,10.0604,10.0604,10.0566,10.0604,10.0604,10.0604,10.0566,10.0795,10.0986,10.1139,10.133,10.1597,10.217,10.2361,10.2514,10.2743,10.2973,10.3087,10.3469,10.3699,10.3699,10.3966,10.4463,10.4654,10.4807,10.4807,10.5456,10.5495,10.5112,10.4692,10.4004,10.4348,10.473,10.4845,10.4921,10.4845,10.4845,10.4845,10.4616,10.4272,10.4157,10.4119,10.389,10.3928,10.0604,10.0604,10.0604,10.0604,10.0604,10.0604,10.0604,10.0604,10.0604,10.0604,10.0604,10.0604,10.0604,10.0604,10.0604,10.0604,10.0604,10.0604,10.0604,10.0604,10.0604,10.068,10.0871,10.068,10.0604,10.0642,10.068,10.0795,10.0948,10.0909,10.133,10.1903,10.2056,10.24,10.2743,10.3011,10.3202,10.3278,10.3317,10.3469,10.3699,10.3775,10.3622,10.3355,10.3087,10.2743,10.2209,10.1979,10.1674,10.0795,10.068,10.0604,10.0604,10.0604,10.0566,10.0527,10.0489,10.0451,10.0527,10.0336,10.0451,10.0375,10.0413,10.0604,10.0489,10.0451,10.0489,10.0566,10.0604,10.0604,10.0604,10.0604,10.0718,10.0833,10.0795,10.0757,10.0833,10.0795,10.1062,10.1903,10.2018,10.2438,10.2896,10.3278,10.3317,10.3355,10.366,10.4004,10.4119,10.4348,10.4501,10.4577,10.496,10.5495,10.5571,10.5571,10.5533,10.5647,10.5647,10.5456,10.5456,10.5151,10.538,10.5571,10.5342,10.5342,10.5418,10.5495,10.5533,10.5456,10.5036,10.5265,10.5495,10.5112,10.496,10.0604,10.0604,10.0604,10.0604,10.0604,10.0604,10.0604,10.0604,10.0604,10.0604,10.0604,10.0604,10.0604,10.0604,10.0604,10.0604,10.0604,10.0604,10.0604,10.0604,10.0604,10.1024,10.133,10.1062,10.068,10.0833,10.1368,10.1597,10.1712,10.217,10.2705,10.2858,10.2935,10.3011,10.324,10.3431,10.3546,10.4004,10.4157,10.4463,10.4921,10.4998,10.473,10.4195,10.3622,10.3202,10.3011,10.2935,10.2514,10.1712,10.1062,10.0795,10.0642,10.0604,10.0604,10.0604,10.0604,10.0604,10.0604,10.0604,10.0604,10.0604,10.0604,10.0604,10.0604,10.0604,10.0604,10.0604,10.0604,10.0604,10.0718,10.0604,10.0986,10.1444,10.1635,10.1903,10.2323,10.2018,10.2056,10.2629,10.2896,10.3011,10.324,10.389,10.4081,10.4195,10.4539,10.5036,10.5151,10.5151,10.5151,10.5151,10.5342,10.5686,10.5686,10.5686,10.5686,10.5686,10.5686,10.5686,10.5686,10.5686,10.5686,10.5686,10.5647,10.5686,10.5686,10.5686,10.5609,10.5647,10.5686,10.5686,10.5686,10.5686,10.5686,10.0604,10.0604,10.0604,10.0604,10.0604,10.0604,10.0604,10.0604,10.0604,10.0604,10.0604,10.0604,10.0604,10.0604,10.0604,10.0604,10.0604,10.0604,10.0833,10.1139,10.1253,10.1712,10.2323,10.2094,10.1826,10.1903,10.2247,10.2476,10.2667,10.2973,10.3317,10.3737,10.3737,10.4043,10.431,10.431,10.4616,10.4921,10.4998,10.5265,10.5647,10.5686,10.5571,10.5074,10.4577,10.4234,10.3813,10.3775,10.3278,10.2629,10.2056,10.1368,10.0718,10.0604,10.0604,10.0604,10.0604,10.0604,10.0604,10.0604,10.0604,10.0604,10.0604,10.0604,10.0604,10.0604,10.0604,10.0604,10.0642,10.0718,10.1139,10.1253,10.1635,10.2285,10.2514,10.2858,10.3393,10.3011,10.282,10.3508,10.3737,10.4043,10.4386,10.4654,10.4845,10.496,10.4998,10.5418,10.5418,10.5456,10.5533,10.5533,10.5609,10.5686,10.5686,10.5686,10.5686,10.5686,10.5686,10.5686,10.5686,10.5686,10.5686,10.5686,10.5686,10.5686,10.5686,10.5686,10.5686,10.5686,10.5686,10.5686,10.5686,10.5686,10.5686,10.0604,10.0604,10.0604,10.0604,10.0604,10.0604,10.0604,10.0604,10.0604,10.0604,10.0604,10.0604,10.0604,10.0604,10.0604,10.0642,10.0833,10.0909,10.133,10.2018,10.2094,10.2591,10.3164,10.3278,10.3393,10.3546,10.3431,10.3393,10.3393,10.3584,10.4119,10.4539,10.4616,10.4845,10.5495,10.5686,10.5533,10.5533,10.5571,10.5571,10.5686,10.5686,10.5647,10.5571,10.5495,10.5189,10.473,10.4539,10.4234,10.3469,10.3355,10.2514,10.1444,10.0795,10.068,10.0642,10.0604,10.0604,10.0604,10.0604,10.0604,10.0604,10.0604,10.0604,10.0604,10.0604,10.0604,10.068,10.0795,10.1253,10.1941,10.2094,10.2514,10.3164,10.3393,10.3737,10.4234,10.3966,10.4081,10.4386,10.4616,10.4807,10.5151,10.5418,10.5571,10.5686,10.5686,10.5686,10.5686,10.5686,10.5724,10.5686,10.5686,10.6029,10.6106,10.622,10.6144,10.6373,10.622,10.622,10.622,10.6488,10.6564,10.58,10.5686,10.5724,10.5724,10.5686,10.5686,10.5686,10.5686,10.5686,10.5686,10.5686,10.5686,10.0604,10.0604,10.0604,10.0604,10.0604,10.0604,10.0604,10.0604,10.0604,10.0604,10.0604,10.0604,10.0604,10.0604,10.0604,10.0948,10.1444,10.1674,10.217,10.2858,10.3011,10.3431,10.4081,10.4234,10.4539,10.4921,10.4616,10.4234,10.4386,10.4921,10.5074,10.538,10.5418,10.5571,10.5609,10.5686,10.5686,10.5686,10.5686,10.5686,10.5686,10.5686,10.5686,10.5686,10.5686,10.5571,10.5495,10.5418,10.5074,10.431,10.4195,10.366,10.2782,10.2094,10.1483,10.0871,10.0718,10.0757,10.0642,10.0604,10.0604,10.0604,10.0604,10.0604,10.0604,10.068,10.0795,10.0986,10.1444,10.2056,10.2858,10.2973,10.3393,10.3928,10.4272,10.4539,10.5151,10.5227,10.5074,10.5265,10.538,10.5418,10.5571,10.5686,10.5686,10.5686,10.5686,10.5686,10.5686,10.5724,10.5724,10.5724,10.5686,10.6182,10.6603,10.6794,10.6908,10.7405,10.7443,10.7405,10.752,10.7749,10.752,10.6717,10.6029,10.5838,10.58,10.5724,10.5686,10.5686,10.5686,10.5686,10.5686,10.5686,10.5686,10.0604,10.0604,10.0604,10.0604,10.0604,10.0604,10.0604,10.0604,10.0604,10.0604,10.0604,10.0604,10.0604,10.0604,10.0604,10.11,10.1826,10.2438,10.3011,10.366,10.3852,10.4272,10.496,10.5036,10.5303,10.5495,10.5265,10.5036,10.5074,10.5456,10.5686,10.5686,10.5686,10.5686,10.5686,10.5686,10.5686,10.5686,10.5686,10.5686,10.5686,10.5686,10.5686,10.5686,10.5686,10.5686,10.5686,10.5686,10.5533,10.5151,10.5074,10.4616,10.3966,10.3355,10.2629,10.1597,10.1292,10.1024,10.0718,10.0604,10.0604,10.0604,10.0642,10.0604,10.0718,10.0986,10.1444,10.1941,10.2209,10.2935,10.3699,10.3813,10.4234,10.4845,10.5036,10.5227,10.5533,10.5647,10.5686,10.5686,10.5609,10.5571,10.5609,10.5686,10.5686,10.5686,10.5686,10.5686,10.5686,10.5838,10.5915,10.6335,10.6488,10.6946,10.7405,10.752,10.7787,10.8246,10.8513,10.8475,10.8398,10.8475,10.8131,10.7481,10.6908,10.645,10.5838,10.5762,10.5724,10.5724,10.5724,10.5724,10.5686,10.5686,10.5686,10.0604,10.0604,10.0604,10.0604,10.0604,10.0604,10.0604,10.0604,10.0604,10.0604,10.0604,10.0604,10.0718,10.0909,10.1177,10.1674,10.2438,10.3202,10.389,10.4539,10.4654,10.5074,10.5495,10.5686,10.5647,10.5647,10.5647,10.5686,10.5571,10.5686,10.5686,10.5686,10.5686,10.5686,10.5686,10.5686,10.5686,10.5686,10.5686,10.5686,10.5686,10.5686,10.5686,10.5686,10.5686,10.5686,10.5686,10.5686,10.5686,10.5609,10.5571,10.5342,10.4807,10.4654,10.3966,10.2705,10.2285,10.175,10.1406,10.1215,10.1406,10.1406,10.1215,10.1177,10.1292,10.1941,10.2476,10.324,10.3469,10.3775,10.4501,10.4654,10.4998,10.538,10.5609,10.5686,10.5647,10.5686,10.5686,10.5686,10.5686,10.5686,10.5686,10.5686,10.5686,10.5686,10.5686,10.5686,10.5762,10.6106,10.6373,10.7099,10.752,10.7978,10.8284,10.836,10.8704,10.9163,10.9315,10.9315,10.9124,10.8972,10.8628,10.8398,10.8054,10.7558,10.6717,10.6029,10.6144,10.6144,10.5877,10.5724,10.5686,10.5686,10.5686,10.0604,10.0604,10.0604,10.0604,10.0604,10.0604,10.0604,10.0604,10.0604,10.0604,10.0604,10.068,10.11,10.175,10.2552,10.3278,10.3852,10.4195,10.4692,10.5303,10.5418,10.5456,10.5686,10.5686,10.5686,10.5686,10.5686,10.5686,10.5686,10.5686,10.5686,10.5686,10.5686,10.5686,10.5686,10.5686,10.5686,10.5686,10.5686,10.5686,10.5686,10.5686,10.5686,10.5686,10.5686,10.5686,10.5686,10.5686,10.5686,10.5686,10.5686,10.5647,10.5571,10.5571,10.5074,10.4195,10.3508,10.2973,10.2743,10.2591,10.2591,10.2552,10.2667,10.282,10.282,10.2896,10.3393,10.4157,10.4272,10.4577,10.5189,10.5456,10.5609,10.5609,10.5686,10.5686,10.5686,10.5686,10.5686,10.5686,10.5686,10.5686,10.5686,10.5686,10.5686,10.5686,10.5686,10.5724,10.6029,10.6603,10.7099,10.7863,10.8513,10.8933,10.9163,10.9277,10.943,10.9927,10.9965,11.0003,10.985,10.9697,10.9697,10.943,10.9086,10.878,10.8131,10.7558,10.7023,10.6526,10.6259,10.5953,10.5686,10.5686,10.5686,10.0604,10.0604,10.0604,10.0604,10.0604,10.0604,10.0604,10.0604,10.0604,10.0604,10.0718,10.1177,10.1826,10.2667,10.3508,10.4043,10.4463,10.4883,10.5303,10.5609,10.5686,10.5686,10.5686,10.5686,10.5686,10.5686,10.5686,10.5686,10.5686,10.5686,10.5686,10.5686,10.5686,10.5686,10.5686,10.5686,10.5686,10.5686,10.5686,10.5686,10.5686,10.5686,10.5686,10.5686,10.5686,10.5686,10.5686,10.5686,10.5686,10.5686,10.5686,10.5686,10.5686,10.5686,10.5456,10.5227,10.4845,10.4195,10.3355,10.3278,10.3317,10.324,10.3278,10.3317,10.3699,10.3928,10.4234,10.5074,10.5151,10.5342,10.5571,10.5686,10.5686,10.5686,10.5686,10.5686,10.5686,10.5686,10.5686,10.5686,10.5686,10.5686,10.5686,10.5686,10.5724,10.5724,10.5915,10.6106,10.6832,10.7749,10.8246,10.8742,10.9354,10.9927,11.0041,11.0156,11.008,11.0347,11.0385,11.0423,11.05,11.0462,11.0309,11.0271,11.008,10.9774,10.943,10.8628,10.7672,10.7137,10.6641,10.6297,10.5953,10.5724,10.5724,10.0604,10.0604,10.0604,10.0604,10.0604,10.0604,10.0604,10.0604,10.0871,10.0948,10.1253,10.2056,10.2935,10.3546,10.431,10.4769,10.4807,10.5418,10.5647,10.5686,10.5686,10.5686,10.5686,10.5686,10.5686,10.5686,10.5686,10.5686,10.5686,10.5686,10.5686,10.5686,10.5686,10.5686,10.5686,10.5686,10.5686,10.5686,10.5686,10.5686,10.5686,10.5686,10.5686,10.5686,10.5686,10.5686,10.5686,10.5686,10.5686,10.5686,10.5686,10.5686,10.5686,10.5686,10.5686,10.5571,10.5456,10.5074,10.4348,10.4043,10.3852,10.3813,10.3852,10.4272,10.4616,10.473,10.4883,10.5571,10.5571,10.5609,10.5686,10.5686,10.5686,10.5686,10.5686,10.5686,10.5686,10.5686,10.5686,10.5686,10.5686,10.5686,10.5686,10.5686,10.5724,10.5762,10.6029,10.645,10.7481,10.8628,10.9163,10.9545,10.9889,11.0347,11.0462,11.0614,11.0653,11.0691,11.0691,11.0691,11.0691,11.0691,11.0576,11.0614,11.0691,11.05,11.0041,10.9163,10.8322,10.794,10.7481,10.6755,10.6297,10.5953,10.5724,10.0604,10.0604,10.0604,10.0604,10.0604,10.0604,10.0604,10.0795,10.1483,10.1826,10.2132,10.3355,10.4081,10.4501,10.5036,10.5456,10.5571,10.5686,10.5686,10.5686,10.5686,10.5686,10.5686,10.5686,10.5686,10.5686,10.5686,10.5686,10.5686,10.5686,10.5686,10.5686,10.5686,10.5686,10.5686,10.5686,10.5686,10.5686,10.5686,10.5686,10.5686,10.5686,10.5686,10.5686,10.5686,10.5686,10.5686,10.5686,10.5686,10.5686,10.5686,10.5686,10.5686,10.5686,10.5686,10.5686,10.5686,10.5456,10.5151,10.5112,10.538,10.5456,10.538,10.5227,10.5342,10.5533,10.5647,10.5686,10.5686,10.5686,10.5686,10.5686,10.5686,10.5686,10.5686,10.5686,10.5686,10.5686,10.5686,10.5686,10.5686,10.5686,10.5686,10.5686,10.5686,10.5724,10.6755,10.7214,10.8246,10.9315,10.9812,11.0194,11.0423,11.0614,11.0614,11.0691,11.0691,11.0691,11.0691,11.0691,11.0691,11.0691,11.0691,11.0691,11.0691,11.0691,11.0614,10.985,10.9239,10.8895,10.836,10.752,10.6641,10.6106,10.5838,10.0604,10.0604,10.0604,10.0604,10.0642,10.1177,10.1406,10.1559,10.2323,10.3011,10.3469,10.4119,10.4692,10.5189,10.5456,10.5686,10.5686,10.5686,10.5686,10.5686,10.5686,10.5686,10.5686,10.5686,10.5686,10.5686,10.5686,10.5686,10.5686,10.5686,10.5686,10.5686,10.5686,10.5686,10.5686,10.5686,10.5686,10.5686,10.5686,10.5686,10.5686,10.5686,10.5686,10.5686,10.5686,10.5686,10.5686,10.5686,10.5686,10.5686,10.5686,10.5686,10.5686,10.5686,10.5686,10.5686,10.5686,10.5686,10.5686,10.5686,10.5686,10.5686,10.5686,10.5686,10.5686,10.5686,10.5686,10.5686,10.5686,10.5686,10.5686,10.5686,10.5686,10.5686,10.5686,10.5686,10.5686,10.5686,10.5686,10.5686,10.5686,10.5686,10.5686,10.5686,10.5686,10.58,10.6946,10.8093,10.9086,10.9812,11.0232,11.0462,11.0614,11.0691,11.0691,11.0691,11.0691,11.0691,11.0691,11.0691,11.0691,11.0691,11.0691,11.0691,11.0691,11.0691,11.0614,11.0423,11.0003,10.9506,10.8895,10.8246,10.7329,10.6297,10.5915,10.0604,10.0642,10.0871,10.1024,10.1062,10.1674,10.2056,10.2438,10.3164,10.4004,10.4769,10.4807,10.5112,10.5571,10.5686,10.5686,10.5686,10.5686,10.5686,10.5686,10.5686,10.5686,10.5686,10.5686,10.5686,10.5686,10.5686,10.5686,10.5686,10.5686,10.5686,10.5686,10.5686,10.5686,10.5686,10.5686,10.5686,10.5686,10.5686,10.5686,10.5686,10.5686,10.5686,10.5686,10.5686,10.5686,10.5686,10.5686,10.5686,10.5686,10.5686,10.5686,10.5686,10.5686,10.5686,10.5686,10.5686,10.5686,10.5686,10.5686,10.5686,10.5686,10.5686,10.5686,10.5686,10.5686,10.5686,10.5686,10.5686,10.5686,10.5686,10.5686,10.5686,10.5686,10.5686,10.5686,10.5686,10.5686,10.5686,10.5686,10.5686,10.5724,10.5915,10.6029,10.6603,10.6832,10.7787,10.8857,10.9697,11.0232,11.0462,11.0614,11.0653,11.0691,11.0691,11.0691,11.0691,11.0691,11.0691,11.0691,11.0691,11.0691,11.0691,11.0691,11.0691,11.0691,11.0614,11.05,11.0271,10.9965,10.9201,10.8284,10.7329,10.6335,10.5915,10.0604,10.0718,10.1483,10.1865,10.1979,10.1941,10.2438,10.3202,10.4043,10.4807,10.5495,10.5571,10.5571,10.5686,10.5686,10.5686,10.5686,10.5686,10.5686,10.5686,10.5686,10.5686,10.5686,10.5686,10.5686,10.5686,10.5686,10.5686,10.5686,10.5686,10.5686,10.5686,10.5686,10.5686,10.5686,10.5686,10.5686,10.5686,10.5686,10.5686,10.5686,10.5686,10.5686,10.5686,10.5686,10.5686,10.5686,10.5686,10.5686,10.5686,10.5686,10.5686,10.5686,10.5686,10.5686,10.5686,10.5686,10.5686,10.5686,10.5686,10.5686,10.5686,10.5686,10.5686,10.5686,10.5686,10.5686,10.5686,10.5686,10.5686,10.5686,10.5686,10.5686,10.5686,10.5686,10.5686,10.5686,10.5686,10.5686,10.5686,10.5724,10.5762,10.6068,10.645,10.7329,10.8016,10.8857,10.9621,11.0271,11.0538,11.0653,11.0691,11.0691,11.0691,11.0691,11.0691,11.0691,11.0691,11.0691,11.0691,11.0691,11.0691,11.0691,11.0691,11.0691,11.0691,11.0691,11.0653,11.0309,10.9889,10.8933,10.8016,10.7137,10.6373,10.5915,10.0948,10.1521,10.1788,10.2552,10.3469,10.3546,10.3737,10.4119,10.4845,10.5418,10.5647,10.5686,10.5686,10.5686,10.5686,10.5686,10.5686,10.5686,10.5686,10.5686,10.5686,10.5686,10.5686,10.5686,10.5686,10.5686,10.5686,10.5686,10.5686,10.5686,10.5686,10.5686,10.5686,10.5686,10.5686,10.5686,10.5686,10.5686,10.5686,10.5686,10.5686,10.5686,10.5686,10.5686,10.5686,10.5686,10.5686,10.5686,10.5686,10.5686,10.5686,10.5686,10.5686,10.5686,10.5686,10.5686,10.5686,10.5686,10.5686,10.5686,10.5686,10.5686,10.5686,10.5686,10.5686,10.5686,10.5686,10.5686,10.5686,10.5686,10.5686,10.5686,10.5686,10.5686,10.5686,10.5686,10.5686,10.5686,10.5686,10.5686,10.5724,10.6144,10.6526,10.7367,10.8246,10.8704,10.9392,10.985,11.0462,11.0576,11.0691,11.0691,11.0691,11.0691,11.0691,11.0691,11.0691,11.0691,11.0691,11.0691,11.0691,11.0691,11.0691,11.0691,11.0691,11.0691,11.0538,11.0385,11.0232,10.9736,10.8666,10.8054,10.752,10.6641,10.5838,10.1406,10.1941,10.2552,10.3393,10.4348,10.4386,10.4539,10.4921,10.5456,10.5686,10.5686,10.5686,10.5686,10.5686,10.5686,10.5686,10.5686,10.5686,10.5686,10.5686,10.5686,10.5686,10.5686,10.5686,10.5686,10.5686,10.5686,10.5686,10.5686,10.5686,10.5686,10.5686,10.5686,10.5686,10.5686,10.5686,10.5686,10.5686,10.5686,10.5686,10.5686,10.5686,10.5686,10.5686,10.5686,10.5686,10.5686,10.5686,10.5686,10.5686,10.5686,10.5686,10.5686,10.5686,10.5686,10.5686,10.5686,10.5686,10.5686,10.5686,10.5686,10.5686,10.5686,10.5686,10.5686,10.5686,10.5686,10.5686,10.5686,10.5686,10.5686,10.5686,10.5686,10.5686,10.5686,10.5686,10.5686,10.5686,10.5686,10.5686,10.5838,10.6373,10.7176,10.8284,10.9239,10.9545,10.9889,11.0271,11.0576,11.0653,11.0691,11.0691,11.0691,11.0691,11.0691,11.0691,11.0691,11.0691,11.0691,11.0691,11.0691,11.0691,11.0691,11.0653,11.0614,11.05,11.0271,11.008,10.9697,10.9124,10.8207,10.7825,10.7749,10.687,10.58,10.1941,10.2209,10.3737,10.4386,10.4463,10.4539,10.496,10.5647,10.5686,10.5686,10.5686,10.5686,10.5686,10.5686,10.5686,10.5686,10.5686,10.5686,10.5686,10.5686,10.5686,10.5686,10.5686,10.5686,10.5686,10.5686,10.5686,10.5686,10.5686,10.5686,10.5686,10.5686,10.5686,10.5686,10.5686,10.5686,10.5686,10.5686,10.5686,10.5686,10.5686,10.5686,10.5686,10.5686,10.5686,10.5686,10.5686,10.5686,10.5686,10.5686,10.5686,10.5686,10.5686,10.5686,10.5686,10.5686,10.5686,10.5686,10.5686,10.5686,10.5686,10.5686,10.5686,10.5686,10.5686,10.5686,10.5686,10.5686,10.5686,10.5686,10.5686,10.5686,10.5686,10.5686,10.5686,10.5686,10.5686,10.5686,10.5686,10.5762,10.5877,10.6488,10.7672,10.8857,10.9621,11.0118,11.0271,11.0385,11.0653,11.0653,11.0691,11.0691,11.0691,11.0691,11.0691,11.0691,11.0691,11.0691,11.0653,11.0653,11.0691,11.0462,11.0156,11.008,11.0347,11.0232,10.9621,10.9277,10.901,10.8322,10.7596,10.7443,10.7329,10.6564,10.5686,10.2591,10.3699,10.4195,10.4769,10.5303,10.5303,10.5495,10.5686,10.5686,10.5686,10.5686,10.5686,10.5686,10.5686,10.5686,10.5686,10.5686,10.5686,10.5686,10.5686,10.5686,10.5686,10.5686,10.5686,10.5686,10.5686,10.5686,10.5686,10.5686,10.5686,10.5686,10.5686,10.5686,10.5686,10.5686,10.5686,10.5686,10.5686,10.5686,10.5686,10.5686,10.5686,10.5686,10.5686,10.5686,10.5686,10.5686,10.5686,10.5686,10.5686,10.5686,10.5686,10.5686,10.5686,10.5686,10.5686,10.5686,10.5686,10.5686,10.5686,10.5686,10.5686,10.5686,10.5686,10.5686,10.5686,10.5686,10.5686,10.5686,10.5686,10.5686,10.5686,10.5686,10.5686,10.5686,10.5686,10.5686,10.5686,10.5686,10.58,10.5915,10.6679,10.7902,10.8895,10.9659,11.0309,11.0691,11.0691,11.0691,11.0691,11.0691,11.0691,11.0691,11.0691,11.0691,11.0691,11.0691,11.0691,11.0576,11.0347,11.0003,10.9736,10.9468,10.9392,10.943,10.9163,10.8666,10.8398,10.8246,10.7711,10.7061,10.6985,10.6755,10.6106,10.5686,10.3469,10.4386,10.4769,10.5227,10.5647,10.5686,10.5686,10.5686,10.5686,10.5686,10.5686,10.5686,10.5686,10.5686,10.5686,10.5686,10.5686,10.5686,10.5686,10.5686,10.5686,10.5686,10.5686,10.5686,10.5686,10.5686,10.5686,10.5686,10.5686,10.5686,10.5686,10.5686,10.5686,10.5686,10.5686,10.5686,10.5686,10.5686,10.5686,10.5686,10.5686,10.5686,10.5686,10.5686,10.5686,10.5686,10.5686,10.5686,10.5686,10.5686,10.5686,10.5686,10.5686,10.5686,10.5686,10.5686,10.5686,10.5686,10.5686,10.5686,10.5686,10.5686,10.5686,10.5686,10.5686,10.5686,10.5686,10.5686,10.5686,10.5686,10.5686,10.5686,10.5686,10.5686,10.5686,10.5686,10.5686,10.5686,10.5762,10.5838,10.6259,10.6908,10.7825,10.878,10.9545,10.9965,11.0385,11.0691,11.0691,11.0691,11.0691,11.0691,11.0691,11.0691,11.0691,11.0653,11.0614,11.0462,11.0118,10.985,10.943,10.9048,10.8742,10.8513,10.836,10.8054,10.7787,10.7672,10.7443,10.6908,10.6526,10.6412,10.6297,10.6029,10.5724,10.4425,10.4616,10.538,10.5647,10.5686,10.5686,10.5686,10.5686,10.5686,10.5686,10.5686,10.5686,10.5686,10.5686,10.5686,10.5686,10.5686,10.5686,10.5686,10.5686,10.5686,10.5686,10.5686,10.5686,10.5686,10.5686,10.5686,10.5686,10.5686,10.5686,10.5686,10.5686,10.5686,10.5686,10.5686,10.5686,10.5686,10.5686,10.5686,10.5686,10.5686,10.5686,10.5686,10.5686,10.5686,10.5686,10.5686,10.5686,10.5686,10.5686,10.5686,10.5686,10.5686,10.5686,10.5686,10.5686,10.5686,10.5686,10.5686,10.5686,10.5686,10.5686,10.5686,10.5686,10.5686,10.5686,10.5686,10.5686,10.5686,10.5686,10.5686,10.5686,10.5686,10.5686,10.5686,10.5877,10.6106,10.622,10.645,10.6526,10.6832,10.7405,10.7749,10.8704,10.9659,10.9812,11.0156,11.0614,11.0691,11.0691,11.0691,11.0691,11.0691,11.0691,11.0691,11.0653,11.0538,11.0309,10.985,10.9163,10.8589,10.8246,10.7978,10.7634,10.7252,10.7214,10.7023,10.6908,10.6679,10.6259,10.5953,10.58,10.5724,10.5724,10.5724,10.4769,10.538,10.5609,10.5686,10.5686,10.5686,10.5686,10.5686,10.5686,10.5686,10.5686,10.5686,10.5686,10.5686,10.5686,10.5686,10.5686,10.5686,10.5686,10.5686,10.5686,10.5686,10.5686,10.5686,10.5686,10.5686,10.5686,10.5686,10.5686,10.5686,10.5686,10.5686,10.5686,10.5686,10.5686,10.5686,10.5686,10.5686,10.5686,10.5686,10.5686,10.5686,10.5686,10.5686,10.5686,10.5686,10.5686,10.5686,10.5686,10.5686,10.5686,10.5686,10.5686,10.5686,10.5686,10.5686,10.5686,10.5686,10.5686,10.5686,10.5686,10.5686,10.5686,10.5686,10.5686,10.5686,10.5686,10.5686,10.5686,10.5686,10.5686,10.5686,10.5686,10.5686,10.5762,10.6144,10.6488,10.6755,10.7061,10.7176,10.7405,10.7634,10.7863,10.8589,10.9545,11.0118,11.0423,11.0691,11.0691,11.0691,11.0691,11.0691,11.0691,11.0691,11.0691,11.0462,11.0271,10.9889,10.9392,10.8628,10.7749,10.729,10.687,10.645,10.6144,10.6297,10.6335,10.6106,10.5838,10.5686,10.5686,10.5686,10.5686,10.5724,10.5724,10.5265,10.5686,10.5686,10.5686,10.5686,10.5686,10.5686,10.5686,10.5686,10.5686,10.5686,10.5686,10.5686,10.5686,10.5686,10.5686,10.5686,10.5686,10.5686,10.5686,10.5686,10.5686,10.5686,10.5686,10.5686,10.5686,10.5686,10.5686,10.5686,10.5686,10.5686,10.5686,10.5686,10.5686,10.5686,10.5686,10.5686,10.5686,10.5686,10.5686,10.5686,10.5686,10.5686,10.5686,10.5686,10.5686,10.5686,10.5686,10.5686,10.5686,10.5686,10.5686,10.5686,10.5686,10.5686,10.5686,10.5686,10.5686,10.5686,10.5686,10.5686,10.5686,10.5686,10.5686,10.5686,10.5686,10.5686,10.5686,10.5686,10.5686,10.5686,10.5686,10.5686,10.5686,10.6106,10.6564,10.6717,10.687,10.6717,10.6373,10.6603,10.6832,10.7252,10.8054,10.901,10.9812,11.0194,11.0653,11.0691,11.0691,11.0691,11.0691,11.0691,11.0691,11.0653,11.0309,10.985,10.9392,10.8819,10.7787,10.6794,10.622,10.5724,10.5762,10.58,10.58,10.5762,10.5686,10.5686,10.5686,10.5686,10.5686,10.5686,10.5686,10.5636,10.5686,10.5686,10.5686,10.5686,10.5686,10.5686,10.5686,10.5686,10.5686,10.5686,10.5686,10.5686,10.5686,10.5686,10.5686,10.5686,10.5686,10.5686,10.5686,10.5686,10.5686,10.5686,10.5686,10.5686,10.5686,10.5686,10.5686,10.5686,10.5686,10.5686,10.5686,10.5686,10.5686,10.5686,10.5686,10.5686,10.5686,10.5686,10.5686,10.5686,10.5686,10.5686,10.5686,10.5686,10.5686,10.5686,10.5686,10.5686,10.5686,10.5686,10.5686,10.5686,10.5686,10.5686,10.5686,10.5686,10.5686,10.5686,10.5686,10.5686,10.5686,10.5686,10.5686,10.5762,10.5762,10.5877,10.5877,10.5877,10.5877,10.5724,10.5724,10.5686,10.5686,10.5838,10.6373,10.6985,10.7061,10.7176,10.6794,10.6297,10.6564,10.6832,10.7252,10.8016,10.8742,10.9506,10.9965,11.0385,11.0691,11.0691,11.0691,11.0691,11.0691,11.0691,11.05,11.008,10.9506,10.8501,10.7813,10.6744,10.5942,10.5701,10.5587,10.5636,10.5636,10.5636,10.5686,10.5686,10.5686,10.5636,10.5686,10.5686,10.5587,10.5587,10.5587,10.5686,10.5686,10.5686,10.5686,10.5686,10.5686,10.5686,10.5686,10.5686,10.5686,10.5686,10.5686,10.5686,10.5686,10.5686,10.5686,10.5686,10.5686,10.5686,10.5686,10.5686,10.5686,10.5686,10.5686,10.5686,10.5686,10.5686,10.5686,10.5686,10.5686,10.5686,10.5686,10.5686,10.5686,10.5686,10.5686,10.5686,10.5686,10.5686,10.5686,10.5686,10.5686,10.5686,10.5686,10.5686,10.5686,10.5686,10.5686,10.5686,10.5686,10.5686,10.5686,10.5686,10.5686,10.5686,10.5686,10.5686,10.5686,10.5686,10.5686,10.5686,10.5724,10.58,10.6106,10.6297,10.6641,10.6641,10.6564,10.6412,10.5877,10.5762,10.5724,10.5724,10.5991,10.645,10.7214,10.7634,10.8093,10.8284,10.8322,10.8628,10.8551,10.8398,10.9124,10.9736,11.0271,11.0347,11.0691,11.0691,11.0691,11.0691,11.0653,11.0653,11.0156,10.9774,10.9532,10.8997,10.7966,10.6999,10.6223,10.5714,10.5562,10.5485,10.5498,10.5587,10.5636,10.5636,10.5587,10.5636,10.5587,10.5636,10.5636,10.5587,10.5536,10.5485]},{"header":{"parameterUnit":"m.s-1","parameterCategory":1,"la1":31.0,"la2":29.5877,"lo1":-88.7671,"lo2":-86.6584,"dy":0.0162,"dx":0.0185,"nx":115,"ny":88,"refTime":"2023-10-12T06:00:00:Z","depth":0,"parameterNumber":3,"parameterNumberName":"V-component_of_WINDS"},"data":[0.0,0.0,0.0,0.0,0.0,0.0,0.0,0.0,0.0,0.0,0.0,0.0,0.0,0.0,0.0,0.0,0.0,0.0,0.0,0.0,0.0,0.0,0.0,0.0,0.0,0.0,0.0,0.0,0.0,0.0,0.0,0.0,0.0,0.0,0.0,0.0,0.0,0.0,0.0,0.0,0.0,0.0,0.0,0.0,0.0,0.0,0.0,0.0,0.0,0.0,0.0,0.0,0.0,0.0,0.0,0.0,0.0,0.0,0.0,0.0,0.0,0.0,0.0,0.0,0.0,0.0,0.0,0.0,0.0,0.0,0.0,0.0,0.0,0.0,0.0,0.0,0.0,0.0,0.0,0.0,0.0,0.0,0.0,0.0,0.0,0.0,0.0,0.0,0.0,0.0,0.0,0.0,0.0,0.0,0.0,0.0,0.0,0.0,0.0,0.0,0.0,0.0,0.0,0.0,0.0,0.0,0.0,0.0,0.0,0.0,0.0,0.0,0.0,0.0,0.0,0.0,0.0,0.0,0.0,0.0,0.0,0.0,0.0,0.0,0.0,0.0,0.0,0.0,0.0,0.0,0.0,0.0,0.0,0.0,0.0,0.0,0.0,0.0,0.0,0.0,0.0,0.0,0.0,0.0,0.0,0.0,0.0,0.0,0.0,0.0,0.0,0.0,0.0,0.0,0.0,0.0,0.0,0.0,0.0,0.0,0.0,0.0,0.0,0.0,0.0,0.0,0.0,0.0,0.0,0.0,0.0,0.0,0.0,0.0,0.0,0.0,0.0,0.0,0.0,0.0,0.0,0.0,0.0,0.0,0.0,0.0,0.0,0.0,0.0,0.0,0.0,0.0,0.0,0.0,0.0,0.0,0.0,0.0,0.0,0.0,0.0,0.0,0.0,0.0,0.0,0.0,0.0,0.0,0.0,0.0,0.0,0.0,0.0,0.0,0.0,0.0,0.0,0.0,0.0,0.0,0.0,0.0,0.0,0.0,0.0,0.0,0.0,0.0,0.0,0.0,0.0,0.0,0.0,0.0,0.0,0.0,0.0,0.0,0.0,0.0,0.0,0.0,0.0,0.0,0.0,0.0,0.0,0.0,0.0,0.0,0.0,0.0,0.0,0.0,0.0,0.0,0.0,0.0,0.0,0.0,0.0,0.0,0.0,0.0,0.0,0.0,0.0,0.0,0.0,0.0,0.0,0.0,0.0,0.0,0.0,0.0,0.0,0.0,0.0,0.0,0.0,0.0,0.0,0.0,0.0,0.0,0.0,0.0,0.0,0.0,0.0,0.0,0.0,0.0,0.0,0.0,0.0,0.0,0.0,0.0,0.0,0.0,0.0,0.0,0.0,0.0,0.0,0.0,0.0,0.0,0.0,0.0,0.0,0.0,0.0,0.0,0.0,0.0,0.0,0.0,0.0,0.0,0.0,0.0,0.0,0.0,0.0,0.0,0.0,0.0,0.0,0.0,0.0,0.0,0.0,0.0,0.0,0.0,0.0,0.0,0.0,0.0,0.0,0.0,0.0,0.0,0.0,0.0,0.0,0.0,0.0,0.0,0.0,0.0,0.0,0.0,0.0,0.0,0.0,0.0,0.0,0.0,0.0,0.0,0.0,0.0,0.0,0.0,0.0,0.0,0.0,0.0,0.0,0.0,0.0,0.0,0.0,0.0,0.0,0.0,0.0,0.0,0.0,0.0,0.0,0.0,0.0,0.0,0.0,0.0,0.0,0.0,0.0,0.0,0.0,0.0,0.0,0.0,0.0,0.0,0.0,0.0,0.0,0.0,0.0,0.0,0.0,0.0,0.0,0.0,0.0,0.0,0.0,0.0,0.0,0.0,0.0,0.0,0.0,0.0,0.0,0.0,0.0,0.0,0.0,0.0,0.0,0.0,0.0,0.0,0.0,0.0,0.0,0.0,0.0,0.0,0.0,0.0,0.0,0.0,0.0,0.0,0.0,0.0,0.0,0.0,0.0,0.0,0.0,0.0,0.0,0.0,0.0,0.0,0.0,0.0,0.0,0.0,0.0,0.0,0.0,0.0,0.0,0.0,0.0,0.0,0.0,0.0,0.0,0.0,0.0,0.0,0.0,0.0,0.0,0.0,0.0,0.0,0.0,0.0,0.0,0.0,0.0,0.0,0.0,0.0,0.0,0.0,0.0,0.0,0.0,0.0,0.0,0.0,0.0,0.0,0.0,0.0,0.0,0.0,0.0,0.0,0.0,0.0,0.0,0.0,0.0,0.0,0.0,0.0,0.0,0.0,0.0,0.0,0.0,0.0,0.0,0.0,0.0,0.0,0.0,0.0,0.0,0.0,0.0,0.0,0.0,0.0,0.0,0.0,0.0,0.0,0.0,0.0,0.0,0.0,0.0,0.0,0.0,0.0,0.0,0.0,0.0,0.0,0.0,0.0,0.0,0.0,0.0,0.0,0.0,0.0,0.0,0.0,0.0,0.0,0.0,0.0,0.0,0.0,0.0,0.0,0.0,0.0,0.0,0.0,0.0,0.0,0.0,0.0,0.0,0.0,0.0,0.0,0.0,0.0,0.0,0.0,0.0,0.0,0.0,0.0,0.0,0.0,0.0,0.0,0.0,0.0,0.0,0.0,0.0,0.0,0.0,0.0,0.0,0.0,0.0,0.0,0.0,0.0,0.0,0.0,0.0,0.0,0.0,0.0,0.0,0.0,0.0,0.0,0.0,0.0,0.0,0.0,0.0,0.0,0.0,0.0,0.0,0.0,0.0,0.0,0.0,0.0,0.0,0.0,0.0,0.0,0.0,0.0,0.0,0.0,0.0,0.0,0.0,0.0,0.0,0.0,0.0,0.0,0.0,0.0,0.0,0.0,0.0,0.0,0.0,0.0,0.0,0.0,0.0,0.0,0.0,0.0,0.0,0.0,0.0,0.0,0.0,0.0,0.0,0.0,0.0,0.0,0.0,0.0,0.0,0.0,0.0,0.0,0.0,0.0,0.0,0.0,0.0,0.0,0.0,0.0,0.0,0.0,0.0,0.0,0.0,0.0,0.0,0.0,0.0,0.0,0.0,0.0,0.0,0.0,0.0,0.0,0.0,0.0,0.0,0.0,0.0,0.0,0.0,0.0,0.0,0.0,0.0,0.0,0.0,0.0,0.0,0.0,0.0,0.0,0.0,0.0,0.0,0.0,0.0,0.0,0.0,0.0,0.0,0.0,0.0,0.0,0.0,0.0,0.0,0.0,0.0,0.0,0.0,0.0,0.0,0.0,0.0,0.0,0.0,0.0,0.0,0.0,0.0,0.0,0.0,0.0,0.0,0.0,0.0,0.0,0.0,0.0,0.0,0.0,0.0,0.0,0.0,0.0,0.0,0.0,0.0,0.0,0.0,0.0,0.0,0.0,0.0,0.0,0.0,0.0,0.0,0.0,0.0,0.0,0.0,0.0,0.0,0.0,0.0,0.0,0.0,0.0,0.0,0.0,0.0,0.0,0.0,0.0,0.0,0.0,0.0,0.0,0.0,0.0,0.0,0.0,0.0,0.0,0.0,0.0,0.0,0.0,0.0,0.0,0.0,0.0,0.0,0.0,0.0,0.0,0.0,0.0,0.0,0.0,0.0,0.0,0.0,0.0,0.0,0.0,0.0,0.0,0.0,0.0,0.0,0.0,0.0,0.0,0.0,0.0,0.0,0.0,0.0,0.0,0.0,0.0,0.0,0.0,0.0,0.0,0.0,0.0,0.0,0.0,0.0,0.0,0.0,0.0,0.0,0.0,0.0,0.0,0.0,0.0,0.0,0.0,0.0,0.0,0.0,0.0,0.0,0.0,0.0,0.0,0.0,0.0,0.0,0.0,0.0,0.0,0.0,0.0,0.0,0.0,0.0,0.0,0.0,0.0,0.0,0.0,0.0,0.0,0.0,0.0,0.0,0.0,0.0,0.0,0.0,0.0,0.0,0.0,0.0,0.0,0.0,0.0,0.0,0.0,0.0,0.0,0.0,0.0,0.0,0.0,0.0,0.0,0.0,0.0,0.0,0.0,0.0,0.0,0.0,0.0,0.0,0.0,0.0,0.0,0.0,0.0,0.0,0.0,0.0,0.0,0.0,0.0,0.0,0.0,0.0,0.0,0.0,0.0,0.0,0.0,0.0,0.0,0.0,0.0,0.0,0.0,0.0,0.0,0.0,0.0,0.0,0.0,0.0,0.0,0.0,0.0,0.0,0.0,0.0,0.0,0.0,0.0,0.0,0.0,0.0,0.0,0.0,0.0,0.0,0.0,0.0,0.0,0.0,0.0,-1.666,0.0,0.0,0.0,0.0,0.0,0.0,0.0,0.0,0.0,0.0,0.0,0.0,0.0,0.0,0.0,0.0,0.0,0.0,0.0,0.0,0.0,0.0,0.0,0.0,0.0,0.0,0.0,0.0,0.0,0.0,0.0,0.0,0.0,0.0,0.0,0.0,0.0,0.0,0.0,0.0,0.0,0.0,0.0,0.0,0.0,0.0,0.0,0.0,0.0,0.0,0.0,0.0,0.0,0.0,0.0,0.0,0.0,0.0,0.0,0.0,0.0,0.0,0.0,0.0,0.0,0.0,0.0,0.0,0.0,0.0,0.0,0.0,0.0,0.0,0.0,0.0,0.0,0.0,0.0,0.0,0.0,0.0,0.0,0.0,0.0,0.0,0.0,0.0,0.0,0.0,0.0,0.0,0.0,0.0,0.0,0.0,0.0,0.0,0.0,0.0,0.0,0.0,0.0,0.0,0.0,0.0,0.0,0.0,0.0,0.0,-1.7615,-1.7261,-1.6322,-1.58,-1.5777,0.0,0.0,0.0,0.0,0.0,0.0,0.0,0.0,0.0,0.0,0.0,0.0,0.0,0.0,0.0,0.0,0.0,0.0,0.0,0.0,0.0,0.0,0.0,0.0,0.0,0.0,0.0,0.0,0.0,0.0,0.0,0.0,0.0,0.0,0.0,0.0,0.0,0.0,0.0,0.0,0.0,0.0,0.0,0.0,0.0,0.0,0.0,0.0,0.0,0.0,0.0,0.0,0.0,0.0,0.0,0.0,0.0,0.0,0.0,0.0,0.0,0.0,0.0,0.0,0.0,0.0,0.0,0.0,0.0,0.0,0.0,0.0,0.0,0.0,0.0,0.0,0.0,0.0,0.0,0.0,0.0,0.0,0.0,0.0,0.0,0.0,0.0,0.0,0.0,0.0,0.0,0.0,0.0,0.0,0.0,0.0,0.0,0.0,0.0,0.0,0.0,0.0,0.0,0.0,0.0,0.0,0.0,0.0,0.0,0.0,0.0,0.0,-1.5569,-1.5077,-1.5065,0.0,0.0,0.0,0.0,0.0,0.0,0.0,0.0,0.0,0.0,0.0,0.0,0.0,0.0,0.0,0.0,0.0,0.0,0.0,0.0,0.0,0.0,0.0,0.0,0.0,0.0,0.0,0.0,0.0,0.0,0.0,0.0,0.0,0.0,0.0,0.0,0.0,0.0,0.0,0.0,0.0,0.0,0.0,0.0,0.0,0.0,0.0,0.0,0.0,0.0,0.0,0.0,0.0,0.0,0.0,0.0,0.0,0.0,0.0,0.0,0.0,0.0,0.0,0.0,0.0,0.0,0.0,0.0,0.0,0.0,0.0,0.0,0.0,0.0,0.0,0.0,0.0,0.0,0.0,0.0,0.0,0.0,0.0,0.0,0.0,0.0,0.0,0.0,0.0,0.0,0.0,0.0,0.0,0.0,0.0,0.0,0.0,0.0,0.0,0.0,0.0,0.0,0.0,0.0,0.0,0.0,0.0,0.0,0.0,0.0,-1.6356,-1.5781,-1.5412,0.0,-1.5319,0.0,0.0,0.0,0.0,0.0,0.0,0.0,0.0,0.0,0.0,0.0,0.0,0.0,0.0,0.0,0.0,0.0,0.0,0.0,0.0,0.0,0.0,0.0,0.0,0.0,0.0,0.0,0.0,0.0,0.0,0.0,0.0,0.0,0.0,0.0,0.0,0.0,0.0,0.0,0.0,0.0,0.0,0.0,0.0,0.0,0.0,0.0,0.0,0.0,0.0,0.0,0.0,0.0,0.0,0.0,0.0,0.0,0.0,0.0,0.0,0.0,0.0,0.0,0.0,0.0,0.0,0.0,0.0,0.0,0.0,0.0,0.0,0.0,0.0,0.0,0.0,0.0,0.0,0.0,0.0,0.0,0.0,0.0,0.0,0.0,0.0,0.0,0.0,0.0,0.0,0.0,0.0,0.0,0.0,0.0,0.0,0.0,0.0,0.0,0.0,0.0,0.0,0.0,0.0,0.0,0.0,0.0,0.0,0.0,0.0,-1.5932,-1.5488,-1.5145,-1.5106,0.0,0.0,0.0,0.0,0.0,0.0,0.0,0.0,0.0,0.0,0.0,0.0,0.0,0.0,0.0,0.0,0.0,0.0,0.0,0.0,0.0,0.0,0.0,0.0,0.0,0.0,0.0,0.0,0.0,0.0,0.0,0.0,0.0,0.0,0.0,0.0,0.0,0.0,0.0,0.0,0.0,0.0,0.0,0.0,0.0,0.0,0.0,0.0,0.0,0.0,0.0,0.0,0.0,0.0,0.0,0.0,0.0,0.0,0.0,0.0,0.0,0.0,0.0,0.0,0.0,0.0,0.0,0.0,0.0,0.0,0.0,0.0,0.0,0.0,0.0,0.0,0.0,0.0,0.0,0.0,0.0,0.0,0.0,0.0,0.0,0.0,0.0,0.0,0.0,0.0,0.0,0.0,0.0,0.0,0.0,0.0,0.0,0.0,0.0,0.0,0.0,0.0,0.0,0.0,0.0,0.0,0.0,0.0,0.0,0.0,-1.5671,-1.5274,-1.4948,-1.4614,-1.4466,-1.4632,0.0,0.0,0.0,0.0,0.0,0.0,0.0,0.0,0.0,0.0,0.0,0.0,0.0,0.0,0.0,0.0,0.0,0.0,0.0,0.0,0.0,0.0,0.0,0.0,0.0,0.0,0.0,0.0,0.0,0.0,0.0,0.0,0.0,0.0,0.0,0.0,0.0,0.0,0.0,0.0,0.0,0.0,0.0,0.0,0.0,0.0,0.0,0.0,0.0,0.0,0.0,0.0,0.0,0.0,0.0,0.0,0.0,0.0,0.0,0.0,0.0,0.0,0.0,0.0,0.0,0.0,0.0,0.0,0.0,0.0,0.0,0.0,0.0,0.0,0.0,0.0,0.0,0.0,0.0,0.0,0.0,0.0,0.0,0.0,0.0,0.0,0.0,0.0,0.0,0.0,0.0,0.0,0.0,0.0,0.0,0.0,0.0,0.0,0.0,0.0,0.0,0.0,0.0,0.0,0.0,0.0,0.0,0.0,-1.533,-1.477,-1.4405,-1.4242,-1.351,-1.3403,0.0,0.0,0.0,0.0,0.0,0.0,0.0,0.0,0.0,0.0,0.0,0.0,0.0,0.0,0.0,0.0,0.0,0.0,0.0,0.0,0.0,0.0,0.0,0.0,0.0,0.0,0.0,0.0,0.0,0.0,0.0,0.0,0.0,0.0,0.0,0.0,0.0,0.0,0.0,0.0,0.0,0.0,0.0,0.0,0.0,0.0,0.0,0.0,0.0,0.0,0.0,0.0,0.0,0.0,0.0,0.0,0.0,0.0,0.0,0.0,0.0,0.0,0.0,0.0,0.0,0.0,0.0,0.0,0.0,0.0,0.0,0.0,0.0,0.0,0.0,0.0,0.0,0.0,0.0,0.0,0.0,0.0,0.0,0.0,0.0,0.0,0.0,0.0,0.0,0.0,0.0,0.0,0.0,0.0,0.0,0.0,0.0,0.0,0.0,0.0,0.0,0.0,0.0,0.0,0.0,0.0,0.0,0.0,0.0,-1.4655,-1.4366,-1.4371,-1.4534,-1.3788,-1.3308,0.0,0.0,0.0,0.0,0.0,0.0,0.0,0.0,0.0,0.0,0.0,0.0,0.0,0.0,0.0,0.0,0.0,0.0,0.0,0.0,0.0,0.0,0.0,0.0,0.0,0.0,0.0,0.0,0.0,0.0,0.0,0.0,0.0,0.0,0.0,0.0,0.0,0.0,0.0,0.0,0.0,0.0,0.0,0.0,0.0,0.0,0.0,0.0,0.0,0.0,0.0,0.0,0.0,0.0,0.0,0.0,0.0,0.0,0.0,0.0,0.0,0.0,0.0,0.0,0.0,0.0,0.0,0.0,0.0,0.0,0.0,0.0,0.0,0.0,0.0,0.0,0.0,0.0,0.0,0.0,0.0,0.0,0.0,0.0,0.0,0.0,0.0,0.0,0.0,0.0,0.0,0.0,0.0,0.0,0.0,0.0,0.0,0.0,0.0,0.0,0.0,0.0,0.0,0.0,0.0,0.0,0.0,0.0,0.0,-1.3829,0.0,-1.3798,-1.4042,-1.325,-1.2732,0.0,0.0,0.0,0.0,0.0,0.0,0.0,0.0,0.0,0.0,0.0,0.0,0.0,0.0,0.0,0.0,0.0,0.0,0.0,0.0,0.0,0.0,0.0,0.0,0.0,0.0,0.0,0.0,0.0,0.0,0.0,0.0,0.0,0.0,0.0,0.0,0.0,0.0,0.0,0.0,0.0,0.0,0.0,0.0,0.0,0.0,0.0,0.0,0.0,0.0,0.0,0.0,0.0,0.0,0.0,0.0,0.0,0.0,0.0,0.0,0.0,0.0,0.0,0.0,0.0,0.0,0.0,0.0,0.0,0.0,0.0,0.0,0.0,0.0,0.0,0.0,0.0,0.0,0.0,0.0,0.0,0.0,0.0,0.0,0.0,0.0,0.0,0.0,0.0,0.0,0.0,0.0,0.0,0.0,0.0,0.0,0.0,0.0,0.0,0.0,0.0,0.0,0.0,0.0,0.0,0.0,0.0,0.0,-1.3249,-1.2733,-1.2559,-1.2679,-1.2538,-1.2117,-1.1643,0.0,0.0,0.0,0.0,0.0,0.0,0.0,0.0,0.0,0.0,0.0,0.0,0.0,0.0,0.0,0.0,0.0,0.0,0.0,0.0,0.0,0.0,0.0,0.0,0.0,0.0,0.0,0.0,0.0,0.0,0.0,0.0,0.0,0.0,0.0,0.0,0.0,0.0,0.0,0.0,0.0,0.0,0.0,0.0,0.0,0.0,0.0,0.0,0.0,0.0,0.0,0.0,0.0,0.0,0.0,0.0,0.0,0.0,0.0,0.0,0.0,0.0,0.0,0.0,0.0,0.0,0.0,0.0,0.0,0.0,0.0,0.0,0.0,0.0,0.0,0.0,0.0,0.0,0.0,0.0,0.0,0.0,0.0,0.0,0.0,0.0,0.0,0.0,0.0,0.0,0.0,0.0,0.0,0.0,0.0,0.0,0.0,0.0,0.0,0.0,0.0,0.0,0.0,0.0,0.0,0.0,0.0,0.0,0.0,-1.3321,-1.3003,-1.2969,-1.3088,-1.2299,-1.176,0.0,0.0,0.0,0.0,0.0,0.0,0.0,0.0,0.0,0.0,0.0,0.0,0.0,0.0,0.0,0.0,0.0,0.0,0.0,0.0,0.0,0.0,0.0,0.0,0.0,0.0,0.0,0.0,0.0,0.0,0.0,0.0,0.0,0.0,0.0,0.0,0.0,0.0,0.0,0.0,0.0,0.0,0.0,0.0,0.0,0.0,0.0,0.0,0.0,0.0,0.0,0.0,0.0,0.0,0.0,0.0,0.0,0.0,0.0,0.0,0.0,0.0,0.0,0.0,0.0,0.0,0.0,0.0,0.0,0.0,0.0,0.0,0.0,0.0,0.0,0.0,0.0,0.0,0.0,0.0,0.0,0.0,0.0,0.0,0.0,0.0,0.0,0.0,0.0,0.0,0.0,0.0,0.0,0.0,0.0,0.0,0.0,0.0,0.0,0.0,0.0,0.0,0.0,0.0,0.0,0.0,0.0,0.0,0.0,-1.3515,-1.326,-1.3186,-1.3436,-1.2767,-1.2166,-1.1622,0.0,0.0,0.0,0.0,0.0,0.0,0.0,0.0,0.0,0.0,0.0,0.0,0.0,0.0,0.0,0.0,0.0,0.0,0.0,0.0,0.0,0.0,0.0,0.0,0.0,0.0,0.0,0.0,0.0,0.0,0.0,0.0,0.0,0.0,0.0,0.0,0.0,0.0,0.0,0.0,0.0,0.0,0.0,0.0,0.0,0.0,0.0,0.0,0.0,0.0,0.0,0.0,0.0,0.0,0.0,0.0,0.0,0.0,0.0,0.0,0.0,0.0,0.0,0.0,0.0,0.0,0.0,0.0,0.0,0.0,0.0,0.0,0.0,0.0,0.0,0.0,0.0,0.0,0.0,0.0,0.0,0.0,0.0,0.0,0.0,0.0,0.0,0.0,0.0,0.0,0.0,0.0,0.0,0.0,0.0,0.0,0.0,0.0,0.0,0.0,0.0,0.0,0.0,0.0,0.0,0.0,0.0,0.0,-1.3409,-1.3433,-1.3441,-1.3417,-1.3214,-1.2702,0.0,0.0,0.0,0.0,0.0,0.0,0.0,0.0,0.0,0.0,0.0,0.0,0.0,0.0,0.0,0.0,0.0,0.0,0.0,0.0,0.0,0.0,0.0,0.0,0.0,0.0,0.0,0.0,0.0,0.0,0.0,0.0,0.0,0.0,0.0,0.0,0.0,0.0,0.0,0.0,0.0,0.0,0.0,0.0,0.0,0.0,0.0,0.0,0.0,0.0,0.0,0.0,0.0,0.0,0.0,0.0,0.0,0.0,0.0,0.0,0.0,0.0,0.0,0.0,0.0,0.0,0.0,0.0,0.0,0.0,0.0,0.0,0.0,0.0,0.0,0.0,0.0,0.0,0.0,0.0,0.0,0.0,0.0,0.0,0.0,0.0,0.0,0.0,0.0,0.0,0.0,0.0,0.0,0.0,0.0,0.0,0.0,0.0,0.0,0.0,0.0,0.0,0.0,0.0,0.0,0.0,0.0,0.0,0.0,-1.3945,-1.4221,-1.4237,-1.3969,-1.353,-1.3003,0.0,0.0,0.0,0.0,0.0,0.0,0.0,0.0,0.0,0.0,0.0,0.0,0.0,0.0,0.0,0.0,0.0,0.0,0.0,0.0,0.0,0.0,0.0,0.0,0.0,0.0,0.0,0.0,0.0,0.0,0.0,0.0,0.0,0.0,0.0,0.0,0.0,0.0,0.0,0.0,0.0,0.0,0.0,0.0,0.0,0.0,0.0,0.0,0.0,0.0,0.0,0.0,0.0,0.0,0.0,0.0,0.0,0.0,0.0,0.0,0.0,0.0,0.0,0.0,0.0,0.0,0.0,0.0,0.0,0.0,0.0,0.0,0.0,0.0,0.0,0.0,0.0,0.0,0.0,0.0,0.0,0.0,0.0,0.0,0.0,0.0,0.0,0.0,0.0,0.0,0.0,0.0,0.0,0.0,0.0,0.0,0.0,0.0,0.0,0.0,0.0,0.0,0.0,0.0,0.0,0.0,0.0,0.0,-1.3604,-1.4172,-1.4594,-1.4716,-1.4513,-1.3993,-1.3457,0.0,0.0,0.0,0.0,0.0,0.0,0.0,0.0,0.0,0.0,0.0,0.0,0.0,0.0,0.0,0.0,0.0,0.0,0.0,0.0,0.0,0.0,0.0,0.0,0.0,0.0,0.0,0.0,0.0,0.0,0.0,0.0,0.0,0.0,0.0,0.0,0.0,0.0,0.0,0.0,0.0,0.0,0.0,0.0,0.0,0.0,0.0,0.0,0.0,0.0,0.0,0.0,0.0,0.0,0.0,0.0,0.0,0.0,0.0,0.0,0.0,0.0,0.0,0.0,0.0,0.0,0.0,0.0,0.0,0.0,0.0,0.0,0.0,0.0,0.0,0.0,0.0,0.0,0.0,0.0,0.0,0.0,0.0,0.0,0.0,0.0,0.0,0.0,0.0,0.0,0.0,0.0,0.0,0.0,0.0,0.0,0.0,0.0,0.0,0.0,0.0,0.0,0.0,0.0,0.0,0.0,0.0,0.0,-1.3855,-1.4229,-1.4708,-1.4968,-1.4952,-1.4456,-1.3937,0.0,0.0,0.0,0.0,0.0,0.0,0.0,0.0,0.0,0.0,0.0,0.0,0.0,0.0,0.0,0.0,0.0,0.0,0.0,0.0,0.0,0.0,0.0,0.0,0.0,0.0,0.0,0.0,0.0,0.0,0.0,0.0,0.0,0.0,0.0,0.0,0.0,0.0,0.0,0.0,0.0,0.0,0.0,0.0,0.0,0.0,0.0,0.0,0.0,0.0,0.0,0.0,0.0,0.0,0.0,0.0,0.0,0.0,0.0,0.0,0.0,0.0,0.0,0.0,0.0,0.0,0.0,0.0,0.0,0.0,0.0,0.0,0.0,0.0,0.0,0.0,0.0,0.0,0.0,0.0,0.0,0.0,0.0,0.0,0.0,0.0,0.0,0.0,0.0,0.0,0.0,0.0,0.0,0.0,0.0,0.0,0.0,0.0,0.0,0.0,0.0,0.0,0.0,0.0,0.0,0.0,0.0,0.0,-1.4091,-1.4586,-1.4838,-1.4968,-1.496,-1.4456,-1.3993,0.0,0.0,0.0,0.0,0.0,0.0,0.0,0.0,0.0,0.0,0.0,0.0,0.0,0.0,0.0,0.0,0.0,0.0,0.0,0.0,0.0,0.0,0.0,0.0,0.0,0.0,0.0,0.0,0.0,0.0,0.0,0.0,0.0,0.0,0.0,0.0,0.0,0.0,0.0,0.0,0.0,0.0,0.0,0.0,0.0,0.0,0.0,0.0,-2.0762,0.0,0.0,0.0,0.0,0.0,0.0,0.0,0.0,0.0,0.0,0.0,0.0,0.0,0.0,0.0,0.0,0.0,0.0,0.0,0.0,0.0,0.0,0.0,0.0,0.0,0.0,0.0,0.0,0.0,0.0,0.0,0.0,0.0,0.0,0.0,0.0,0.0,0.0,0.0,0.0,0.0,0.0,0.0,0.0,0.0,0.0,0.0,0.0,0.0,0.0,0.0,0.0,0.0,0.0,0.0,0.0,0.0,0.0,0.0,-1.4367,-1.4822,-1.509,-1.5228,-1.5212,-1.4871,-1.4391,0.0,0.0,0.0,0.0,0.0,0.0,0.0,0.0,0.0,0.0,0.0,0.0,0.0,0.0,0.0,0.0,0.0,0.0,0.0,0.0,0.0,0.0,0.0,0.0,0.0,0.0,0.0,0.0,0.0,0.0,0.0,0.0,0.0,0.0,0.0,0.0,0.0,0.0,0.0,0.0,0.0,0.0,0.0,0.0,0.0,0.0,0.0,0.0,0.0,0.0,0.0,0.0,0.0,0.0,0.0,0.0,0.0,0.0,0.0,0.0,0.0,0.0,0.0,0.0,0.0,0.0,0.0,0.0,0.0,0.0,0.0,0.0,0.0,0.0,0.0,0.0,0.0,0.0,0.0,0.0,0.0,0.0,0.0,0.0,0.0,0.0,0.0,0.0,0.0,0.0,0.0,0.0,0.0,0.0,0.0,0.0,0.0,0.0,0.0,0.0,0.0,0.0,0.0,0.0,0.0,0.0,0.0,-1.4123,-1.4659,-1.5041,-1.5358,-1.5512,-1.5512,-1.5333,-1.483,-1.3977,0.0,0.0,0.0,0.0,0.0,0.0,0.0,0.0,0.0,0.0,0.0,0.0,0.0,0.0,0.0,0.0,0.0,0.0,0.0,0.0,0.0,0.0,0.0,0.0,0.0,0.0,0.0,0.0,0.0,0.0,0.0,0.0,0.0,0.0,0.0,0.0,0.0,0.0,-1.9947,-2.0254,0.0,0.0,0.0,0.0,0.0,0.0,0.0,0.0,-2.1643,0.0,0.0,0.0,0.0,0.0,0.0,0.0,0.0,0.0,0.0,0.0,0.0,0.0,0.0,0.0,0.0,0.0,0.0,0.0,0.0,0.0,0.0,0.0,0.0,0.0,0.0,0.0,0.0,0.0,0.0,0.0,0.0,0.0,0.0,0.0,0.0,0.0,0.0,0.0,0.0,0.0,0.0,0.0,0.0,0.0,0.0,0.0,0.0,0.0,0.0,0.0,0.0,0.0,0.0,0.0,0.0,-1.3807,-1.4375,-1.4911,-1.5407,-1.5488,-1.5512,-1.5512,-1.5333,-1.4887,-1.4164,0.0,0.0,0.0,0.0,0.0,0.0,0.0,0.0,0.0,0.0,0.0,0.0,0.0,0.0,0.0,0.0,0.0,0.0,0.0,0.0,0.0,0.0,0.0,0.0,0.0,0.0,0.0,0.0,0.0,0.0,0.0,0.0,0.0,0.0,0.0,0.0,0.0,0.0,0.0,-2.1149,-2.1363,0.0,0.0,0.0,0.0,0.0,0.0,0.0,0.0,-2.2098,0.0,0.0,0.0,0.0,0.0,0.0,0.0,0.0,0.0,0.0,0.0,0.0,0.0,0.0,0.0,0.0,0.0,0.0,0.0,0.0,0.0,0.0,0.0,0.0,0.0,0.0,0.0,0.0,0.0,0.0,0.0,0.0,0.0,0.0,0.0,0.0,0.0,0.0,0.0,0.0,0.0,0.0,0.0,0.0,0.0,0.0,0.0,0.0,0.0,0.0,0.0,0.0,0.0,0.0,0.0,-1.4042,-1.4757,-1.5301,-1.5642,-1.574,-1.5788,-1.5788,-1.5528,-1.5049,0.0,0.0,0.0,0.0,0.0,0.0,0.0,0.0,0.0,0.0,0.0,0.0,0.0,0.0,0.0,0.0,0.0,0.0,0.0,0.0,0.0,0.0,0.0,0.0,0.0,0.0,0.0,0.0,0.0,0.0,0.0,0.0,0.0,0.0,0.0,0.0,0.0,0.0,0.0,0.0,-2.159,-2.1951,-2.2405,0.0,0.0,0.0,0.0,0.0,0.0,-2.2392,-2.2311,0.0,0.0,0.0,0.0,0.0,0.0,0.0,0.0,0.0,0.0,0.0,0.0,0.0,0.0,0.0,0.0,0.0,0.0,0.0,0.0,0.0,0.0,0.0,0.0,0.0,0.0,0.0,0.0,0.0,0.0,0.0,0.0,0.0,0.0,0.0,0.0,0.0,0.0,0.0,0.0,0.0,0.0,0.0,0.0,0.0,0.0,0.0,0.0,0.0,0.0,0.0,0.0,0.0,0.0,0.0,-1.4286,-1.5098,-1.5618,-1.5821,-1.5975,-1.6048,-1.604,-1.5666,-1.5139,0.0,0.0,0.0,0.0,0.0,0.0,0.0,0.0,0.0,0.0,0.0,0.0,0.0,0.0,0.0,0.0,0.0,0.0,0.0,0.0,0.0,0.0,0.0,0.0,0.0,0.0,0.0,0.0,0.0,0.0,0.0,0.0,0.0,0.0,0.0,0.0,0.0,0.0,0.0,0.0,0.0,-2.2458,-2.3287,-2.2806,0.0,0.0,0.0,0.0,-2.31,-2.2979,0.0,0.0,0.0,0.0,0.0,0.0,0.0,0.0,0.0,0.0,0.0,0.0,0.0,0.0,0.0,0.0,0.0,0.0,0.0,0.0,0.0,0.0,0.0,0.0,0.0,0.0,0.0,0.0,0.0,0.0,0.0,0.0,0.0,0.0,0.0,0.0,0.0,0.0,0.0,0.0,0.0,0.0,0.0,0.0,0.0,0.0,0.0,0.0,0.0,0.0,0.0,0.0,0.0,0.0,0.0,0.0,-1.4627,-1.522,-1.5683,-1.5999,-1.6032,-1.6048,-1.604,-1.5545,-1.5009,0.0,0.0,0.0,0.0,0.0,0.0,0.0,0.0,0.0,0.0,0.0,0.0,0.0,0.0,0.0,0.0,0.0,0.0,0.0,0.0,0.0,0.0,0.0,0.0,0.0,0.0,0.0,0.0,0.0,0.0,0.0,0.0,0.0,0.0,0.0,0.0,0.0,0.0,0.0,0.0,0.0,-2.2993,-2.3634,-2.3634,-2.3487,0.0,0.0,-2.4008,-2.4048,-2.4235,0.0,0.0,0.0,0.0,0.0,0.0,0.0,0.0,0.0,0.0,0.0,0.0,0.0,0.0,0.0,0.0,0.0,0.0,0.0,0.0,0.0,0.0,0.0,0.0,0.0,0.0,0.0,0.0,0.0,0.0,0.0,0.0,0.0,0.0,0.0,0.0,0.0,0.0,0.0,0.0,0.0,0.0,0.0,0.0,0.0,0.0,0.0,0.0,0.0,0.0,0.0,0.0,0.0,0.0,0.0,-1.401,-1.4708,-1.5439,-1.5894,-1.604,-1.6048,-1.6048,-1.6048,-1.552,-1.5033,0.0,0.0,0.0,0.0,0.0,0.0,0.0,0.0,0.0,0.0,0.0,0.0,0.0,0.0,0.0,0.0,0.0,0.0,0.0,0.0,0.0,0.0,0.0,0.0,0.0,0.0,0.0,0.0,0.0,0.0,0.0,0.0,0.0,0.0,0.0,0.0,0.0,0.0,0.0,0.0,0.0,0.0,-2.3928,-2.4302,0.0,0.0,0.0,-2.4649,-2.4476,0.0,0.0,0.0,0.0,0.0,0.0,0.0,0.0,0.0,0.0,0.0,0.0,0.0,0.0,0.0,0.0,0.0,0.0,0.0,0.0,0.0,0.0,0.0,0.0,0.0,0.0,0.0,0.0,0.0,0.0,0.0,0.0,0.0,0.0,0.0,0.0,0.0,0.0,0.0,0.0,0.0,0.0,0.0,0.0,0.0,0.0,0.0,0.0,0.0,0.0,0.0,0.0,0.0,0.0,0.0,0.0,0.0,-1.4838,-1.5683,-1.6129,-1.6178,-1.6178,-1.6178,-1.617,-1.5699,0.0,0.0,0.0,0.0,0.0,0.0,0.0,0.0,0.0,0.0,0.0,0.0,0.0,0.0,0.0,0.0,0.0,0.0,0.0,0.0,0.0,0.0,0.0,0.0,0.0,0.0,0.0,-1.8597,0.0,0.0,0.0,0.0,0.0,0.0,0.0,0.0,0.0,0.0,0.0,0.0,0.0,0.0,-2.3754,-2.4342,-2.493,-2.5304,0.0,0.0,-2.5224,-2.4997,-2.5024,-2.473,0.0,0.0,0.0,0.0,0.0,0.0,0.0,0.0,0.0,0.0,0.0,0.0,0.0,0.0,0.0,0.0,0.0,0.0,0.0,0.0,0.0,0.0,0.0,0.0,0.0,0.0,0.0,0.0,0.0,0.0,0.0,0.0,0.0,0.0,0.0,0.0,0.0,0.0,0.0,0.0,0.0,0.0,0.0,0.0,0.0,0.0,0.0,0.0,0.0,0.0,0.0,0.0,0.0,0.0,0.0,-1.5195,-1.5918,-1.6365,-1.6535,-1.6544,-1.6544,-1.6535,-1.6186,-1.5658,0.0,0.0,0.0,0.0,0.0,0.0,0.0,0.0,0.0,0.0,0.0,0.0,0.0,0.0,0.0,0.0,0.0,0.0,0.0,0.0,0.0,0.0,0.0,0.0,0.0,0.0,0.0,0.0,0.0,0.0,0.0,0.0,0.0,0.0,0.0,0.0,0.0,0.0,0.0,0.0,0.0,-2.4356,-2.4943,-2.5518,-2.5905,0.0,0.0,-2.5892,-2.5865,-2.6092,-2.5785,-2.4369,0.0,0.0,0.0,0.0,0.0,0.0,0.0,0.0,0.0,0.0,0.0,0.0,0.0,0.0,0.0,0.0,0.0,0.0,0.0,0.0,0.0,0.0,0.0,0.0,0.0,0.0,0.0,0.0,0.0,0.0,0.0,0.0,0.0,0.0,0.0,0.0,0.0,0.0,0.0,0.0,0.0,0.0,0.0,0.0,0.0,0.0,0.0,0.0,0.0,0.0,0.0,0.0,0.0,-1.4562,-1.5236,-1.6048,-1.6511,-1.6576,-1.6584,-1.6584,-1.6584,-1.6332,-1.5926,0.0,0.0,0.0,0.0,0.0,0.0,0.0,0.0,0.0,0.0,0.0,0.0,0.0,0.0,0.0,0.0,0.0,0.0,0.0,0.0,0.0,0.0,0.0,0.0,0.0,0.0,0.0,0.0,-2.1912,-2.2352,-2.2017,0.0,0.0,0.0,0.0,0.0,0.0,0.0,0.0,0.0,0.0,-2.469,-2.5264,-2.5999,0.0,0.0,-2.664,-2.6694,-2.652,-2.6587,-2.6213,-2.4957,-2.4743,0.0,0.0,0.0,0.0,0.0,0.0,0.0,0.0,0.0,0.0,0.0,0.0,0.0,0.0,0.0,0.0,0.0,0.0,0.0,0.0,0.0,0.0,0.0,0.0,0.0,0.0,0.0,0.0,0.0,0.0,0.0,0.0,0.0,0.0,0.0,0.0,0.0,0.0,0.0,0.0,0.0,0.0,0.0,0.0,0.0,0.0,0.0,0.0,0.0,0.0,0.0,0.0,-1.4749,-1.539,-1.6235,-1.6682,-1.6738,-1.6738,-1.6738,-1.673,-1.6617,-1.6292,0.0,0.0,0.0,0.0,0.0,0.0,0.0,0.0,0.0,0.0,0.0,0.0,0.0,0.0,0.0,0.0,0.0,0.0,0.0,0.0,0.0,0.0,0.0,0.0,0.0,0.0,0.0,0.0,-2.25,-2.2868,-2.2205,0.0,0.0,0.0,0.0,0.0,0.0,0.0,0.0,0.0,0.0,-2.5237,-2.5825,-2.6507,-2.6961,-2.6947,-2.7134,-2.7201,-2.6987,-2.6947,-2.6613,-2.5625,0.0,0.0,0.0,0.0,0.0,0.0,0.0,0.0,0.0,0.0,0.0,0.0,0.0,0.0,0.0,0.0,0.0,0.0,0.0,0.0,0.0,0.0,0.0,0.0,0.0,0.0,0.0,0.0,0.0,0.0,-1.1492,0.0,0.0,0.0,0.0,0.0,0.0,0.0,0.0,0.0,0.0,0.0,0.0,0.0,0.0,0.0,0.0,0.0,0.0,0.0,0.0,0.0,0.0,-1.4879,-1.5748,-1.6479,-1.6925,-1.7088,-1.7096,-1.7088,-1.7088,-1.7088,-1.6836,-1.6284,0.0,0.0,0.0,0.0,0.0,0.0,0.0,0.0,0.0,0.0,0.0,0.0,0.0,0.0,0.0,0.0,0.0,0.0,0.0,0.0,0.0,0.0,0.0,0.0,0.0,0.0,-2.0306,-2.1821,-2.2644,0.0,0.0,0.0,0.0,0.0,0.0,0.0,0.0,0.0,0.0,-2.5371,-2.6132,-2.6707,-2.7054,-2.7255,-2.7255,-2.7268,-2.7268,-2.7268,-2.7255,-2.7054,0.0,0.0,0.0,0.0,0.0,0.0,0.0,0.0,0.0,0.0,0.0,0.0,0.0,0.0,0.0,0.0,0.0,0.0,0.0,0.0,0.0,0.0,0.0,0.0,0.0,0.0,0.0,-1.2905,-1.2726,0.0,0.0,0.0,0.0,0.0,0.0,0.0,0.0,0.0,0.0,0.0,-1.4432,-1.4497,0.0,0.0,0.0,0.0,0.0,0.0,0.0,0.0,0.0,0.0,0.0,0.0,-1.5236,-1.5788,-1.66,-1.7047,-1.7112,-1.7112,-1.7112,-1.7112,-1.7112,-1.6852,-1.6316,0.0,0.0,0.0,0.0,0.0,0.0,0.0,0.0,0.0,0.0,0.0,0.0,0.0,0.0,0.0,0.0,0.0,0.0,0.0,0.0,0.0,0.0,0.0,0.0,0.0,-1.9772,0.0,0.0,0.0,0.0,0.0,0.0,0.0,0.0,0.0,0.0,0.0,-2.4917,-2.5705,-2.6226,-2.6667,-2.7068,-2.7362,-2.7549,0.0,0.0,0.0,0.0,0.0,0.0,0.0,0.0,0.0,0.0,0.0,0.0,0.0,0.0,-2.5224,-2.4342,-2.4195,-2.4102,-2.3808,0.0,0.0,0.0,0.0,0.0,0.0,0.0,0.0,0.0,0.0,0.0,0.0,0.0,0.0,-1.3636,0.0,-1.3352,0.0,0.0,0.0,0.0,0.0,0.0,0.0,0.0,-1.4667,-1.5009,-1.5179,-1.535,-1.5496,0.0,-1.5431,-1.4984,0.0,0.0,0.0,0.0,0.0,0.0,0.0,0.0,-1.5536,-1.5967,-1.6714,-1.7112,-1.7112,-1.7112,-1.7112,-1.7112,-1.7112,-1.6942,-1.6592,-1.6137,-1.5691,0.0,0.0,0.0,0.0,0.0,0.0,0.0,0.0,0.0,0.0,0.0,0.0,0.0,0.0,0.0,0.0,0.0,0.0,0.0,0.0,0.0,0.0,0.0,-1.9469,0.0,0.0,0.0,0.0,0.0,0.0,0.0,0.0,0.0,-2.4367,-2.5119,-2.5872,-2.6452,-2.6769,-2.7099,-2.7328,0.0,0.0,0.0,0.0,0.0,0.0,0.0,-2.7328,-2.6869,-2.7277,-2.7442,-2.7068,-2.6907,-2.7001,-2.7482,0.0,0.0,-2.5879,-2.5692,-2.5598,-2.5304,-2.5251,-2.5304,-2.5504,-2.5531,-2.5625,0.0,0.0,0.0,0.0,0.0,0.0,0.0,0.0,-1.4464,-1.4367,0.0,-1.4196,0.0,0.0,0.0,0.0,0.0,-1.4473,0.0,0.0,-1.5869,-1.6211,-1.6064,-1.6219,-1.6308,-1.6308,-1.6146,-1.6064,-1.6008,-1.5204,0.0,0.0,0.0,0.0,0.0,0.0,-1.5788,-1.63,-1.6836,-1.7112,-1.7112,-1.7112,-1.7112,-1.7112,-1.7112,-1.7104,-1.7096,-1.6771,-1.6503,-1.6308,-1.5472,0.0,0.0,0.0,0.0,0.0,0.0,0.0,0.0,0.0,0.0,0.0,0.0,0.0,0.0,0.0,0.0,0.0,0.0,0.0,0.0,-1.7573,0.0,0.0,0.0,0.0,0.0,0.0,0.0,0.0,0.0,0.0,-2.4547,-2.5555,-2.6294,-2.6838,0.0,0.0,0.0,0.0,-2.7823,-2.7559,-2.7084,-2.6785,-2.6339,-2.6648,-2.6891,-2.6808,0.0,0.0,-2.8123,-2.7896,-2.7789,-2.8083,-2.8096,-2.7869,-2.7014,-2.6841,-2.676,-2.6507,-2.644,-2.644,-2.6453,-2.648,-2.6547,-1.5244,0.0,0.0,0.0,0.0,-1.4935,-1.5041,-1.5204,-1.5204,-1.5106,-1.4927,-1.4797,0.0,0.0,0.0,0.0,0.0,0.0,-1.5447,-1.5748,-1.6129,-1.6349,-1.643,-1.6479,-1.6568,-1.669,-1.6649,-1.669,-1.6787,-1.6552,-1.6008,-1.522,0.0,0.0,0.0,0.0,-1.6097,-1.6495,-1.6901,-1.7112,-1.7112,-1.7112,-1.7112,-1.7112,-1.7112,-1.7112,-1.7112,-1.7015,-1.6812,-1.6511,-1.6129,0.0,0.0,0.0,0.0,0.0,0.0,0.0,0.0,0.0,0.0,0.0,0.0,0.0,0.0,0.0,0.0,0.0,0.0,0.0,-1.6554,-1.7062,-1.7517,0.0,0.0,0.0,0.0,0.0,0.0,0.0,0.0,0.0,-2.2973,-2.4651,-2.6007,0.0,0.0,-2.6561,-2.6545,-2.7033,-2.687,-2.5556,-2.5574,0.0,-2.396,-2.3765,-2.4258,-2.5568,-2.7109,-2.815,-2.815,-2.807,-2.8043,-2.8136,-2.815,-2.8043,-2.7843,-2.7762,-2.7722,-2.7655,-2.7642,-2.7642,-2.7642,-2.7642,-2.7655,-1.5967,-1.574,-1.535,-1.5285,-1.5447,-1.5447,-1.5593,-1.5829,-1.5829,-1.5764,-1.5658,-1.5626,-1.5472,-1.5228,-1.5122,0.0,0.0,0.0,-1.5983,-1.6259,-1.6438,-1.6584,-1.669,-1.6763,-1.6844,-1.695,-1.695,-1.7006,-1.7112,-1.7112,-1.6755,-1.6064,0.0,0.0,-1.5837,-1.6113,-1.6397,-1.669,-1.6966,-1.7112,-1.7112,-1.7112,-1.7112,-1.7112,-1.7112,-1.7112,-1.7112,-1.7112,-1.7006,-1.6795,-1.6544,-1.6137,0.0,0.0,0.0,0.0,0.0,0.0,0.0,0.0,0.0,0.0,0.0,-1.3734,-1.3701,0.0,0.0,0.0,-1.504,-1.573,-1.669,-1.6964,0.0,0.0,0.0,0.0,0.0,0.0,0.0,-2.013,-2.0731,-2.119,-2.1536,-2.2674,-2.3961,-2.4623,-2.4635,-2.4669,-2.4595,0.0,-2.4777,-2.3655,-2.372,-2.3413,-2.2099,-2.2078,-2.2913,-2.5044,-2.694,-2.8136,-2.815,-2.815,-2.815,-2.815,-2.815,-2.815,-2.815,-2.815,-2.815,-2.815,-2.815,-2.815,-2.815,-2.815,-2.815,-1.6584,-1.6527,-1.5878,-1.5691,-1.5837,-1.5837,-1.6024,-1.6316,-1.6324,-1.6324,-1.6341,-1.6503,-1.6397,-1.6089,-1.6105,0.0,-1.6349,-1.6357,-1.6454,-1.6625,-1.6795,-1.6877,-1.6885,-1.7039,-1.7112,-1.7112,-1.7112,-1.7112,-1.7112,-1.7112,-1.7039,-1.6893,-1.673,-1.6544,-1.6365,-1.6527,-1.6714,-1.6901,-1.7063,-1.7153,-1.7153,-1.7153,-1.7153,-1.7153,-1.7153,-1.7153,-1.7153,-1.7136,-1.7136,-1.712,-1.6803,-1.6535,-1.6308,0.0,0.0,0.0,0.0,0.0,0.0,0.0,0.0,0.0,0.0,0.0,0.0,0.0,0.0,0.0,-1.5804,0.0,-1.6568,-1.6968,0.0,0.0,0.0,-1.8086,-1.8086,-1.8439,-1.8755,-1.91,0.0,0.0,-1.9971,-2.0037,-2.0567,-2.1751,-2.2133,-2.2226,-2.2087,-2.2298,-2.2236,-2.1898,-2.1581,-2.1155,-2.0783,-2.1097,-2.2256,-2.4327,-2.6481,-2.7552,-2.7552,-2.7552,-2.7709,-2.7552,-2.7865,-2.8034,-2.8008,-2.8021,-2.8177,-2.815,-2.815,-2.815,-2.815,-2.815,-2.815,-1.6584,-1.656,-1.6397,-1.6349,-1.6381,-1.6389,-1.6438,-1.6511,-1.6511,-1.6519,-1.6519,-1.656,-1.6535,-1.6462,-1.66,-1.6682,-1.673,-1.686,-1.6942,-1.6982,-1.7031,-1.7047,-1.7055,-1.7096,-1.7112,-1.7112,-1.7112,-1.7112,-1.7112,-1.7112,-1.7161,-1.725,-1.7218,-1.7039,-1.6738,-1.6893,-1.708,-1.7258,-1.7429,-1.7518,-1.7518,-1.751,-1.751,-1.7518,-1.7518,-1.7518,-1.751,-1.7388,-1.7323,-1.7315,-1.7104,-1.6844,-1.6527,-1.5886,0.0,0.0,0.0,0.0,0.0,0.0,0.0,0.0,0.0,-1.4676,-1.4586,0.0,-1.5764,0.0,-1.6462,-1.6844,-1.6795,-1.6886,0.0,0.0,-1.7406,-1.7547,-1.79,-1.7935,-1.7922,-1.8308,-1.8444,-1.847,-1.8427,-1.854,-1.8566,-1.8427,-1.9888,-2.1006,-2.1044,-2.1542,-2.1522,-2.0148,-2.0336,-2.012,-1.8844,-1.9706,-2.0938,-2.1412,-2.316,-2.4402,-2.4402,-2.4402,-2.4402,-2.4577,-2.564,-2.6438,-2.6425,-2.7444,-2.8404,-2.8203,-2.815,-2.815,-2.815,-2.815,-2.815,-1.682,-1.6812,-1.6812,-1.682,-1.6803,-1.6649,-1.6625,-1.6698,-1.6706,-1.6747,-1.682,-1.682,-1.682,-1.682,-1.6925,-1.6966,-1.6974,-1.7063,-1.7112,-1.7112,-1.7112,-1.7112,-1.7112,-1.7112,-1.7112,-1.7112,-1.7193,-1.7234,-1.7242,-1.7307,-1.7396,-1.7502,-1.7583,-1.7526,-1.7331,-1.7339,-1.7437,-1.7624,-1.7794,-1.7875,-1.7875,-1.7875,-1.7843,-1.777,-1.7762,-1.7689,-1.7534,-1.7437,-1.7348,-1.7266,-1.7169,-1.699,-1.6706,-1.6194,-1.565,0.0,0.0,0.0,0.0,0.0,0.0,0.0,0.0,0.0,0.0,0.0,-1.6405,-1.6405,-1.6836,-1.7071,-1.6974,-1.6974,-1.6925,-1.7165,-1.7148,-1.7329,-1.7501,-1.7421,-1.748,-1.7653,-1.7664,-1.7579,-1.7488,-1.7621,-1.7704,-1.725,-1.8356,-1.923,-1.9168,-1.9733,-1.9644,-1.8655,-1.9027,-1.9053,-1.8043,-1.9505,-2.0589,-2.0771,-2.2212,-2.3475,-2.3475,-2.3475,-2.3443,-2.3526,-2.4931,-2.6102,-2.6025,-2.7381,-2.8738,-2.8604,-2.8537,-2.8444,-2.8203,-2.815,-2.8163,-1.7169,-1.7145,-1.7145,-1.7136,-1.7088,-1.6779,-1.6738,-1.6885,-1.6885,-1.6974,-1.7112,-1.7112,-1.7112,-1.7112,-1.7112,-1.7112,-1.7112,-1.7112,-1.7112,-1.7112,-1.7112,-1.712,-1.7145,-1.7145,-1.7153,-1.7185,-1.7339,-1.7429,-1.7461,-1.7607,-1.7697,-1.7746,-1.79,-1.7997,-1.8014,-1.7859,-1.7859,-1.8022,-1.8168,-1.8241,-1.8249,-1.8249,-1.8176,-1.803,-1.7997,-1.7843,-1.7543,-1.7478,-1.738,-1.7226,-1.7169,-1.708,-1.6917,-1.6414,-1.5967,0.0,-1.5155,0.0,0.0,0.0,0.0,0.0,0.0,0.0,0.0,-1.656,-1.6868,-1.6885,-1.7023,-1.7112,-1.7112,-1.7112,-1.7112,-1.7112,-1.7112,-1.7112,-1.7112,-1.7112,-1.712,-1.7145,-1.7145,-1.7153,-1.7193,-1.7323,-1.7421,-1.7469,-1.7624,-1.7895,-1.7583,-1.7846,-1.7985,-1.7957,-1.8005,-1.8297,-1.8404,-1.9541,-2.0472,-2.0658,-2.1752,-2.3046,-2.2862,-2.2862,-2.2984,-2.2992,-2.4234,-2.5588,-2.5488,-2.707,-2.8666,-2.8627,-2.8789,-2.8965,-2.8457,-2.831,-2.835,-1.7461,-1.7331,-1.7331,-1.725,-1.7104,-1.7039,-1.7031,-1.7063,-1.7063,-1.708,-1.7112,-1.7112,-1.7112,-1.7112,-1.7112,-1.7112,-1.7112,-1.7112,-1.7112,-1.7112,-1.7112,-1.7193,-1.7331,-1.7339,-1.7404,-1.7534,-1.7575,-1.7664,-1.7819,-1.7851,-1.8014,-1.829,-1.833,-1.8428,-1.8558,0.0,0.0,0.0,-1.8606,-1.8623,-1.8623,-1.8623,-1.8606,-1.8566,-1.8428,0.0,-1.8249,-1.7973,-1.7802,-1.7754,-1.7494,0.0,0.0,0.0,0.0,0.0,0.0,0.0,0.0,0.0,0.0,0.0,-1.6479,-1.6535,-1.6292,-1.6625,-1.6909,-1.7047,-1.7088,-1.7112,-1.7112,-1.7112,-1.7112,-1.7112,-1.7112,-1.7112,-1.7112,-1.7112,-1.7161,-1.7315,-1.7331,-1.7388,-1.7518,-1.7575,-1.7656,-1.7802,-1.7965,-1.8119,-1.8233,-1.8144,-1.8144,-1.8322,-1.8476,-1.8574,-1.8615,-1.9013,-1.9412,-1.9187,-1.9378,-1.9759,-1.9958,-1.9768,-1.9759,-1.9699,-2.1187,-2.2616,-2.2397,-2.494,-2.7463,-2.7243,-2.8476,-2.9566,-2.8991,-2.8871,-2.8885,-1.7591,0.0,-1.751,-1.7461,0.0,-1.7372,-1.7372,-1.7356,-1.7185,-1.7112,-1.7112,-1.7112,-1.7112,-1.7112,-1.7112,-1.7161,-1.7242,-1.725,-1.7291,-1.7372,-1.7372,-1.7421,-1.7518,-1.7607,-1.7697,-1.7778,-1.7957,-1.8087,-1.8184,-1.8273,-1.8412,-1.859,-1.8761,-1.8899,-1.8988,-1.9167,-1.9167,-1.8988,-1.9069,-1.9159,-1.9248,-1.9248,-1.9207,-1.911,-1.8948,0.0,0.0,0.0,0.0,0.0,0.0,0.0,0.0,-1.725,0.0,-1.6722,-1.6625,-1.6535,-1.6446,-1.66,-1.6706,-1.6706,-1.6868,-1.6901,-1.6714,-1.6868,-1.7015,-1.7104,-1.7112,-1.7112,-1.7112,-1.7112,-1.7112,-1.7112,-1.7193,-1.725,-1.725,-1.7323,-1.7404,-1.7502,-1.7591,-1.7681,-1.777,-1.7949,-1.807,-1.8176,-1.8338,-1.8541,-1.8761,-1.8615,-1.8541,-1.8801,-1.9004,-1.9142,-1.9232,-1.9248,-1.9248,-1.9256,-1.9248,-1.9256,-1.9248,-1.9248,-1.9224,-1.9339,-2.065,-2.1938,-2.1934,-2.4166,-2.6405,-2.7414,-2.8409,-2.9363,-2.9779,-2.978,-2.9526,-1.7811,-1.7786,-1.7778,-1.7762,-1.7737,-1.7737,-1.7737,-1.7713,0.0,0.0,0.0,-1.7201,-1.7201,-1.7201,-1.721,-1.7291,-1.7429,-1.7437,-1.7526,-1.7689,-1.7689,-1.7721,-1.7786,-1.794,-1.803,-1.807,-1.8355,-1.8533,-1.8598,-1.8744,-1.885,-1.8939,-1.9207,-1.9354,-1.937,-1.9646,-1.9662,-1.9419,-1.9508,-1.9638,-1.9784,-1.9792,-1.9719,-1.9565,-1.9394,-1.9167,-1.8874,-1.8688,-1.8509,-1.833,-1.829,-1.8119,-1.7811,-1.7754,-1.7607,-1.7323,-1.7274,-1.725,-1.725,-1.7218,-1.7201,-1.7201,-1.7201,-1.7177,-1.712,-1.7112,-1.712,-1.7153,-1.7161,-1.7177,-1.7201,-1.7201,-1.7201,-1.721,-1.7339,-1.7445,-1.7486,-1.7599,-1.7705,-1.7786,-1.7924,-1.8022,-1.8079,-1.8314,-1.8533,-1.8598,-1.8728,-1.8948,-1.9224,-1.911,-1.9037,-1.9289,-1.9435,-1.9597,-1.9727,-1.9752,-1.9792,-1.9735,-1.9752,-1.9792,-1.9792,-1.9792,-1.9727,-1.9557,-2.0951,-2.1659,-2.1919,-2.3238,-2.5204,-2.7147,-2.7564,-2.8367,-3.0239,-3.0333,-2.9913,-1.8476,-1.8338,-1.8338,-1.8249,-1.8103,-1.8095,-1.8095,-1.807,-1.7721,-1.7567,-1.7567,-1.7567,-1.7567,-1.7567,-1.7567,-1.7583,-1.7607,-1.7607,-1.7705,-1.7875,-1.7884,-1.8046,-1.833,-1.8371,-1.846,-1.8606,-1.8671,-1.8842,-1.9118,-1.9175,-1.9337,-1.9605,-1.9695,-1.9711,-1.9719,-1.9768,-1.9841,-1.9946,-1.9825,-1.9768,-1.9792,-1.9792,-1.9776,-1.9743,-1.9573,-1.9459,-1.9402,-1.9232,-1.9061,-1.8874,-1.8728,-1.855,-1.8347,-1.8192,-1.8079,-1.8022,-1.7884,-1.7802,-1.7802,-1.7656,-1.7567,-1.7567,-1.7567,-1.7437,-1.7145,-1.7112,-1.7177,-1.7323,-1.7356,-1.7413,-1.7543,-1.7567,-1.7567,-1.7567,-1.7591,-1.7664,-1.7819,-1.7875,-1.8005,-1.8282,-1.8363,-1.8444,-1.8582,-1.8671,-1.8842,-1.9069,-1.9175,-1.9313,-1.9597,-1.9678,-1.9662,-1.9703,-1.9735,-1.976,-1.9825,-1.98,-1.9825,-1.9792,-1.9817,-1.9833,-1.9833,-1.9833,-1.9817,-1.9768,-2.0173,-2.0351,-2.0309,-2.1903,-2.3298,-2.4088,-2.5221,-2.6968,-2.9127,-2.9578,-2.9934,-1.868,-1.8598,-1.8598,-1.855,-1.8476,-1.8476,-1.8476,-1.846,-1.8306,-1.8111,-1.7932,-1.7932,-1.7932,-1.7932,-1.7932,-1.7989,-1.8079,-1.8079,-1.8176,-1.8347,-1.8355,-1.8444,-1.8606,-1.8801,-1.8931,-1.9021,-1.9216,-1.9386,-1.954,-1.9549,-1.963,-1.9792,-1.989,-1.9987,-2.0068,-2.0076,-2.0117,-2.0198,-2.0028,-1.9979,-2.0076,-2.0076,-2.0076,-2.0076,-1.9906,-1.9808,-1.9808,-1.9646,-1.9508,-1.9419,-1.9345,-1.9175,-1.8907,-1.8809,-1.8671,-1.8493,-1.8395,-1.8314,-1.8208,-1.803,-1.7932,-1.7932,-1.7932,-1.7867,-1.7705,-1.751,-1.7437,-1.7518,-1.7616,-1.7705,-1.7786,-1.7875,-1.7932,-1.7932,-1.8014,-1.8111,-1.82,-1.8306,-1.842,-1.859,-1.8777,-1.8923,-1.9004,-1.9183,-1.9345,-1.9532,-1.9622,-1.976,-1.9922,-2.002,-2.0036,-1.9963,-1.9938,-1.9987,-2.0052,-2.0076,-2.0076,-2.0076,-2.0076,-2.0076,-2.0076,-2.0076,-2.0068,-2.0076,-2.0076,-2.0076,-2.0068,-2.0686,-2.19,-2.3313,-2.3828,-2.5586,-2.838,-3.0379,-3.1372,-1.8964,-1.8964,-1.8964,-1.8964,-1.8964,-1.8964,-1.8964,-1.8964,-1.8964,-1.8801,-1.8541,-1.8379,-1.8298,-1.8298,-1.8298,-1.8379,-1.8501,-1.8517,-1.8631,-1.8834,-1.8842,-1.8891,-1.8988,-1.9256,-1.9378,-1.941,-1.9662,-1.9808,-1.9849,-1.9849,-1.9873,-1.9922,-2.0052,-2.019,-2.032,-2.032,-2.032,-2.0312,-2.019,-2.019,-2.0312,-2.032,-2.032,-2.0312,-2.019,-2.0125,-2.0117,-1.9987,-1.989,-1.9857,-1.9857,-1.9711,-1.941,-1.9378,-1.9256,-1.8996,-1.8923,-1.8801,-1.859,-1.8403,-1.8298,-1.8298,-1.8298,-1.8298,-1.8273,-1.8046,-1.7867,-1.7851,-1.7957,-1.8054,-1.8119,-1.8217,-1.8298,-1.8306,-1.846,-1.8582,-1.8639,-1.8793,-1.8923,-1.898,-1.9216,-1.9378,-1.9427,-1.9613,-1.9776,-1.9841,-2.0011,-2.0117,-2.0141,-2.0239,-2.0247,-2.0174,-2.0125,-2.0166,-2.0304,-2.0312,-2.0304,-2.032,-2.0312,-2.0288,-2.0288,-2.0312,-2.0312,-2.0296,-2.0304,-2.0288,-2.0312,-2.0312,-2.112,-2.2329,-2.2642,-2.3779,-2.7212,-2.9639,-3.1797,-1.9678,-1.9695,-1.9662,-1.9695,-1.9662,-1.967,-1.9662,-1.9662,-1.9687,-1.9678,-1.9524,-1.8964,-1.8688,-1.8671,-1.8688,-1.8704,-1.872,-1.8704,-1.8891,-1.9183,-1.9207,-1.9378,-1.9638,-1.9719,-1.9743,-1.9743,-1.9784,-1.9898,-2.0036,-2.0044,-2.0117,-2.0255,-2.0288,-2.0296,-2.032,-2.032,-2.032,-2.032,-2.0304,-2.0304,-2.032,-2.032,-2.032,-2.032,-2.0304,-2.0296,-2.0288,-2.0279,-2.0198,-2.006,-2.0044,-1.9946,-1.9768,-1.9743,-1.9719,-1.967,-1.9524,-1.9289,-1.8964,-1.8777,-1.8688,-1.8671,-1.8696,-1.8696,-1.8696,-1.8655,-1.855,-1.8444,-1.8403,-1.8485,-1.8623,-1.868,-1.8712,-1.8728,-1.8858,-1.8996,-1.9159,-1.9337,-1.95,-1.9678,-1.9678,-1.9735,-1.9735,-1.9792,-1.9873,-2.0028,-2.0166,-2.0263,-2.0271,-2.0296,-2.0336,-2.0304,-2.0296,-2.0296,-2.0328,-2.032,-2.032,-2.032,-2.0328,-2.0344,-2.0353,-2.0353,-2.0328,-2.0377,-2.0344,-2.0353,-2.032,-2.032,-2.032,-2.0937,-2.112,-2.1518,-2.3784,-2.6208,-2.882,-1.9792,-1.9792,-1.9792,-1.9792,-1.9792,-1.9792,-1.9792,-1.9792,-1.9792,-1.9792,-1.976,-1.9475,-1.9354,-1.9354,-1.9354,-1.9354,-1.9354,-1.9354,-1.9427,-1.9573,-1.9573,-1.9654,-1.9784,-1.9906,-1.9955,-1.9963,-2.0052,-2.0141,-2.0206,-2.0214,-2.0247,-2.0312,-2.032,-2.032,-2.032,-2.032,-2.032,-2.032,-2.032,-2.032,-2.032,-2.032,-2.032,-2.032,-2.032,-2.032,-2.032,-2.032,-2.0288,-2.0223,-2.0214,-2.0133,-1.9963,-1.9955,-1.9906,-1.98,-1.9719,-1.9613,-1.9467,-1.9394,-1.9354,-1.9354,-1.9354,-1.9354,-1.9354,-1.9354,-1.9321,-1.924,-1.9053,-1.9004,-1.9167,-1.9289,-1.9354,-1.9362,-1.9419,-1.9492,-1.9557,-1.9638,-1.9711,-1.9784,-1.9882,-1.9946,-1.9963,-2.0036,-2.0125,-2.0206,-2.0288,-2.0328,-2.0328,-2.032,-2.0369,-2.0458,-2.0483,-2.0434,-2.0361,-2.032,-2.0328,-2.0344,-2.0418,-2.0483,-2.0491,-2.0588,-2.0612,-2.0507,-2.0483,-2.0434,-2.0328,-2.0328,-2.032,-2.0545,-2.1769,-2.2581,-2.3409,-2.545,-2.8099,-1.993,-1.9938,-1.9938,-1.993,-1.9938,-1.9938,-1.993,-1.9938,-1.993,-1.9938,-1.993,-1.993,-1.9938,-1.9922,-1.9841,-1.9792,-1.9792,-1.9792,-1.9817,-1.9857,-1.9857,-1.9882,-1.9946,-2.0068,-2.0133,-2.0158,-2.0255,-2.032,-2.032,-2.032,-2.032,-2.0328,-2.0369,-2.0393,-2.0401,-2.0434,-2.0466,-2.0466,-2.0466,-2.0466,-2.0474,-2.0466,-2.0418,-2.0336,-2.032,-2.032,-2.032,-2.032,-2.032,-2.032,-2.032,-2.0263,-2.0141,-2.0133,-2.0076,-1.9946,-1.989,-1.9865,-1.9865,-1.9817,-1.9792,-1.9792,-1.9792,-1.9792,-1.9792,-1.9792,-1.9817,-1.9833,-1.963,-1.9524,-1.9581,-1.9711,-1.9784,-1.9792,-1.9825,-1.9865,-1.9857,-1.9898,-1.9938,-1.9946,-2.0068,-2.0133,-2.0141,-2.0223,-2.0304,-2.0312,-2.0361,-2.0393,-2.0409,-2.045,-2.0531,-2.0645,-2.0661,-2.0621,-2.0491,-2.0499,-2.0466,-2.0483,-2.0596,-2.0661,-2.0669,-2.0783,-2.084,-2.0669,-2.0669,-2.0653,-2.0572,-2.0507,-2.0458,-2.0676,-2.1708,-2.2744,-2.2589,-2.44,-2.6254,-2.0296,-2.0288,-2.0296,-2.0271,-2.0288,-2.0279,-2.0288,-2.0255,-2.0279,-2.0288,-2.0271,-2.0279,-2.0288,-2.0255,-1.9955,-1.98,-1.98,-1.9817,-1.9906,-2.0044,-2.0044,-2.0125,-2.0288,-2.0304,-2.0304,-2.0288,-2.0304,-2.0328,-2.0336,-2.0328,-2.032,-2.0344,-2.0507,-2.0588,-2.0604,-2.0726,-2.0815,-2.0791,-2.0791,-2.0807,-2.0815,-2.0815,-2.0653,-2.0385,-2.0336,-2.0344,-2.0336,-2.0328,-2.0328,-2.0328,-2.0328,-2.0312,-2.0304,-2.0304,-2.0288,-2.0271,-2.0141,-2.0052,-2.0036,-1.9914,-1.9817,-1.9808,-1.9833,-1.9808,-1.9841,-1.9841,-1.9906,-2.0036,-2.002,-1.9938,-1.9817,-1.9833,-1.9841,-1.9841,-1.9963,-2.0044,-2.0052,-2.0166,-2.0279,-2.0271,-2.0271,-2.0288,-2.0304,-2.0312,-2.0344,-2.0385,-2.0483,-2.058,-2.0596,-2.071,-2.0791,-2.0824,-2.084,-2.084,-2.0832,-2.0751,-2.0767,-2.0783,-2.0759,-2.084,-2.084,-2.0848,-2.0856,-2.0848,-2.0848,-2.084,-2.0832,-2.0807,-2.0775,-2.0972,-2.0955,-2.1381,-2.1746,-2.1209,-2.3078,-2.032,-2.032,-2.032,-2.032,-2.032,-2.032,-2.032,-2.032,-2.032,-2.032,-2.032,-2.032,-2.032,-2.0312,-2.019,-2.0133,-2.0125,-2.0125,-2.0166,-2.0223,-2.0223,-2.0255,-2.0312,-2.032,-2.032,-2.032,-2.032,-2.0385,-2.0491,-2.0499,-2.0556,-2.0653,-2.0726,-2.0759,-2.0775,-2.0824,-2.0848,-2.0856,-2.0848,-2.0848,-2.0864,-2.0848,-2.0783,-2.0677,-2.0661,-2.0661,-2.0661,-2.0556,-2.0499,-2.0499,-2.0385,-2.032,-2.032,-2.032,-2.032,-2.032,-2.0263,-2.0231,-2.0223,-2.0166,-2.0133,-2.0125,-2.0125,-2.0117,-2.0125,-2.0133,-2.0158,-2.0214,-2.0231,-2.019,-2.0158,-2.0125,-2.0125,-2.0141,-2.0182,-2.0223,-2.0239,-2.0288,-2.032,-2.032,-2.032,-2.0361,-2.0474,-2.0499,-2.0539,-2.0645,-2.0718,-2.0751,-2.0767,-2.0824,-2.0905,-2.1002,-2.1035,-2.1067,-2.1189,-2.097,-2.0856,-2.0889,-2.0913,-2.0994,-2.1027,-2.1116,-2.1148,-2.1043,-2.1027,-2.0994,-2.097,-2.0921,-2.0921,-2.0905,-2.0905,-2.0929,-2.0848,-2.0929,-2.2387,-2.032,-2.032,-2.032,-2.032,-2.032,-2.032,-2.032,-2.032,-2.032,-2.032,-2.032,-2.032,-2.032,-2.032,-2.032,-2.032,-2.032,-2.032,-2.032,-2.032,-2.032,-2.032,-2.032,-2.032,-2.0353,-2.0418,-2.0474,-2.0564,-2.0669,-2.0677,-2.0742,-2.0848,-2.0905,-2.0945,-2.0945,-2.0994,-2.1027,-2.1027,-2.1027,-2.1027,-2.1027,-2.1027,-2.1027,-2.1027,-2.1027,-2.0962,-2.0864,-2.0742,-2.0677,-2.0661,-2.0556,-2.0466,-2.0418,-2.0353,-2.032,-2.032,-2.032,-2.032,-2.032,-2.032,-2.032,-2.032,-2.032,-2.032,-2.032,-2.032,-2.032,-2.032,-2.032,-2.0336,-2.0393,-2.0409,-2.0385,-2.0336,-2.032,-2.0344,-2.0401,-2.0409,-2.0442,-2.0499,-2.0515,-2.0564,-2.0653,-2.0669,-2.0726,-2.0848,-2.0897,-2.0945,-2.0945,-2.1002,-2.1059,-2.1181,-2.1205,-2.1254,-2.1303,-2.1173,-2.11,-2.1116,-2.1092,-2.1165,-2.1205,-2.1319,-2.1343,-2.1246,-2.1181,-2.1132,-2.1083,-2.1035,-2.1019,-2.101,-2.1067,-2.1124,-2.1083,-2.1051,-2.2552,-2.0328,-2.0336,-2.032,-2.0353,-2.0369,-2.0377,-2.0344,-2.0369,-2.0353,-2.0377,-2.0393,-2.0353,-2.0385,-2.0353,-2.0385,-2.0353,-2.0377,-2.0385,-2.0353,-2.032,-2.0336,-2.0344,-2.0344,-2.0377,-2.0458,-2.0596,-2.0759,-2.084,-2.0856,-2.0864,-2.0872,-2.0905,-2.1059,-2.1124,-2.1132,-2.1262,-2.1352,-2.1335,-2.1327,-2.1343,-2.1376,-2.1335,-2.1335,-2.1343,-2.1343,-2.1197,-2.0897,-2.0864,-2.0856,-2.0856,-2.0832,-2.0767,-2.0596,-2.0458,-2.0336,-2.0344,-2.0336,-2.0328,-2.032,-2.032,-2.032,-2.032,-2.032,-2.0328,-2.0353,-2.0353,-2.0361,-2.0385,-2.0385,-2.0418,-2.0564,-2.0596,-2.0539,-2.0369,-2.0385,-2.045,-2.0556,-2.0596,-2.0653,-2.0775,-2.0791,-2.084,-2.0856,-2.0856,-2.088,-2.0937,-2.1035,-2.1124,-2.1132,-2.1222,-2.1343,-2.136,-2.1343,-2.136,-2.1376,-2.1384,-2.1384,-2.1384,-2.1335,-2.1327,-2.1311,-2.1376,-2.1376,-2.1311,-2.1376,-2.1343,-2.1352,-2.1303,-2.1287,-2.1287,-2.1319,-2.1303,-2.1262,-2.1448,-2.2143,-2.0393,-2.0507,-2.0507,-2.058,-2.0677,-2.0686,-2.0686,-2.0686,-2.0686,-2.0686,-2.0686,-2.0686,-2.0686,-2.0686,-2.0686,-2.0686,-2.0686,-2.0677,-2.0556,-2.0377,-2.045,-2.0507,-2.0531,-2.0629,-2.0718,-2.0775,-2.0824,-2.0929,-2.1027,-2.1043,-2.1092,-2.1213,-2.127,-2.1303,-2.1303,-2.136,-2.1384,-2.1384,-2.1384,-2.1384,-2.1384,-2.1384,-2.1384,-2.1384,-2.1384,-2.1319,-2.1222,-2.1108,-2.1043,-2.1043,-2.0921,-2.0824,-2.0767,-2.0718,-2.0637,-2.0523,-2.0507,-2.0442,-2.0336,-2.0328,-2.0336,-2.0328,-2.0328,-2.0393,-2.0491,-2.0515,-2.0564,-2.0653,-2.0686,-2.0718,-2.0759,-2.0775,-2.0742,-2.0694,-2.0686,-2.0694,-2.0759,-2.0783,-2.0799,-2.0832,-2.0848,-2.0905,-2.101,-2.1043,-2.1083,-2.1173,-2.1254,-2.1287,-2.1311,-2.1343,-2.1384,-2.1384,-2.1392,-2.1465,-2.153,-2.1587,-2.1603,-2.1587,-2.1538,-2.1506,-2.1473,-2.1465,-2.1449,-2.1465,-2.153,-2.1563,-2.1571,-2.1563,-2.1538,-2.1457,-2.1416,-2.14,-2.1384,-2.1856,-2.2346,-2.0588,-2.0686,-2.0694,-2.0751,-2.0848,-2.0848,-2.0848,-2.0848,-2.0848,-2.0848,-2.0848,-2.0848,-2.0848,-2.0848,-2.0848,-2.0848,-2.0848,-2.0848,-2.0734,-2.0556,-2.0629,-2.0694,-2.0718,-2.0872,-2.0954,-2.097,-2.1019,-2.1108,-2.1213,-2.1222,-2.1278,-2.1368,-2.1384,-2.1376,-2.1384,-2.1384,-2.1384,-2.1384,-2.1384,-2.1384,-2.1384,-2.1384,-2.1384,-2.1384,-2.1384,-2.1384,-2.1376,-2.127,-2.1222,-2.1197,-2.1051,-2.0962,-2.0954,-2.0889,-2.0799,-2.0726,-2.0686,-2.0637,-2.0531,-2.0539,-2.0515,-2.0515,-2.0515,-2.0564,-2.0669,-2.0694,-2.0751,-2.0832,-2.084,-2.088,-2.0937,-2.0954,-2.0978,-2.1051,-2.0913,-2.0897,-2.0937,-2.1019,-2.1051,-2.1067,-2.1067,-2.1108,-2.1189,-2.123,-2.1262,-2.136,-2.1384,-2.1384,-2.14,-2.1441,-2.1465,-2.1514,-2.1595,-2.1676,-2.1741,-2.1782,-2.1806,-2.1782,-2.1741,-2.1709,-2.1676,-2.1676,-2.1668,-2.1684,-2.1741,-2.1758,-2.1766,-2.1766,-2.1741,-2.1636,-2.1555,-2.162,-2.1668,-2.1644,-2.2121,-2.0856,-2.0872,-2.0864,-2.0889,-2.0905,-2.0913,-2.0921,-2.0897,-2.0905,-2.0921,-2.0913,-2.0937,-2.0913,-2.0905,-2.0945,-2.0937,-2.0889,-2.0929,-2.0929,-2.0889,-2.0905,-2.0913,-2.0937,-2.1067,-2.1132,-2.1165,-2.1278,-2.1352,-2.1352,-2.1352,-2.1384,-2.1376,-2.1384,-2.1384,-2.1384,-2.1384,-2.14,-2.1425,-2.1416,-2.1425,-2.1441,-2.1441,-2.1425,-2.1416,-2.1416,-2.1408,-2.1384,-2.1368,-2.1368,-2.136,-2.1213,-2.114,-2.1108,-2.0978,-2.0913,-2.088,-2.0872,-2.0848,-2.0848,-2.0791,-2.0799,-2.0791,-2.0799,-2.0864,-2.0864,-2.0872,-2.0897,-2.0937,-2.0937,-2.0978,-2.1108,-2.114,-2.1205,-2.1303,-2.1108,-2.1019,-2.1124,-2.127,-2.1303,-2.1335,-2.1376,-2.1376,-2.136,-2.1376,-2.1408,-2.1425,-2.1449,-2.1481,-2.1506,-2.1595,-2.166,-2.1717,-2.1774,-2.1847,-2.1912,-2.1944,-2.1985,-2.2066,-2.2001,-2.1936,-2.1855,-2.1839,-2.1879,-2.1904,-2.192,-2.1936,-2.1944,-2.1944,-2.1912,-2.1823,-2.1831,-2.192,-2.1904,-2.1847,-2.1831,-2.0929,-2.1051,-2.1059,-2.1132,-2.123,-2.1246,-2.1238,-2.1238,-2.1238,-2.1213,-2.1238,-2.1246,-2.1222,-2.1246,-2.1238,-2.1246,-2.1222,-2.123,-2.1246,-2.1246,-2.1246,-2.1246,-2.1246,-2.1287,-2.1311,-2.1319,-2.1352,-2.1384,-2.1384,-2.1384,-2.1384,-2.1384,-2.14,-2.1392,-2.1384,-2.14,-2.1465,-2.1571,-2.1587,-2.166,-2.1758,-2.1774,-2.1717,-2.1595,-2.1587,-2.1522,-2.14,-2.1384,-2.1384,-2.1376,-2.1343,-2.1319,-2.1295,-2.1246,-2.1165,-2.1075,-2.1051,-2.0994,-2.0889,-2.0872,-2.0864,-2.0848,-2.0889,-2.0913,-2.1051,-2.1051,-2.1116,-2.1205,-2.1246,-2.1246,-2.1303,-2.1303,-2.1343,-2.136,-2.1262,-2.123,-2.1295,-2.1352,-2.1384,-2.1384,-2.1392,-2.14,-2.1441,-2.1514,-2.1579,-2.1603,-2.1676,-2.1749,-2.1741,-2.179,-2.1863,-2.1863,-2.1912,-2.2001,-2.2066,-2.2107,-2.2188,-2.2318,-2.2285,-2.218,-2.2058,-2.1936,-2.2009,-2.2074,-2.2107,-2.2123,-2.2123,-2.2123,-2.2066,-2.2017,-2.1993,-2.2026,-2.1969,-2.1912,-2.1936,-2.114,-2.1238,-2.1238,-2.1295,-2.1376,-2.1384,-2.1384,-2.1384,-2.1384,-2.1384,-2.1384,-2.1384,-2.1384,-2.1384,-2.1376,-2.1376,-2.1384,-2.1384,-2.1376,-2.1376,-2.1368,-2.1368,-2.1376,-2.1384,-2.1384,-2.1384,-2.1384,-2.1384,-2.1384,-2.1384,-2.1425,-2.1498,-2.1506,-2.1538,-2.1636,-2.162,-2.166,-2.1758,-2.1782,-2.1831,-2.1928,-2.1936,-2.1888,-2.179,-2.1766,-2.1684,-2.153,-2.1498,-2.1465,-2.1408,-2.1384,-2.1384,-2.1384,-2.1384,-2.1335,-2.1238,-2.1238,-2.1181,-2.1108,-2.1075,-2.1075,-2.1083,-2.1075,-2.1124,-2.1213,-2.1238,-2.1295,-2.1352,-2.1376,-2.1384,-2.1384,-2.1384,-2.1384,-2.1376,-2.1384,-2.1384,-2.1384,-2.1376,-2.1425,-2.1465,-2.1498,-2.1538,-2.1595,-2.1717,-2.1758,-2.179,-2.1839,-2.1888,-2.1912,-2.1993,-2.2042,-2.2042,-2.2099,-2.2204,-2.2245,-2.2277,-2.2277,-2.2415,-2.2424,-2.2342,-2.2253,-2.2107,-2.218,-2.2261,-2.2285,-2.2302,-2.2285,-2.2285,-2.2285,-2.2237,-2.2164,-2.2139,-2.2131,-2.2082,-2.2091,-2.1384,-2.1384,-2.1384,-2.1384,-2.1384,-2.1384,-2.1384,-2.1384,-2.1384,-2.1384,-2.1384,-2.1384,-2.1384,-2.1384,-2.1384,-2.1384,-2.1384,-2.1384,-2.1384,-2.1384,-2.1384,-2.14,-2.1441,-2.14,-2.1384,-2.1392,-2.14,-2.1425,-2.1457,-2.1449,-2.1538,-2.166,-2.1693,-2.1766,-2.1839,-2.1896,-2.1936,-2.1953,-2.1961,-2.1993,-2.2042,-2.2058,-2.2026,-2.1969,-2.1912,-2.1839,-2.1725,-2.1676,-2.1611,-2.1425,-2.14,-2.1384,-2.1384,-2.1384,-2.1376,-2.1368,-2.136,-2.1352,-2.1368,-2.1327,-2.1352,-2.1335,-2.1343,-2.1384,-2.136,-2.1352,-2.136,-2.1376,-2.1384,-2.1384,-2.1384,-2.1384,-2.1408,-2.1433,-2.1425,-2.1416,-2.1433,-2.1425,-2.1481,-2.166,-2.1684,-2.1774,-2.1871,-2.1953,-2.1961,-2.1969,-2.2034,-2.2107,-2.2131,-2.218,-2.2212,-2.2229,-2.231,-2.2424,-2.244,-2.244,-2.2432,-2.2456,-2.2456,-2.2415,-2.2415,-2.235,-2.2399,-2.244,-2.2391,-2.2391,-2.2407,-2.2424,-2.2432,-2.2415,-2.2326,-2.2375,-2.2424,-2.2342,-2.231,-2.1384,-2.1384,-2.1384,-2.1384,-2.1384,-2.1384,-2.1384,-2.1384,-2.1384,-2.1384,-2.1384,-2.1384,-2.1384,-2.1384,-2.1384,-2.1384,-2.1384,-2.1384,-2.1384,-2.1384,-2.1384,-2.1473,-2.1538,-2.1481,-2.14,-2.1433,-2.1546,-2.1595,-2.162,-2.1717,-2.1831,-2.1863,-2.1879,-2.1896,-2.1944,-2.1985,-2.2009,-2.2107,-2.2139,-2.2204,-2.2302,-2.2318,-2.2261,-2.2147,-2.2026,-2.1936,-2.1896,-2.1879,-2.179,-2.162,-2.1481,-2.1425,-2.1392,-2.1384,-2.1384,-2.1384,-2.1384,-2.1384,-2.1384,-2.1384,-2.1384,-2.1384,-2.1384,-2.1384,-2.1384,-2.1384,-2.1384,-2.1384,-2.1384,-2.1384,-2.1408,-2.1384,-2.1465,-2.1563,-2.1603,-2.166,-2.1749,-2.1684,-2.1693,-2.1814,-2.1871,-2.1896,-2.1944,-2.2082,-2.2123,-2.2147,-2.2221,-2.2326,-2.235,-2.235,-2.235,-2.235,-2.2391,-2.2464,-2.2464,-2.2464,-2.2464,-2.2464,-2.2464,-2.2464,-2.2464,-2.2464,-2.2464,-2.2464,-2.2456,-2.2464,-2.2464,-2.2464,-2.2448,-2.2456,-2.2464,-2.2464,-2.2464,-2.2464,-2.2464,-2.1384,-2.1384,-2.1384,-2.1384,-2.1384,-2.1384,-2.1384,-2.1384,-2.1384,-2.1384,-2.1384,-2.1384,-2.1384,-2.1384,-2.1384,-2.1384,-2.1384,-2.1384,-2.1433,-2.1498,-2.1522,-2.162,-2.1749,-2.1701,-2.1644,-2.166,-2.1733,-2.1782,-2.1823,-2.1888,-2.1961,-2.205,-2.205,-2.2115,-2.2172,-2.2172,-2.2237,-2.2302,-2.2318,-2.2375,-2.2456,-2.2464,-2.244,-2.2334,-2.2229,-2.2156,-2.2066,-2.2058,-2.1953,-2.1814,-2.1693,-2.1546,-2.1408,-2.1384,-2.1384,-2.1384,-2.1384,-2.1384,-2.1384,-2.1384,-2.1384,-2.1384,-2.1384,-2.1384,-2.1384,-2.1384,-2.1384,-2.1384,-2.1392,-2.1408,-2.1498,-2.1522,-2.1603,-2.1741,-2.179,-2.1863,-2.1977,-2.1896,-2.1855,-2.2001,-2.205,-2.2115,-2.2188,-2.2245,-2.2285,-2.231,-2.2318,-2.2407,-2.2407,-2.2415,-2.2432,-2.2432,-2.2448,-2.2464,-2.2464,-2.2464,-2.2464,-2.2464,-2.2464,-2.2464,-2.2464,-2.2464,-2.2464,-2.2464,-2.2464,-2.2464,-2.2464,-2.2464,-2.2464,-2.2464,-2.2464,-2.2464,-2.2464,-2.2464,-2.2464,-2.1384,-2.1384,-2.1384,-2.1384,-2.1384,-2.1384,-2.1384,-2.1384,-2.1384,-2.1384,-2.1384,-2.1384,-2.1384,-2.1384,-2.1384,-2.1392,-2.1433,-2.1449,-2.1538,-2.1684,-2.1701,-2.1806,-2.1928,-2.1953,-2.1977,-2.2009,-2.1985,-2.1977,-2.1977,-2.2017,-2.2131,-2.2221,-2.2237,-2.2285,-2.2424,-2.2464,-2.2432,-2.2432,-2.244,-2.244,-2.2464,-2.2464,-2.2456,-2.244,-2.2424,-2.2359,-2.2261,-2.2221,-2.2156,-2.1993,-2.1969,-2.179,-2.1563,-2.1425,-2.14,-2.1392,-2.1384,-2.1384,-2.1384,-2.1384,-2.1384,-2.1384,-2.1384,-2.1384,-2.1384,-2.1384,-2.1384,-2.14,-2.1425,-2.1522,-2.1668,-2.1701,-2.179,-2.1928,-2.1977,-2.205,-2.2156,-2.2099,-2.2123,-2.2188,-2.2237,-2.2277,-2.235,-2.2407,-2.244,-2.2464,-2.2464,-2.2464,-2.2464,-2.2464,-2.2472,-2.2464,-2.2464,-2.2537,-2.2553,-2.2578,-2.2562,-2.261,-2.2578,-2.2578,-2.2578,-2.2635,-2.2651,-2.2489,-2.2464,-2.2472,-2.2472,-2.2464,-2.2464,-2.2464,-2.2464,-2.2464,-2.2464,-2.2464,-2.2464,-2.1384,-2.1384,-2.1384,-2.1384,-2.1384,-2.1384,-2.1384,-2.1384,-2.1384,-2.1384,-2.1384,-2.1384,-2.1384,-2.1384,-2.1384,-2.1457,-2.1563,-2.1611,-2.1717,-2.1863,-2.1896,-2.1985,-2.2123,-2.2156,-2.2221,-2.2302,-2.2237,-2.2156,-2.2188,-2.2302,-2.2334,-2.2399,-2.2407,-2.244,-2.2448,-2.2464,-2.2464,-2.2464,-2.2464,-2.2464,-2.2464,-2.2464,-2.2464,-2.2464,-2.2464,-2.244,-2.2424,-2.2407,-2.2334,-2.2172,-2.2147,-2.2034,-2.1847,-2.1701,-2.1571,-2.1441,-2.1408,-2.1416,-2.1392,-2.1384,-2.1384,-2.1384,-2.1384,-2.1384,-2.1384,-2.14,-2.1425,-2.1465,-2.1563,-2.1693,-2.1863,-2.1888,-2.1977,-2.2091,-2.2164,-2.2221,-2.235,-2.2367,-2.2334,-2.2375,-2.2399,-2.2407,-2.244,-2.2464,-2.2464,-2.2464,-2.2464,-2.2464,-2.2464,-2.2472,-2.2472,-2.2472,-2.2464,-2.257,-2.2659,-2.27,-2.2724,-2.283,-2.2838,-2.283,-2.2854,-2.2903,-2.2854,-2.2683,-2.2537,-2.2497,-2.2489,-2.2472,-2.2464,-2.2464,-2.2464,-2.2464,-2.2464,-2.2464,-2.2464,-2.1384,-2.1384,-2.1384,-2.1384,-2.1384,-2.1384,-2.1384,-2.1384,-2.1384,-2.1384,-2.1384,-2.1384,-2.1384,-2.1384,-2.1384,-2.149,-2.1644,-2.1774,-2.1896,-2.2034,-2.2074,-2.2164,-2.231,-2.2326,-2.2383,-2.2424,-2.2375,-2.2326,-2.2334,-2.2415,-2.2464,-2.2464,-2.2464,-2.2464,-2.2464,-2.2464,-2.2464,-2.2464,-2.2464,-2.2464,-2.2464,-2.2464,-2.2464,-2.2464,-2.2464,-2.2464,-2.2464,-2.2464,-2.2432,-2.235,-2.2334,-2.2237,-2.2099,-2.1969,-2.1814,-2.1595,-2.153,-2.1473,-2.1408,-2.1384,-2.1384,-2.1384,-2.1392,-2.1384,-2.1408,-2.1465,-2.1563,-2.1668,-2.1725,-2.1879,-2.2042,-2.2066,-2.2156,-2.2285,-2.2326,-2.2367,-2.2432,-2.2456,-2.2464,-2.2464,-2.2448,-2.244,-2.2448,-2.2464,-2.2464,-2.2464,-2.2464,-2.2464,-2.2464,-2.2497,-2.2513,-2.2602,-2.2635,-2.2732,-2.283,-2.2854,-2.2911,-2.3008,-2.3065,-2.3057,-2.3041,-2.3057,-2.2984,-2.2846,-2.2724,-2.2627,-2.2497,-2.248,-2.2472,-2.2472,-2.2472,-2.2472,-2.2464,-2.2464,-2.2464,-2.1384,-2.1384,-2.1384,-2.1384,-2.1384,-2.1384,-2.1384,-2.1384,-2.1384,-2.1384,-2.1384,-2.1384,-2.1408,-2.1449,-2.1506,-2.1611,-2.1774,-2.1936,-2.2082,-2.2221,-2.2245,-2.2334,-2.2424,-2.2464,-2.2456,-2.2456,-2.2456,-2.2464,-2.244,-2.2464,-2.2464,-2.2464,-2.2464,-2.2464,-2.2464,-2.2464,-2.2464,-2.2464,-2.2464,-2.2464,-2.2464,-2.2464,-2.2464,-2.2464,-2.2464,-2.2464,-2.2464,-2.2464,-2.2464,-2.2448,-2.244,-2.2391,-2.2277,-2.2245,-2.2099,-2.1831,-2.1741,-2.1628,-2.1555,-2.1514,-2.1555,-2.1555,-2.1514,-2.1506,-2.153,-2.1668,-2.1782,-2.1944,-2.1993,-2.2058,-2.2212,-2.2245,-2.2318,-2.2399,-2.2448,-2.2464,-2.2456,-2.2464,-2.2464,-2.2464,-2.2464,-2.2464,-2.2464,-2.2464,-2.2464,-2.2464,-2.2464,-2.2464,-2.248,-2.2553,-2.261,-2.2765,-2.2854,-2.2951,-2.3016,-2.3033,-2.3106,-2.3203,-2.3236,-2.3236,-2.3195,-2.3163,-2.309,-2.3041,-2.2968,-2.2862,-2.2683,-2.2537,-2.2562,-2.2562,-2.2505,-2.2472,-2.2464,-2.2464,-2.2464,-2.1384,-2.1384,-2.1384,-2.1384,-2.1384,-2.1384,-2.1384,-2.1384,-2.1384,-2.1384,-2.1384,-2.14,-2.149,-2.1628,-2.1798,-2.1953,-2.2074,-2.2147,-2.2253,-2.2383,-2.2407,-2.2415,-2.2464,-2.2464,-2.2464,-2.2464,-2.2464,-2.2464,-2.2464,-2.2464,-2.2464,-2.2464,-2.2464,-2.2464,-2.2464,-2.2464,-2.2464,-2.2464,-2.2464,-2.2464,-2.2464,-2.2464,-2.2464,-2.2464,-2.2464,-2.2464,-2.2464,-2.2464,-2.2464,-2.2464,-2.2464,-2.2456,-2.244,-2.244,-2.2334,-2.2147,-2.2001,-2.1888,-2.1839,-2.1806,-2.1806,-2.1798,-2.1823,-2.1855,-2.1855,-2.1871,-2.1977,-2.2139,-2.2164,-2.2229,-2.2359,-2.2415,-2.2448,-2.2448,-2.2464,-2.2464,-2.2464,-2.2464,-2.2464,-2.2464,-2.2464,-2.2464,-2.2464,-2.2464,-2.2464,-2.2464,-2.2464,-2.2472,-2.2537,-2.2659,-2.2765,-2.2927,-2.3065,-2.3154,-2.3203,-2.3228,-2.326,-2.3366,-2.3374,-2.3382,-2.3349,-2.3317,-2.3317,-2.326,-2.3187,-2.3122,-2.2984,-2.2862,-2.2748,-2.2643,-2.2586,-2.2521,-2.2464,-2.2464,-2.2464,-2.1384,-2.1384,-2.1384,-2.1384,-2.1384,-2.1384,-2.1384,-2.1384,-2.1384,-2.1384,-2.1408,-2.1506,-2.1644,-2.1823,-2.2001,-2.2115,-2.2204,-2.2294,-2.2383,-2.2448,-2.2464,-2.2464,-2.2464,-2.2464,-2.2464,-2.2464,-2.2464,-2.2464,-2.2464,-2.2464,-2.2464,-2.2464,-2.2464,-2.2464,-2.2464,-2.2464,-2.2464,-2.2464,-2.2464,-2.2464,-2.2464,-2.2464,-2.2464,-2.2464,-2.2464,-2.2464,-2.2464,-2.2464,-2.2464,-2.2464,-2.2464,-2.2464,-2.2464,-2.2464,-2.2415,-2.2367,-2.2285,-2.2147,-2.1969,-2.1953,-2.1961,-2.1944,-2.1953,-2.1961,-2.2042,-2.2091,-2.2156,-2.2334,-2.235,-2.2391,-2.244,-2.2464,-2.2464,-2.2464,-2.2464,-2.2464,-2.2464,-2.2464,-2.2464,-2.2464,-2.2464,-2.2464,-2.2464,-2.2464,-2.2472,-2.2472,-2.2513,-2.2553,-2.2708,-2.2903,-2.3008,-2.3114,-2.3244,-2.3366,-2.339,-2.3414,-2.3398,-2.3455,-2.3463,-2.3471,-2.3487,-2.3479,-2.3447,-2.3439,-2.3398,-2.3333,-2.326,-2.309,-2.2886,-2.2773,-2.2667,-2.2594,-2.2521,-2.2472,-2.2472,-2.1384,-2.1384,-2.1384,-2.1384,-2.1384,-2.1384,-2.1384,-2.1384,-2.1441,-2.1457,-2.1522,-2.1693,-2.1879,-2.2009,-2.2172,-2.2269,-2.2277,-2.2407,-2.2456,-2.2464,-2.2464,-2.2464,-2.2464,-2.2464,-2.2464,-2.2464,-2.2464,-2.2464,-2.2464,-2.2464,-2.2464,-2.2464,-2.2464,-2.2464,-2.2464,-2.2464,-2.2464,-2.2464,-2.2464,-2.2464,-2.2464,-2.2464,-2.2464,-2.2464,-2.2464,-2.2464,-2.2464,-2.2464,-2.2464,-2.2464,-2.2464,-2.2464,-2.2464,-2.2464,-2.2464,-2.244,-2.2415,-2.2334,-2.218,-2.2115,-2.2074,-2.2066,-2.2074,-2.2164,-2.2237,-2.2261,-2.2294,-2.244,-2.244,-2.2448,-2.2464,-2.2464,-2.2464,-2.2464,-2.2464,-2.2464,-2.2464,-2.2464,-2.2464,-2.2464,-2.2464,-2.2464,-2.2464,-2.2464,-2.2472,-2.248,-2.2537,-2.2627,-2.2846,-2.309,-2.3203,-2.3284,-2.3358,-2.3455,-2.3479,-2.3512,-2.352,-2.3528,-2.3528,-2.3528,-2.3528,-2.3528,-2.3504,-2.3512,-2.3528,-2.3487,-2.339,-2.3203,-2.3025,-2.2943,-2.2846,-2.2692,-2.2594,-2.2521,-2.2472,-2.1384,-2.1384,-2.1384,-2.1384,-2.1384,-2.1384,-2.1384,-2.1425,-2.1571,-2.1644,-2.1709,-2.1969,-2.2123,-2.2212,-2.2326,-2.2415,-2.244,-2.2464,-2.2464,-2.2464,-2.2464,-2.2464,-2.2464,-2.2464,-2.2464,-2.2464,-2.2464,-2.2464,-2.2464,-2.2464,-2.2464,-2.2464,-2.2464,-2.2464,-2.2464,-2.2464,-2.2464,-2.2464,-2.2464,-2.2464,-2.2464,-2.2464,-2.2464,-2.2464,-2.2464,-2.2464,-2.2464,-2.2464,-2.2464,-2.2464,-2.2464,-2.2464,-2.2464,-2.2464,-2.2464,-2.2464,-2.2464,-2.2415,-2.235,-2.2342,-2.2399,-2.2415,-2.2399,-2.2367,-2.2391,-2.2432,-2.2456,-2.2464,-2.2464,-2.2464,-2.2464,-2.2464,-2.2464,-2.2464,-2.2464,-2.2464,-2.2464,-2.2464,-2.2464,-2.2464,-2.2464,-2.2464,-2.2464,-2.2464,-2.2464,-2.2472,-2.2692,-2.2789,-2.3008,-2.3236,-2.3341,-2.3422,-2.3471,-2.3512,-2.3512,-2.3528,-2.3528,-2.3528,-2.3528,-2.3528,-2.3528,-2.3528,-2.3528,-2.3528,-2.3528,-2.3528,-2.3512,-2.3349,-2.3219,-2.3146,-2.3033,-2.2854,-2.2667,-2.2553,-2.2497,-2.1384,-2.1384,-2.1384,-2.1384,-2.1392,-2.1506,-2.1555,-2.1587,-2.1749,-2.1896,-2.1993,-2.2131,-2.2253,-2.2359,-2.2415,-2.2464,-2.2464,-2.2464,-2.2464,-2.2464,-2.2464,-2.2464,-2.2464,-2.2464,-2.2464,-2.2464,-2.2464,-2.2464,-2.2464,-2.2464,-2.2464,-2.2464,-2.2464,-2.2464,-2.2464,-2.2464,-2.2464,-2.2464,-2.2464,-2.2464,-2.2464,-2.2464,-2.2464,-2.2464,-2.2464,-2.2464,-2.2464,-2.2464,-2.2464,-2.2464,-2.2464,-2.2464,-2.2464,-2.2464,-2.2464,-2.2464,-2.2464,-2.2464,-2.2464,-2.2464,-2.2464,-2.2464,-2.2464,-2.2464,-2.2464,-2.2464,-2.2464,-2.2464,-2.2464,-2.2464,-2.2464,-2.2464,-2.2464,-2.2464,-2.2464,-2.2464,-2.2464,-2.2464,-2.2464,-2.2464,-2.2464,-2.2464,-2.2464,-2.2464,-2.2464,-2.2489,-2.2732,-2.2976,-2.3187,-2.3341,-2.3431,-2.3479,-2.3512,-2.3528,-2.3528,-2.3528,-2.3528,-2.3528,-2.3528,-2.3528,-2.3528,-2.3528,-2.3528,-2.3528,-2.3528,-2.3528,-2.3512,-2.3471,-2.3382,-2.3276,-2.3146,-2.3008,-2.2813,-2.2594,-2.2513,-2.1384,-2.1392,-2.1441,-2.1473,-2.1481,-2.1611,-2.1693,-2.1774,-2.1928,-2.2107,-2.2269,-2.2277,-2.2342,-2.244,-2.2464,-2.2464,-2.2464,-2.2464,-2.2464,-2.2464,-2.2464,-2.2464,-2.2464,-2.2464,-2.2464,-2.2464,-2.2464,-2.2464,-2.2464,-2.2464,-2.2464,-2.2464,-2.2464,-2.2464,-2.2464,-2.2464,-2.2464,-2.2464,-2.2464,-2.2464,-2.2464,-2.2464,-2.2464,-2.2464,-2.2464,-2.2464,-2.2464,-2.2464,-2.2464,-2.2464,-2.2464,-2.2464,-2.2464,-2.2464,-2.2464,-2.2464,-2.2464,-2.2464,-2.2464,-2.2464,-2.2464,-2.2464,-2.2464,-2.2464,-2.2464,-2.2464,-2.2464,-2.2464,-2.2464,-2.2464,-2.2464,-2.2464,-2.2464,-2.2464,-2.2464,-2.2464,-2.2464,-2.2464,-2.2464,-2.2464,-2.2464,-2.2472,-2.2513,-2.2537,-2.2659,-2.2708,-2.2911,-2.3138,-2.3317,-2.3431,-2.3479,-2.3512,-2.352,-2.3528,-2.3528,-2.3528,-2.3528,-2.3528,-2.3528,-2.3528,-2.3528,-2.3528,-2.3528,-2.3528,-2.3528,-2.3528,-2.3512,-2.3487,-2.3439,-2.3374,-2.3211,-2.3016,-2.2813,-2.2602,-2.2513,-2.1384,-2.1408,-2.1571,-2.1652,-2.1676,-2.1668,-2.1774,-2.1936,-2.2115,-2.2277,-2.2424,-2.244,-2.244,-2.2464,-2.2464,-2.2464,-2.2464,-2.2464,-2.2464,-2.2464,-2.2464,-2.2464,-2.2464,-2.2464,-2.2464,-2.2464,-2.2464,-2.2464,-2.2464,-2.2464,-2.2464,-2.2464,-2.2464,-2.2464,-2.2464,-2.2464,-2.2464,-2.2464,-2.2464,-2.2464,-2.2464,-2.2464,-2.2464,-2.2464,-2.2464,-2.2464,-2.2464,-2.2464,-2.2464,-2.2464,-2.2464,-2.2464,-2.2464,-2.2464,-2.2464,-2.2464,-2.2464,-2.2464,-2.2464,-2.2464,-2.2464,-2.2464,-2.2464,-2.2464,-2.2464,-2.2464,-2.2464,-2.2464,-2.2464,-2.2464,-2.2464,-2.2464,-2.2464,-2.2464,-2.2464,-2.2464,-2.2464,-2.2464,-2.2464,-2.2464,-2.2472,-2.248,-2.2545,-2.2627,-2.2813,-2.296,-2.3138,-2.3301,-2.3439,-2.3496,-2.352,-2.3528,-2.3528,-2.3528,-2.3528,-2.3528,-2.3528,-2.3528,-2.3528,-2.3528,-2.3528,-2.3528,-2.3528,-2.3528,-2.3528,-2.3528,-2.3528,-2.352,-2.3447,-2.3358,-2.3154,-2.296,-2.2773,-2.261,-2.2513,-2.1457,-2.1579,-2.1636,-2.1798,-2.1993,-2.2009,-2.205,-2.2131,-2.2285,-2.2407,-2.2456,-2.2464,-2.2464,-2.2464,-2.2464,-2.2464,-2.2464,-2.2464,-2.2464,-2.2464,-2.2464,-2.2464,-2.2464,-2.2464,-2.2464,-2.2464,-2.2464,-2.2464,-2.2464,-2.2464,-2.2464,-2.2464,-2.2464,-2.2464,-2.2464,-2.2464,-2.2464,-2.2464,-2.2464,-2.2464,-2.2464,-2.2464,-2.2464,-2.2464,-2.2464,-2.2464,-2.2464,-2.2464,-2.2464,-2.2464,-2.2464,-2.2464,-2.2464,-2.2464,-2.2464,-2.2464,-2.2464,-2.2464,-2.2464,-2.2464,-2.2464,-2.2464,-2.2464,-2.2464,-2.2464,-2.2464,-2.2464,-2.2464,-2.2464,-2.2464,-2.2464,-2.2464,-2.2464,-2.2464,-2.2464,-2.2464,-2.2464,-2.2464,-2.2464,-2.2464,-2.2472,-2.2562,-2.2643,-2.2822,-2.3008,-2.3106,-2.3252,-2.3349,-2.3479,-2.3504,-2.3528,-2.3528,-2.3528,-2.3528,-2.3528,-2.3528,-2.3528,-2.3528,-2.3528,-2.3528,-2.3528,-2.3528,-2.3528,-2.3528,-2.3528,-2.3528,-2.3496,-2.3463,-2.3431,-2.3325,-2.3098,-2.2968,-2.2854,-2.2667,-2.2497,-2.1555,-2.1668,-2.1798,-2.1977,-2.218,-2.2188,-2.2221,-2.2302,-2.2415,-2.2464,-2.2464,-2.2464,-2.2464,-2.2464,-2.2464,-2.2464,-2.2464,-2.2464,-2.2464,-2.2464,-2.2464,-2.2464,-2.2464,-2.2464,-2.2464,-2.2464,-2.2464,-2.2464,-2.2464,-2.2464,-2.2464,-2.2464,-2.2464,-2.2464,-2.2464,-2.2464,-2.2464,-2.2464,-2.2464,-2.2464,-2.2464,-2.2464,-2.2464,-2.2464,-2.2464,-2.2464,-2.2464,-2.2464,-2.2464,-2.2464,-2.2464,-2.2464,-2.2464,-2.2464,-2.2464,-2.2464,-2.2464,-2.2464,-2.2464,-2.2464,-2.2464,-2.2464,-2.2464,-2.2464,-2.2464,-2.2464,-2.2464,-2.2464,-2.2464,-2.2464,-2.2464,-2.2464,-2.2464,-2.2464,-2.2464,-2.2464,-2.2464,-2.2464,-2.2464,-2.2464,-2.2497,-2.261,-2.2781,-2.3016,-2.3219,-2.3284,-2.3358,-2.3439,-2.3504,-2.352,-2.3528,-2.3528,-2.3528,-2.3528,-2.3528,-2.3528,-2.3528,-2.3528,-2.3528,-2.3528,-2.3528,-2.3528,-2.3528,-2.352,-2.3512,-2.3487,-2.3439,-2.3398,-2.3317,-2.3195,-2.3,-2.2919,-2.2903,-2.2716,-2.2489,-2.1668,-2.1725,-2.205,-2.2188,-2.2204,-2.2221,-2.231,-2.2456,-2.2464,-2.2464,-2.2464,-2.2464,-2.2464,-2.2464,-2.2464,-2.2464,-2.2464,-2.2464,-2.2464,-2.2464,-2.2464,-2.2464,-2.2464,-2.2464,-2.2464,-2.2464,-2.2464,-2.2464,-2.2464,-2.2464,-2.2464,-2.2464,-2.2464,-2.2464,-2.2464,-2.2464,-2.2464,-2.2464,-2.2464,-2.2464,-2.2464,-2.2464,-2.2464,-2.2464,-2.2464,-2.2464,-2.2464,-2.2464,-2.2464,-2.2464,-2.2464,-2.2464,-2.2464,-2.2464,-2.2464,-2.2464,-2.2464,-2.2464,-2.2464,-2.2464,-2.2464,-2.2464,-2.2464,-2.2464,-2.2464,-2.2464,-2.2464,-2.2464,-2.2464,-2.2464,-2.2464,-2.2464,-2.2464,-2.2464,-2.2464,-2.2464,-2.2464,-2.2464,-2.2464,-2.248,-2.2505,-2.2635,-2.2886,-2.3138,-2.3301,-2.3406,-2.3439,-2.3463,-2.352,-2.352,-2.3528,-2.3528,-2.3528,-2.3528,-2.3528,-2.3528,-2.3528,-2.3528,-2.352,-2.352,-2.3528,-2.3479,-2.3414,-2.3398,-2.3455,-2.3431,-2.3301,-2.3228,-2.3171,-2.3025,-2.287,-2.2838,-2.2813,-2.2651,-2.2464,-2.1806,-2.2042,-2.2147,-2.2269,-2.2383,-2.2383,-2.2424,-2.2464,-2.2464,-2.2464,-2.2464,-2.2464,-2.2464,-2.2464,-2.2464,-2.2464,-2.2464,-2.2464,-2.2464,-2.2464,-2.2464,-2.2464,-2.2464,-2.2464,-2.2464,-2.2464,-2.2464,-2.2464,-2.2464,-2.2464,-2.2464,-2.2464,-2.2464,-2.2464,-2.2464,-2.2464,-2.2464,-2.2464,-2.2464,-2.2464,-2.2464,-2.2464,-2.2464,-2.2464,-2.2464,-2.2464,-2.2464,-2.2464,-2.2464,-2.2464,-2.2464,-2.2464,-2.2464,-2.2464,-2.2464,-2.2464,-2.2464,-2.2464,-2.2464,-2.2464,-2.2464,-2.2464,-2.2464,-2.2464,-2.2464,-2.2464,-2.2464,-2.2464,-2.2464,-2.2464,-2.2464,-2.2464,-2.2464,-2.2464,-2.2464,-2.2464,-2.2464,-2.2464,-2.2464,-2.2489,-2.2513,-2.2675,-2.2935,-2.3146,-2.3309,-2.3447,-2.3528,-2.3528,-2.3528,-2.3528,-2.3528,-2.3528,-2.3528,-2.3528,-2.3528,-2.3528,-2.3528,-2.3528,-2.3504,-2.3455,-2.3382,-2.3325,-2.3268,-2.3252,-2.326,-2.3203,-2.3098,-2.3041,-2.3008,-2.2895,-2.2757,-2.274,-2.2692,-2.2553,-2.2464,-2.1993,-2.2188,-2.2269,-2.2367,-2.2456,-2.2464,-2.2464,-2.2464,-2.2464,-2.2464,-2.2464,-2.2464,-2.2464,-2.2464,-2.2464,-2.2464,-2.2464,-2.2464,-2.2464,-2.2464,-2.2464,-2.2464,-2.2464,-2.2464,-2.2464,-2.2464,-2.2464,-2.2464,-2.2464,-2.2464,-2.2464,-2.2464,-2.2464,-2.2464,-2.2464,-2.2464,-2.2464,-2.2464,-2.2464,-2.2464,-2.2464,-2.2464,-2.2464,-2.2464,-2.2464,-2.2464,-2.2464,-2.2464,-2.2464,-2.2464,-2.2464,-2.2464,-2.2464,-2.2464,-2.2464,-2.2464,-2.2464,-2.2464,-2.2464,-2.2464,-2.2464,-2.2464,-2.2464,-2.2464,-2.2464,-2.2464,-2.2464,-2.2464,-2.2464,-2.2464,-2.2464,-2.2464,-2.2464,-2.2464,-2.2464,-2.2464,-2.2464,-2.2464,-2.248,-2.2497,-2.2586,-2.2724,-2.2919,-2.3122,-2.3284,-2.3374,-2.3463,-2.3528,-2.3528,-2.3528,-2.3528,-2.3528,-2.3528,-2.3528,-2.3528,-2.352,-2.3512,-2.3479,-2.3406,-2.3349,-2.326,-2.3179,-2.3114,-2.3065,-2.3033,-2.2968,-2.2911,-2.2886,-2.2838,-2.2724,-2.2643,-2.2618,-2.2594,-2.2537,-2.2472,-2.2196,-2.2237,-2.2399,-2.2456,-2.2464,-2.2464,-2.2464,-2.2464,-2.2464,-2.2464,-2.2464,-2.2464,-2.2464,-2.2464,-2.2464,-2.2464,-2.2464,-2.2464,-2.2464,-2.2464,-2.2464,-2.2464,-2.2464,-2.2464,-2.2464,-2.2464,-2.2464,-2.2464,-2.2464,-2.2464,-2.2464,-2.2464,-2.2464,-2.2464,-2.2464,-2.2464,-2.2464,-2.2464,-2.2464,-2.2464,-2.2464,-2.2464,-2.2464,-2.2464,-2.2464,-2.2464,-2.2464,-2.2464,-2.2464,-2.2464,-2.2464,-2.2464,-2.2464,-2.2464,-2.2464,-2.2464,-2.2464,-2.2464,-2.2464,-2.2464,-2.2464,-2.2464,-2.2464,-2.2464,-2.2464,-2.2464,-2.2464,-2.2464,-2.2464,-2.2464,-2.2464,-2.2464,-2.2464,-2.2464,-2.2464,-2.2505,-2.2553,-2.2578,-2.2627,-2.2643,-2.2708,-2.283,-2.2903,-2.3106,-2.3309,-2.3341,-2.3414,-2.3512,-2.3528,-2.3528,-2.3528,-2.3528,-2.3528,-2.3528,-2.3528,-2.352,-2.3496,-2.3447,-2.3349,-2.3203,-2.3081,-2.3008,-2.2951,-2.2878,-2.2797,-2.2789,-2.2748,-2.2724,-2.2675,-2.2586,-2.2521,-2.2489,-2.2472,-2.2472,-2.2472,-2.2269,-2.2399,-2.2448,-2.2464,-2.2464,-2.2464,-2.2464,-2.2464,-2.2464,-2.2464,-2.2464,-2.2464,-2.2464,-2.2464,-2.2464,-2.2464,-2.2464,-2.2464,-2.2464,-2.2464,-2.2464,-2.2464,-2.2464,-2.2464,-2.2464,-2.2464,-2.2464,-2.2464,-2.2464,-2.2464,-2.2464,-2.2464,-2.2464,-2.2464,-2.2464,-2.2464,-2.2464,-2.2464,-2.2464,-2.2464,-2.2464,-2.2464,-2.2464,-2.2464,-2.2464,-2.2464,-2.2464,-2.2464,-2.2464,-2.2464,-2.2464,-2.2464,-2.2464,-2.2464,-2.2464,-2.2464,-2.2464,-2.2464,-2.2464,-2.2464,-2.2464,-2.2464,-2.2464,-2.2464,-2.2464,-2.2464,-2.2464,-2.2464,-2.2464,-2.2464,-2.2464,-2.2464,-2.2464,-2.2464,-2.248,-2.2562,-2.2635,-2.2692,-2.2757,-2.2781,-2.283,-2.2878,-2.2927,-2.3081,-2.3284,-2.3406,-2.3471,-2.3528,-2.3528,-2.3528,-2.3528,-2.3528,-2.3528,-2.3528,-2.3528,-2.3479,-2.3439,-2.3358,-2.3252,-2.309,-2.2903,-2.2805,-2.2716,-2.2627,-2.2562,-2.2594,-2.2602,-2.2553,-2.2497,-2.2464,-2.2464,-2.2464,-2.2464,-2.2472,-2.2472,-2.2375,-2.2464,-2.2464,-2.2464,-2.2464,-2.2464,-2.2464,-2.2464,-2.2464,-2.2464,-2.2464,-2.2464,-2.2464,-2.2464,-2.2464,-2.2464,-2.2464,-2.2464,-2.2464,-2.2464,-2.2464,-2.2464,-2.2464,-2.2464,-2.2464,-2.2464,-2.2464,-2.2464,-2.2464,-2.2464,-2.2464,-2.2464,-2.2464,-2.2464,-2.2464,-2.2464,-2.2464,-2.2464,-2.2464,-2.2464,-2.2464,-2.2464,-2.2464,-2.2464,-2.2464,-2.2464,-2.2464,-2.2464,-2.2464,-2.2464,-2.2464,-2.2464,-2.2464,-2.2464,-2.2464,-2.2464,-2.2464,-2.2464,-2.2464,-2.2464,-2.2464,-2.2464,-2.2464,-2.2464,-2.2464,-2.2464,-2.2464,-2.2464,-2.2464,-2.2464,-2.2464,-2.2464,-2.2464,-2.2464,-2.2553,-2.2651,-2.2683,-2.2716,-2.2683,-2.261,-2.2659,-2.2708,-2.2797,-2.2968,-2.3171,-2.3341,-2.3422,-2.352,-2.3528,-2.3528,-2.3528,-2.3528,-2.3528,-2.3528,-2.352,-2.3447,-2.3349,-2.3252,-2.313,-2.2911,-2.27,-2.2578,-2.2472,-2.248,-2.2489,-2.2489,-2.248,-2.2464,-2.2464,-2.2464,-2.2464,-2.2464,-2.2464,-2.2464,-2.2695,-2.2464,-2.2464,-2.2464,-2.2464,-2.2464,-2.2464,-2.2464,-2.2464,-2.2464,-2.2464,-2.2464,-2.2464,-2.2464,-2.2464,-2.2464,-2.2464,-2.2464,-2.2464,-2.2464,-2.2464,-2.2464,-2.2464,-2.2464,-2.2464,-2.2464,-2.2464,-2.2464,-2.2464,-2.2464,-2.2464,-2.2464,-2.2464,-2.2464,-2.2464,-2.2464,-2.2464,-2.2464,-2.2464,-2.2464,-2.2464,-2.2464,-2.2464,-2.2464,-2.2464,-2.2464,-2.2464,-2.2464,-2.2464,-2.2464,-2.2464,-2.2464,-2.2464,-2.2464,-2.2464,-2.2464,-2.2464,-2.2464,-2.2464,-2.2464,-2.2464,-2.2464,-2.2464,-2.2464,-2.248,-2.248,-2.2505,-2.2505,-2.2505,-2.2505,-2.2472,-2.2472,-2.2464,-2.2464,-2.2497,-2.261,-2.274,-2.2757,-2.2781,-2.27,-2.2594,-2.2651,-2.2708,-2.2797,-2.296,-2.3114,-2.3276,-2.3374,-2.3463,-2.3528,-2.3528,-2.3528,-2.3528,-2.3528,-2.3528,-2.3487,-2.3398,-2.3276,-2.331,-2.3162,-2.2933,-2.276,-2.295,-2.2925,-2.2695,-2.2695,-2.2695,-2.2464,-2.2464,-2.2464,-2.2695,-2.2464,-2.2464,-2.2925,-2.2925,-2.2925,-2.2464,-2.2464,-2.2464,-2.2464,-2.2464,-2.2464,-2.2464,-2.2464,-2.2464,-2.2464,-2.2464,-2.2464,-2.2464,-2.2464,-2.2464,-2.2464,-2.2464,-2.2464,-2.2464,-2.2464,-2.2464,-2.2464,-2.2464,-2.2464,-2.2464,-2.2464,-2.2464,-2.2464,-2.2464,-2.2464,-2.2464,-2.2464,-2.2464,-2.2464,-2.2464,-2.2464,-2.2464,-2.2464,-2.2464,-2.2464,-2.2464,-2.2464,-2.2464,-2.2464,-2.2464,-2.2464,-2.2464,-2.2464,-2.2464,-2.2464,-2.2464,-2.2464,-2.2464,-2.2464,-2.2464,-2.2464,-2.2464,-2.2464,-2.2464,-2.2464,-2.2464,-2.2472,-2.2489,-2.2553,-2.2594,-2.2667,-2.2667,-2.2651,-2.2618,-2.2505,-2.248,-2.2472,-2.2472,-2.2529,-2.2627,-2.2789,-2.2878,-2.2976,-2.3016,-2.3025,-2.309,-2.3073,-2.3041,-2.3195,-2.3325,-2.3439,-2.3455,-2.3528,-2.3528,-2.3528,-2.3528,-2.352,-2.352,-2.3414,-2.3333,-2.3532,-2.3417,-2.3195,-2.3232,-2.3306,-2.3436,-2.3402,-2.3386,-2.3147,-2.2925,-2.2695,-2.2695,-2.2925,-2.2695,-2.2925,-2.2695,-2.2695,-2.2925,-2.3155,-2.3386]}]]